GFSNGP_925_spd_000.txt.gz
Wind_Speed
2 3 3 4 6 8 7 4 6 1 5 4 6 7 7 7 6 9 8 7 7 6 5 7 9 9 9 12 15 16 16 15 20 23 25 27 30 30 31 30 30 30 32 33
2 4 3 3 4 6 5 4 6 2 10 4 6 3 1 2 8 9 9 7 7 6 7 7 6 6 8 9 11 12 13 17 22 26 29 30 31 31 32 32 33 33 32 32
2 3 5 5 5 5 4 4 5 4 5 4 5 5 4 4 7 9 7 8 7 6 7 6 4 5 7 9 10 13 14 19 24 27 28 28 29 30 29 30 31 31 31 31
2 2 1 0 4 6 5 3 2 4 6 3 3 3 3 3 8 8 8 6 5 6 5 4 3 4 6 9 12 16 18 23 26 27 27 28 27 27 30 28 29 30 30 31
3 2 5 2 2 3 3 2 2 4 2 1 2 3 3 3 2 4 6 7 7 6 3 3 3 5 9 12 17 22 22 23 25 26 28 28 28 30 30 29 29 29 29 31
2 3 5 2 2 2 1 2 4 2 4 3 2 4 4 3 4 8 12 10 6 4 3 3 7 10 13 16 18 20 21 22 24 25 27 29 28 29 28 28 29 30 31 30
3 2 6 5 6 0 4 3 3 3 4 6 2 3 1 7 6 10 11 10 7 4 4 7 8 11 13 15 17 18 19 22 24 25 27 25 27 28 29 30 28 28 29 30
3 2 7 2 2 3 3 2 3 4 3 3 3 4 4 6 10 10 8 7 5 3 5 5 7 10 12 14 18 19 21 24 26 27 27 26 28 30 27 27 26 27 27 27
7 5 2 3 5 3 4 4 3 2 3 1 6 6 7 4 3 3 5 6 4 3 2 5 7 9 13 18 19 21 23 26 27 28 27 25 25 26 25 23 23 24 24 25
1 1 6 4 2 2 4 5 6 5 3 1 4 4 7 6 5 4 6 5 3 1 4 7 9 12 15 18 20 22 24 27 27 24 23 23 23 22 23 23 23 23 24 24
3 5 3 4 4 6 6 5 3 3 4 6 4 1 2 3 4 7 9 4 2 3 6 9 12 16 18 20 21 23 25 24 22 21 22 23 24 25 25 25 23 27 27 28
4 4 3 3 0 3 3 3 6 7 4 2 2 2 3 3 6 6 4 2 3 6 8 12 14 18 21 21 21 23 23 21 22 22 22 24 25 29 27 26 28 28 29 28
4 4 4 2 4 2 1 3 4 4 1 4 1 3 5 4 6 4 1 2 5 9 13 15 18 22 23 24 23 24 24 24 23 23 23 25 25 24 25 30 27 27 27 27
1 5 2 1 2 5 5 2 3 2 3 4 7 6 5 4 3 1 3 6 9 12 16 18 20 23 25 25 25 25 26 25 23 25 23 23 23 23 24 25 25 27 28 28
4 4 2 4 5 3 4 6 6 6 5 4 5 6 6 4 3 5 6 9 13 16 19 18 21 26 27 26 26 26 25 23 23 23 23 24 24 24 23 23 24 26 28 28
3 1 4 2 5 6 5 5 5 5 4 4 6 6 5 5 4 7 11 12 13 15 20 22 24 28 25 25 26 26 24 20 23 23 22 23 22 22 23 23 24 24 24 25
3 3 3 3 4 4 5 5 7 5 5 6 8 7 4 3 7 11 12 13 15 17 20 23 26 24 25 24 26 27 23 22 22 23 22 22 22 22 23 22 20 23 25 25
4 3 4 4 5 4 5 4 6 6 5 9 7 4 4 6 8 12 13 16 19 21 24 24 23 24 25 27 26 24 21 21 22 22 23 23 23 23 23 23 23 23 25 25
6 5 5 6 7 6 5 5 9 9 8 7 7 8 9 10 11 12 14 17 20 15 21 23 25 24 27 27 24 24 23 23 23 23 23 24 24 21 20 22 23 23 21 22
3 4 6 6 6 7 7 9 10 10 10 9 9 9 10 11 11 14 16 17 22 22 22 24 24 25 26 25 23 24 23 22 23 22 23 25 23 23 21 24 24 21 23 24
7 8 7 8 8 10 11 12 13 12 13 12 11 9 9 13 14 16 16 10 23 24 21 24 24 25 25 23 26 24 22 22 23 23 22 22 23 22 21 21 23 24 23 23
3 4 7 8 9 10 12 13 14 12 10 8 8 8 9 14 16 18 18 20 24 22 22 23 24 24 26 28 26 24 23 22 22 22 22 21 21 22 23 23 23 23 23 23
9 10 12 10 12 13 12 13 12 11 10 9 9 10 11 14 15 13 9 19 21 25 25 25 25 27 27 27 23 22 23 22 21 21 22 23 23 23 23 23 23 22 22 23
11 13 14 12 11 9 6 12 12 11 10 9 9 11 12 15 18 20 21 24 23 23 25 25 26 27 28 24 23 22 22 21 22 24 26 26 24 23 22 22 23 23 23 25
12 14 10 9 9 8 12 8 7 7 6 8 11 12 12 14 15 21 22 25 24 23 24 25 26 26 24 23 23 24 24 24 24 24 22 23 25 24 24 23 24 24 23 20
6 8 9 9 8 7 6 5 4 3 4 8 12 14 16 18 19 22 23 22 23 23 25 26 25 24 25 25 25 25 25 25 25 25 25 25 26 25 25 25 25 25 25 26
2 3 4 3 3 4 4 3 2 4 6 8 12 17 17 20 22 20 21 23 23 23 24 25 25 25 26 26 27 27 26 26 26 27 26 25 26 27 26 25 25 25 25 25

GFSNGP_925_spd_006.txt.gz
Wind_Speed
3 4 4 7 9 10 9 7 7 5 8 3 4 4 3 2 2 5 6 7 8 7 6 10 10 8 7 8 8 10 11 13 15 17 18 20 22 24 25 27 28 29 32 33
2 3 2 2 4 8 4 4 2 5 4 3 2 3 2 2 2 4 6 7 7 7 9 10 9 7 4 5 6 8 9 12 16 18 20 21 24 26 28 28 30 32 33 33
3 1 2 4 8 8 5 4 7 7 7 4 3 5 3 3 2 3 5 7 8 7 10 11 9 5 3 3 4 6 10 14 16 18 21 23 25 26 28 30 32 33 34 33
3 2 1 3 1 6 6 2 4 6 5 4 5 3 2 3 3 6 2 6 7 11 13 11 7 4 2 1 4 10 12 13 14 18 21 23 25 26 28 30 30 32 31 31
5 4 4 0 4 7 6 3 2 7 5 4 3 3 3 3 3 4 5 8 14 17 14 10 6 3 1 3 8 9 11 14 16 18 21 23 26 28 28 30 31 31 28 30
2 4 7 1 2 4 4 2 6 6 6 5 3 2 3 4 3 3 7 15 17 14 12 9 5 2 1 5 7 10 13 15 17 18 21 25 24 25 28 30 28 29 31 27
2 2 5 3 3 2 5 3 4 6 5 5 4 4 1 3 2 6 9 13 13 11 9 6 3 1 4 6 8 11 13 16 18 21 23 22 24 25 29 30 27 28 28 29
3 2 6 2 4 6 3 3 6 5 4 4 4 2 4 5 6 7 9 11 9 9 6 4 2 2 3 7 9 12 15 18 20 22 23 24 23 27 29 27 26 27 27 28
6 4 0 1 2 4 4 6 5 4 5 4 3 1 2 3 6 7 9 8 6 6 6 3 1 2 6 9 12 14 17 20 23 25 24 22 23 26 24 23 23 24 24 25
3 2 2 4 4 4 4 5 4 3 3 3 2 3 1 3 5 5 8 8 6 6 5 3 2 4 7 11 14 16 19 22 25 24 25 25 24 24 23 22 22 23 23 25
1 2 2 1 2 5 5 5 5 4 3 3 2 0 1 3 5 8 10 9 7 5 3 3 5 8 10 12 14 17 20 23 24 25 25 27 24 22 23 22 22 26 26 26
5 6 4 4 5 4 6 5 5 3 2 2 1 2 3 3 6 10 10 9 7 4 2 5 9 11 12 14 15 17 21 20 23 21 24 24 24 24 19 21 24 27 28 27
2 4 3 6 7 3 6 5 3 4 3 3 2 0 2 2 5 8 9 7 4 1 3 7 11 13 14 15 16 17 19 23 21 22 22 22 22 22 24 25 24 24 26 27
5 7 5 2 4 5 6 5 3 1 1 3 3 2 3 5 6 7 6 3 2 3 6 9 11 15 15 16 16 18 21 23 24 25 23 22 22 22 24 23 24 26 25 28
6 6 5 7 6 4 3 3 1 1 1 2 3 3 3 5 5 4 3 2 3 6 8 9 13 16 17 16 18 21 23 24 22 22 21 22 24 23 23 23 23 25 27 25
5 6 5 4 5 4 3 2 3 3 3 4 4 5 5 4 3 3 2 3 4 7 9 12 16 19 18 19 19 21 24 20 21 21 21 22 22 22 23 23 23 24 23 26
6 3 2 2 3 4 4 2 4 4 3 5 8 6 6 5 4 4 5 5 6 9 11 14 19 18 18 18 20 23 23 23 20 22 21 21 22 22 23 22 22 24 24 26
5 5 6 6 4 2 2 3 4 5 5 6 6 7 8 8 7 5 6 6 8 11 13 15 16 18 18 20 22 22 19 21 21 21 22 22 23 23 23 23 23 24 25 25
5 8 6 5 5 3 2 3 5 6 6 6 8 10 10 8 6 6 5 8 11 13 19 17 18 18 20 23 21 22 22 24 23 22 22 24 23 22 22 23 23 24 24 24
6 5 5 3 2 2 3 5 5 6 7 7 7 7 7 7 6 5 5 9 13 15 16 18 18 21 24 24 20 20 24 23 22 23 22 23 22 22 22 23 23 23 23 24
6 5 3 3 4 5 7 7 6 7 7 9 10 8 7 3 3 4 7 8 16 15 15 18 21 25 26 21 21 22 24 23 22 22 22 21 21 20 21 22 23 23 23 24
4 4 5 5 5 6 6 7 8 7 7 8 8 5 4 4 5 7 9 13 16 16 17 21 23 24 21 24 24 23 23 22 21 20 20 19 20 22 23 23 23 23 23 23
4 4 5 6 5 5 5 5 6 7 6 6 6 5 6 5 5 6 5 10 17 19 20 23 22 22 23 23 23 25 24 22 21 20 21 23 24 24 24 23 23 23 25 25
4 5 3 0 1 2 4 5 4 5 5 3 3 2 1 3 7 9 10 15 18 18 19 20 21 22 23 23 24 23 22 21 22 25 26 25 24 22 23 25 24 23 24 26
2 2 2 2 2 2 3 0 3 4 4 4 3 2 3 4 6 12 15 19 20 19 22 21 22 22 21 23 22 22 23 25 24 24 22 23 26 24 25 25 24 24 24 24
2 1 2 2 2 2 3 5 7 6 6 6 4 2 6 8 11 14 16 17 18 19 22 23 22 21 22 23 22 23 24 25 24 24 25 26 26 26 24 25 25 24 24 25
4 5 6 6 6 6 7 8 10 8 6 4 2 4 9 12 14 15 17 20 21 22 22 23 24 24 22 23 23 24 24 25 25 25 26 26 26 25 24 24 25 25 24 24

GFSNGP_925_spd_009.txt.gz
Wind_Speed
2 2 6 7 9 11 9 10 9 7 8 7 6 6 6 5 5 6 7 10 11 11 10 12 12 11 9 7 5 5 7 8 10 10 11 13 16 18 20 22 22 23 24 24
2 2 4 4 6 13 10 4 6 5 7 5 3 5 4 5 5 5 6 9 11 11 14 13 12 11 8 5 5 6 6 8 8 11 13 15 18 21 22 23 25 26 24 24
3 1 4 3 10 10 7 5 12 12 10 7 4 6 5 5 5 5 5 9 11 12 13 14 14 10 7 4 4 4 6 7 10 12 15 18 21 23 24 24 26 24 25 26
3 2 1 4 1 6 7 4 5 3 5 6 7 5 5 2 3 4 4 6 8 12 15 15 12 9 6 3 2 3 5 9 11 13 17 20 23 24 25 23 22 24 24 24
4 4 4 1 4 6 8 6 6 8 6 6 5 4 3 3 3 2 1 4 11 19 19 15 11 8 5 1 1 5 8 10 12 15 19 22 23 24 24 23 25 24 23 24
1 4 6 1 2 4 4 4 8 7 7 7 5 3 2 2 2 5 7 11 17 17 16 13 9 6 3 1 3 6 9 11 14 16 19 21 22 24 25 27 24 26 26 22
4 2 6 4 4 4 4 3 5 6 6 6 4 2 3 3 4 7 9 13 15 15 13 10 8 5 2 1 4 7 10 13 15 17 20 21 24 25 28 27 23 25 25 23
3 2 7 5 4 7 3 4 6 5 4 5 6 5 4 4 5 6 9 12 13 13 11 8 6 3 1 3 6 9 12 13 16 20 22 23 24 27 25 23 23 24 25 24
6 4 1 2 2 3 4 6 4 6 4 6 6 4 5 4 5 6 11 12 11 11 10 7 5 2 2 5 8 10 13 16 19 22 23 23 25 22 22 21 21 23 23 23
3 1 2 3 4 4 4 5 6 5 6 4 5 5 5 5 5 7 13 13 12 12 9 6 4 1 4 6 8 11 15 18 22 23 23 24 25 22 20 21 21 21 22 23
2 2 4 2 2 6 7 7 8 6 4 5 5 3 3 4 5 9 13 13 12 9 7 5 3 3 4 6 10 13 16 20 22 25 25 24 21 19 19 19 20 25 25 25
5 8 4 6 7 6 7 6 5 5 4 3 2 3 3 3 6 10 11 11 10 8 6 4 3 3 5 7 10 13 17 16 21 18 20 19 19 21 17 19 22 24 25 25
4 5 4 7 7 4 7 6 5 6 5 4 2 2 3 3 4 6 8 9 8 7 5 3 3 5 7 10 13 14 16 19 18 17 17 18 20 21 23 23 21 21 22 25
6 10 6 1 5 5 8 7 7 5 4 4 3 2 2 3 5 7 8 8 8 6 3 3 5 8 10 13 14 16 17 19 17 19 18 20 20 20 22 22 23 23 23 26
3 4 6 9 7 6 6 5 4 3 3 3 2 1 4 6 7 10 9 9 7 4 2 3 7 10 12 13 14 16 18 19 19 19 18 19 21 21 21 21 22 24 26 26
7 6 7 7 7 6 4 3 3 3 3 3 4 5 6 6 8 10 9 8 5 3 3 6 9 13 12 13 15 18 22 19 19 19 18 19 19 20 21 21 22 22 23 25
9 4 3 3 5 6 5 3 3 2 3 4 7 7 8 9 9 9 7 5 3 2 4 7 11 11 13 15 17 21 22 22 17 18 17 19 20 20 22 21 22 22 23 25
5 5 7 8 7 6 4 4 5 5 5 7 7 9 10 11 7 7 5 3 3 5 6 8 10 13 15 17 19 20 19 18 18 18 19 19 20 22 21 21 22 22 23 25
6 10 8 8 9 6 5 3 4 4 4 6 8 9 9 9 8 6 5 3 3 7 9 10 13 14 16 19 17 19 19 21 20 19 19 21 21 20 21 21 20 21 22 24
7 10 12 9 8 5 4 4 3 3 2 4 5 7 8 8 7 5 4 6 6 7 10 12 13 17 19 21 17 17 21 19 19 20 19 21 21 20 20 21 21 22 23 23
8 7 7 7 5 4 3 3 3 3 4 7 9 9 9 7 6 5 3 4 6 8 9 13 16 19 20 18 18 20 22 20 20 19 19 20 20 20 20 20 22 22 23 23
5 5 5 6 5 3 1 1 2 2 3 5 6 6 7 6 5 5 5 7 8 9 13 16 18 18 18 20 21 22 21 19 19 19 18 19 20 21 21 21 22 23 22 24
5 4 5 5 4 2 2 2 1 2 4 5 7 7 6 5 4 2 3 3 10 13 15 17 16 17 19 20 22 23 22 21 19 19 19 21 22 21 21 21 22 23 26 25
6 6 5 5 4 4 3 3 2 4 6 6 6 6 5 2 1 2 3 9 12 13 15 17 17 19 20 21 22 22 21 20 20 23 24 23 22 20 21 23 24 24 25 26
6 8 7 7 5 4 5 8 10 10 10 10 8 6 4 3 3 7 11 13 15 15 18 19 18 19 19 22 22 21 22 23 23 22 20 22 23 22 23 24 23 23 24 23
7 8 8 7 7 7 9 9 11 9 10 9 7 4 4 5 7 9 12 12 14 15 18 20 21 19 20 21 20 22 23 23 22 22 22 23 23 23 23 24 24 22 23 24
13 12 14 11 10 10 11 13 13 9 7 5 4 4 6 9 10 11 13 16 17 19 20 21 21 22 20 22 21 22 23 24 22 22 23 23 24 24 24 24 24 24 24 24

GFSNGP_925_spd_012.txt.gz
Wind_Speed
3 2 15 18 19 20 20 21 13 15 18 16 9 9 10 12 13 14 13 14 14 14 12 16 15 12 10 8 6 4 2 2 3 5 6 8 9 11 12 13 14 15 17 18
3 3 10 14 20 22 23 21 23 18 18 5 3 9 10 11 12 13 13 14 14 14 16 17 15 13 10 8 5 3 2 2 4 6 7 9 10 12 13 14 15 16 18 20
3 3 5 8 19 20 19 21 22 19 21 10 8 10 11 10 9 9 9 11 14 14 15 16 15 13 11 8 5 3 1 3 4 6 8 10 12 13 14 16 17 19 21 22
3 4 5 1 3 17 22 18 20 18 5 12 11 10 9 6 8 7 5 8 10 13 15 15 14 12 10 7 4 2 1 2 5 7 9 11 13 14 16 17 19 21 22 23
3 8 6 3 5 7 12 15 16 17 8 11 14 12 7 5 5 5 3 4 10 14 16 16 14 11 8 5 3 1 1 4 5 8 11 13 15 17 19 19 20 22 23 23
4 3 4 3 3 6 6 8 12 14 15 17 14 10 6 6 5 7 7 9 13 15 16 14 12 9 7 4 2 1 3 5 7 9 12 15 16 19 19 20 22 22 23 22
8 2 7 2 6 5 6 1 9 12 14 14 9 4 11 8 8 8 10 13 14 14 14 12 10 7 5 3 1 2 4 6 9 10 13 15 17 19 20 22 23 23 23 21
6 5 9 6 5 6 4 8 12 13 12 11 12 9 9 8 9 9 11 13 13 13 12 10 8 6 4 1 1 4 5 8 10 13 14 16 17 19 20 21 22 24 23 21
7 4 2 0 2 2 8 13 9 12 10 12 10 6 8 7 8 8 11 11 10 10 10 8 6 4 2 1 3 5 7 10 12 14 15 16 17 19 20 20 20 22 22 23
4 2 1 1 5 5 10 11 10 12 10 9 9 8 6 5 6 6 9 9 10 10 8 7 6 4 3 3 4 6 9 12 14 15 17 16 17 17 18 19 20 20 23 24
1 1 5 3 5 10 11 12 12 9 7 8 9 7 5 4 5 6 9 9 9 8 8 7 7 5 3 2 5 8 11 13 14 15 17 18 18 18 18 18 18 23 25 26
3 12 2 13 11 12 14 11 10 12 7 5 5 5 3 3 4 7 9 11 10 8 7 8 6 4 2 4 6 8 12 12 14 16 17 18 20 22 17 18 20 23 25 24
3 10 2 14 13 8 12 10 8 9 7 7 5 5 4 3 5 7 9 10 10 10 8 7 4 1 3 5 7 9 11 13 15 16 17 18 19 20 23 22 20 20 21 23
11 12 8 11 7 10 11 10 11 10 8 7 6 5 5 5 7 7 9 10 10 8 6 4 2 3 4 7 7 9 11 13 14 16 17 18 19 21 22 23 24 23 22 24
5 3 7 13 13 11 11 9 8 6 5 4 4 4 6 6 7 8 9 8 7 5 4 4 4 5 5 6 8 11 12 13 15 17 17 18 20 21 21 22 23 25 26 25
8 9 10 12 10 9 8 6 7 5 5 4 6 6 6 5 5 7 8 8 8 6 5 4 5 5 6 7 9 12 13 14 15 16 17 18 19 20 21 21 24 24 24 26
14 6 7 5 8 8 7 6 5 6 5 6 7 7 6 5 6 8 8 8 6 5 5 5 6 6 8 8 10 13 14 15 15 15 17 18 19 20 21 23 23 24 25 26
8 9 10 13 12 10 7 6 6 6 5 6 7 7 8 9 8 10 9 8 6 5 5 5 6 7 8 9 11 14 15 15 15 17 18 19 20 22 21 22 22 23 25 26
8 12 11 10 10 9 7 6 6 5 5 5 6 7 7 8 8 8 9 7 5 4 3 5 7 8 9 11 14 14 14 15 17 18 19 20 20 20 20 21 22 24 24 25
12 13 15 12 10 8 8 6 6 4 3 4 4 6 7 8 8 8 7 5 4 4 6 7 8 10 12 13 13 13 15 17 18 19 19 20 19 20 20 20 22 24 25 24
12 11 11 11 10 8 7 6 5 3 3 5 7 7 7 7 7 6 5 3 1 4 6 9 9 11 12 12 16 16 16 17 18 19 19 19 19 19 20 21 22 23 23 23
8 8 9 10 9 7 5 4 3 3 4 5 5 6 7 6 5 4 3 3 2 5 8 9 10 12 14 17 16 15 16 17 17 17 18 18 18 20 21 22 22 22 22 23
9 8 10 9 8 7 6 4 4 5 5 6 6 6 5 4 4 2 1 1 4 8 10 11 12 15 16 16 14 15 15 16 16 17 18 18 19 20 21 21 22 23 22 22
10 9 9 9 10 7 5 3 5 6 7 8 7 6 6 4 2 1 1 6 9 9 10 11 13 15 16 13 13 14 15 16 17 18 19 19 20 21 22 22 22 22 22 23
10 10 9 10 7 5 7 8 10 10 11 10 9 7 5 3 2 2 5 7 9 9 10 12 14 14 12 12 14 15 16 17 18 20 21 20 21 21 22 22 21 22 22 21
9 9 8 7 7 8 9 8 9 8 9 9 7 4 3 2 3 4 7 7 9 11 11 12 12 13 14 13 15 17 18 19 19 20 21 22 22 21 22 21 20 20 20 21
12 12 11 9 8 8 9 10 10 8 6 6 6 3 2 3 5 5 7 8 9 10 11 12 13 14 15 16 17 18 19 20 21 22 23 22 21 20 20 20 20 19 20 21

GFSNGP_925_spd_015.txt.gz
Wind_Speed
3 3 16 17 19 20 19 18 12 12 15 10 6 8 9 13 15 16 16 16 15 14 12 15 15 14 12 11 9 6 4 3 3 3 4 5 7 9 11 12 14 17 19 21
3 2 6 13 18 20 22 23 21 19 16 6 2 4 9 12 15 16 15 15 14 13 13 15 16 14 13 11 9 6 4 2 1 3 5 6 8 10 13 15 17 19 21 23
3 5 5 9 19 19 19 21 20 21 18 15 6 8 10 10 13 13 13 13 13 13 12 15 15 14 13 11 8 6 3 1 2 4 6 7 10 12 14 17 19 21 23 23
2 5 6 1 2 17 21 19 20 20 15 5 8 7 5 4 8 8 7 8 9 10 13 14 14 14 12 10 8 5 2 1 3 5 7 9 11 14 16 19 20 22 23 24
3 6 9 12 3 5 16 19 19 18 16 6 11 14 8 6 8 8 8 8 10 12 14 15 15 14 12 9 7 4 1 2 4 5 8 10 13 16 18 20 22 23 24 25
1 3 4 5 2 0 6 9 5 16 13 15 15 8 6 9 9 9 10 11 13 15 16 16 15 13 11 8 5 2 0 3 4 6 9 12 15 17 19 20 22 24 26 25
2 4 7 5 5 4 5 3 3 4 11 15 12 4 16 13 10 11 12 15 15 15 15 14 13 11 8 6 4 2 2 3 6 8 11 13 16 18 20 22 23 24 25 24
6 3 7 7 5 4 3 5 6 9 11 12 14 13 13 12 11 10 11 14 14 14 13 12 10 9 7 5 3 1 2 5 8 10 12 15 17 19 20 22 23 23 23 23
7 4 3 2 3 2 5 9 9 12 12 14 14 12 11 10 10 9 12 12 12 13 13 10 8 7 6 4 2 2 5 7 10 12 14 15 18 19 21 21 21 21 21 21
3 3 2 5 2 2 8 9 11 12 13 12 13 11 11 10 9 8 11 11 11 12 11 10 8 6 4 3 1 3 6 9 11 13 15 17 18 19 19 20 20 20 21 22
1 2 3 4 4 8 10 12 13 11 10 11 11 10 9 7 7 8 10 10 11 10 10 9 8 5 3 1 2 5 8 10 12 14 16 19 19 19 20 20 20 22 23 24
3 10 3 8 13 13 13 13 12 13 11 8 9 8 6 5 5 7 9 10 9 9 9 8 6 4 2 2 3 6 8 10 13 15 17 18 19 21 19 21 22 23 24 25
2 10 4 14 13 13 13 11 10 10 10 10 8 7 6 5 5 6 8 9 9 9 8 7 5 4 3 2 4 6 9 12 14 16 17 18 19 20 22 23 21 22 23 24
11 14 11 13 8 12 13 13 13 13 11 10 9 7 6 6 7 6 7 8 8 9 8 6 5 4 2 3 5 7 10 13 15 16 17 18 18 20 20 21 22 22 22 25
8 2 8 12 14 12 12 10 10 9 8 7 6 6 6 5 6 6 7 8 8 8 7 6 4 2 2 4 6 9 12 13 14 16 18 19 19 19 20 21 21 23 24 24
9 10 11 13 12 10 9 8 10 8 7 6 5 5 5 5 5 7 7 8 8 7 6 4 2 1 3 5 8 10 12 14 15 17 18 18 18 19 20 20 21 21 22 23
14 7 10 9 9 12 10 8 7 7 6 5 6 6 6 6 6 7 7 6 5 4 4 2 1 3 5 6 8 11 14 15 16 16 17 18 19 19 20 21 20 21 22 23
5 10 11 15 14 12 10 9 8 8 6 6 7 6 5 5 5 8 8 6 4 2 1 1 3 5 6 7 9 12 15 15 15 16 18 18 19 20 20 20 20 21 23 24
13 15 14 12 11 11 10 8 9 8 7 7 6 5 5 6 5 6 7 5 3 2 2 3 5 7 7 9 11 13 14 15 16 18 18 19 19 19 19 19 20 21 22 23
14 14 17 15 15 14 10 11 10 8 6 5 5 6 5 5 6 6 5 4 2 1 2 3 6 7 8 10 11 13 15 16 17 18 18 19 18 18 19 20 21 21 22 22
14 13 12 11 12 13 11 9 9 7 6 5 5 4 4 6 5 6 5 4 4 1 2 5 5 7 9 11 15 16 16 16 17 18 18 18 18 17 18 19 21 21 22 22
11 11 11 13 12 11 9 8 8 8 7 6 6 6 7 6 6 4 2 1 1 3 5 6 7 9 13 16 16 16 15 16 17 17 17 17 17 18 19 21 21 21 22 23
10 12 12 11 10 11 9 8 7 7 7 6 6 6 5 5 4 3 2 2 2 5 8 8 9 13 15 16 15 15 15 16 16 16 17 17 18 19 20 20 21 22 23 23
12 12 12 12 12 11 7 6 8 8 8 8 8 7 6 5 5 4 3 4 6 9 10 10 11 14 15 13 13 14 15 16 16 16 17 20 19 19 21 21 22 22 22 23
13 12 12 11 8 7 10 9 10 10 10 10 9 8 6 5 5 2 4 6 8 9 9 10 12 12 11 12 14 15 16 17 17 19 19 19 20 22 21 21 21 22 23 21
12 10 10 8 9 9 9 9 8 8 9 9 7 5 5 4 4 4 5 6 8 9 9 10 11 12 13 13 15 16 17 18 18 19 21 22 21 21 21 22 22 21 22 22
13 13 11 10 8 8 8 8 10 8 7 6 7 4 3 3 4 4 5 6 7 9 10 11 12 13 14 15 17 17 18 19 20 21 22 21 21 21 21 22 22 22 22 23

GFSNGP_925_spd_018.txt.gz
Wind_Speed
20 13 17 16 16 15 10 8 1 4 6 9 10 11 9 7 10 13 13 13 12 11 9 16 21 20 19 18 15 13 11 9 6 3 3 4 6 8 11 13 16 19 21 22
9 8 12 11 13 14 11 7 8 9 7 4 6 9 10 10 10 13 13 13 11 11 9 15 21 22 21 19 15 12 10 7 4 2 2 4 7 10 13 15 18 21 23 24
3 3 5 1 12 13 11 10 8 12 8 3 6 8 9 10 10 9 9 11 10 9 9 18 23 24 22 18 15 12 10 6 3 1 3 5 9 11 14 17 20 22 23 25
1 1 1 2 2 8 11 7 10 9 6 2 7 9 12 6 8 9 10 11 9 8 16 22 24 23 20 18 14 11 8 5 2 1 4 7 10 13 16 19 21 24 25 26
1 2 5 1 2 1 5 10 7 7 9 11 10 7 8 10 10 9 9 7 10 19 25 26 24 24 22 17 13 10 7 4 1 3 5 8 12 15 18 21 23 25 25 27
3 1 2 2 2 6 2 2 7 5 8 14 7 5 4 7 9 10 11 17 18 25 25 25 23 21 19 15 11 9 5 2 1 4 7 10 13 17 20 22 23 24 27 26
3 2 5 2 1 5 4 3 7 6 10 11 5 1 12 11 10 11 14 19 24 23 21 22 20 19 18 13 10 7 3 1 2 5 8 11 15 19 21 21 23 25 26 27
3 1 6 4 3 2 2 3 4 8 9 17 15 14 13 12 10 10 9 16 20 20 21 18 16 17 14 12 8 5 2 1 4 7 11 14 15 19 19 21 23 25 25 24
7 6 2 4 3 0 2 4 6 10 11 16 14 13 11 10 10 8 11 15 19 19 20 15 13 12 13 10 6 3 1 3 7 10 14 14 17 18 21 21 22 22 20 21
4 3 4 5 3 1 5 8 8 9 11 12 14 11 11 9 8 7 11 13 20 20 17 15 12 11 12 8 5 2 3 6 10 12 13 16 19 19 21 23 22 20 19 21
2 3 3 2 4 7 10 10 10 9 10 11 12 9 9 8 7 7 12 13 17 16 17 15 12 10 8 6 3 4 6 8 10 11 15 18 20 20 22 23 21 24 23 24
4 8 4 5 8 10 13 10 9 14 10 9 9 9 8 7 9 13 14 14 12 15 19 16 13 10 6 4 3 5 6 8 11 13 18 20 21 25 20 19 22 23 24 24
4 5 7 12 10 8 11 11 9 11 10 12 8 10 10 6 10 15 15 13 15 15 16 13 11 8 4 2 3 4 6 10 14 17 18 19 23 22 22 25 20 21 22 25
10 15 9 6 6 10 12 13 15 13 14 13 13 14 16 11 13 14 13 13 16 16 13 11 9 7 3 2 3 5 8 11 13 16 18 22 23 22 22 20 23 25 24 25
5 4 8 13 14 11 10 10 11 9 8 8 15 13 14 9 9 13 14 15 14 13 11 9 8 6 0 2 4 8 11 14 15 18 20 19 22 22 21 20 21 22 26 25
8 9 11 12 11 9 9 8 12 8 8 7 7 11 13 15 16 14 12 12 13 11 9 8 6 3 2 4 7 10 12 14 16 18 18 19 20 20 20 19 21 22 21 24
13 8 9 8 10 8 7 7 8 7 7 8 11 14 14 15 14 13 11 9 12 11 8 6 5 1 4 7 8 11 13 17 16 18 17 19 22 20 20 21 20 21 23 23
6 8 7 14 14 11 10 9 8 11 8 15 15 14 13 11 8 11 10 9 9 7 5 4 1 2 6 6 9 12 15 16 17 17 19 20 20 20 21 20 20 21 23 24
12 15 13 11 11 11 10 9 13 17 17 16 14 11 11 10 11 12 10 8 6 6 7 2 3 6 8 9 10 14 15 17 18 17 19 20 22 21 21 20 20 21 22 23
15 14 18 15 19 17 11 16 19 17 14 14 14 12 11 11 11 11 9 9 8 7 3 3 6 7 8 10 11 14 17 17 17 18 20 20 20 20 19 20 21 21 23 23
15 15 15 14 13 18 19 19 18 15 13 12 12 11 12 10 10 10 9 8 5 4 4 6 7 6 9 12 14 16 16 17 17 19 20 20 21 19 19 20 21 22 23 22
13 13 12 16 15 16 18 18 18 16 15 15 14 14 14 12 12 12 12 9 5 5 6 5 5 7 11 14 16 15 16 17 19 19 20 20 20 22 22 22 21 22 22 23
11 15 16 15 15 17 19 17 16 15 15 13 13 13 14 12 9 7 5 5 2 4 6 6 7 10 13 16 16 15 17 18 19 20 20 22 24 23 20 21 24 23 23 23
16 16 18 22 23 19 10 15 17 17 18 18 16 14 12 13 13 9 7 4 4 7 7 8 10 12 13 15 15 17 18 19 21 22 22 21 22 23 21 23 23 22 23 25
18 20 20 19 13 10 19 20 21 19 19 18 16 13 11 9 6 5 4 4 6 8 11 11 11 12 15 16 17 18 20 21 21 21 22 23 22 24 23 22 22 25 23 24
16 13 15 16 16 18 18 16 15 16 17 16 13 11 10 9 7 5 5 7 9 9 12 13 13 14 16 17 17 20 20 21 22 23 21 23 23 23 23 23 23 23 24 25
19 19 18 17 17 17 17 18 18 15 13 13 13 8 7 6 6 6 7 8 9 10 12 13 15 15 16 17 20 20 22 23 21 21 22 24 23 23 23 24 25 26 25 26

GFSNGP_925_spd_021.txt.gz
Wind_Speed
13 16 8 8 12 19 15 6 4 4 5 8 10 10 10 13 14 15 16 16 17 16 13 17 22 26 27 25 22 20 17 13 9 6 3 2 3 6 9 11 14 17 20 21
10 7 14 9 14 9 6 4 2 3 3 2 4 7 7 14 17 17 15 15 14 15 14 17 22 24 28 26 21 18 15 12 8 5 2 2 5 7 10 14 16 19 21 22
3 5 7 2 10 5 4 2 5 2 5 5 6 8 9 10 15 15 14 14 16 16 15 20 24 30 29 26 22 17 14 10 7 4 2 3 6 9 12 15 18 20 23 24
3 3 1 5 3 8 13 5 7 3 3 3 8 5 6 2 11 14 15 15 14 12 17 23 28 30 30 25 21 17 13 9 5 2 1 4 8 10 13 17 19 21 24 25
2 3 5 4 4 2 7 7 3 10 6 10 8 6 8 8 5 6 8 9 11 19 25 28 30 32 28 23 19 15 11 8 4 0 3 6 9 12 15 18 21 23 25 26
2 1 2 3 4 2 0 2 4 1 8 14 7 5 3 4 9 13 12 17 21 25 28 32 29 31 27 22 17 14 10 6 2 1 4 8 11 14 16 19 22 24 25 23
2 1 7 4 4 4 3 3 5 3 8 8 5 2 9 8 11 12 17 21 25 24 24 28 29 27 23 19 15 11 7 4 1 2 6 9 13 14 19 21 23 24 24 25
3 1 6 2 2 2 3 3 4 6 9 15 15 15 12 11 11 13 13 18 23 23 23 25 23 23 20 16 13 9 6 3 1 4 7 9 12 18 21 21 21 25 27 26
7 6 1 3 3 2 3 4 3 9 8 17 15 13 12 10 11 10 14 17 20 22 22 19 21 19 19 14 11 7 5 2 2 5 8 10 16 18 19 20 23 25 24 21
3 4 3 3 2 3 4 7 8 10 11 13 16 12 12 11 9 9 13 15 21 23 20 19 17 15 15 12 9 6 4 1 3 7 10 14 16 17 18 22 24 22 19 20
1 1 3 1 2 6 9 10 12 9 11 13 16 11 12 10 8 8 13 17 21 19 19 19 18 16 12 10 7 5 2 2 6 10 12 15 16 17 19 18 19 22 22 22
5 8 4 3 8 9 12 10 11 15 10 7 10 11 10 9 9 13 15 19 19 19 20 18 16 13 10 8 5 3 3 6 9 11 14 14 19 23 20 16 19 19 20 22
4 5 4 11 9 4 12 9 10 12 11 12 8 12 10 9 10 16 17 17 20 21 19 18 15 12 9 6 3 4 5 8 10 11 13 16 21 22 19 21 17 18 20 22
11 14 8 3 5 9 13 12 15 14 14 13 14 16 16 13 17 16 15 18 20 20 18 16 13 11 7 3 2 4 6 8 10 13 15 18 18 21 22 19 21 22 21 23
6 5 8 14 14 12 12 14 14 11 10 9 14 14 16 11 11 15 19 20 20 18 15 14 12 9 4 2 4 6 8 10 13 14 17 16 19 21 21 19 18 20 24 22
8 11 12 14 13 11 12 10 14 10 9 8 9 13 17 21 21 19 18 19 19 15 13 12 10 7 2 4 6 7 9 12 13 15 17 18 20 21 18 17 18 19 21 22
15 7 10 8 12 11 9 8 11 10 9 9 12 21 22 21 19 17 14 11 13 13 11 10 8 4 4 4 5 8 12 15 14 16 17 19 20 20 18 18 18 19 21 22
8 8 7 15 15 12 10 9 10 13 10 17 21 21 18 15 10 15 16 16 15 13 10 8 5 3 3 4 7 10 13 15 16 17 17 19 19 18 19 18 19 19 21 22
9 14 13 11 11 13 12 11 12 18 21 22 20 14 15 16 17 17 15 13 12 12 8 5 3 2 4 5 8 11 14 16 16 16 17 19 19 20 18 17 19 20 21 22
13 13 19 15 19 19 12 17 21 19 20 22 22 19 16 17 18 16 14 14 10 9 6 2 2 4 6 9 10 14 15 15 15 16 19 17 19 17 18 19 20 21 21 22
15 15 17 16 13 18 19 21 21 17 19 20 21 18 18 16 16 18 17 12 8 6 4 3 4 6 10 11 13 15 14 14 16 17 19 19 19 18 19 20 21 20 21 21
14 15 15 18 17 16 21 23 25 23 23 22 22 22 22 19 19 16 10 11 8 4 4 4 5 8 10 11 14 13 14 15 17 18 20 22 22 22 22 20 21 23 22 23
13 17 20 18 17 19 24 23 23 24 23 21 21 19 18 15 14 13 7 6 5 5 5 6 7 9 9 12 13 14 15 17 19 21 22 23 21 21 21 22 22 22 23 22
18 19 20 22 24 21 13 18 24 24 24 23 21 19 21 20 16 12 11 7 6 6 7 7 8 9 10 13 14 15 17 19 20 20 21 20 25 23 22 22 22 21 23 23
19 20 21 19 15 12 21 25 26 24 24 22 19 16 12 7 7 10 7 7 7 7 8 8 9 10 13 14 15 17 19 20 20 20 22 21 20 21 21 21 21 22 23 26
18 13 15 17 19 19 20 19 18 17 19 17 17 15 14 13 12 9 8 7 7 7 8 10 12 13 14 16 16 19 19 21 22 22 19 22 23 23 23 23 24 25 25 26
20 21 20 18 19 22 22 22 19 16 18 18 18 12 12 11 10 8 7 7 8 8 10 11 13 13 15 16 18 19 21 22 19 18 20 21 22 22 23 24 25 26 26 26

GFSNGP_925_spd_024.txt.gz
Wind_Speed
17 23 17 15 19 22 15 12 9 7 8 4 9 12 13 13 13 15 15 15 15 14 12 16 20 25 28 28 27 24 21 17 14 10 7 4 2 2 4 7 10 13 16 18
13 21 18 14 17 21 18 15 16 22 6 4 4 7 8 13 16 16 16 16 15 14 14 16 22 24 28 29 26 23 20 16 12 9 6 3 1 3 7 10 13 15 17 19
6 9 11 8 14 21 15 16 21 9 4 3 4 7 7 11 15 17 17 17 16 16 15 20 22 30 30 30 26 22 18 14 11 7 4 1 2 5 8 12 15 17 18 20
2 1 2 3 3 16 20 10 6 4 5 2 4 5 7 2 9 13 15 15 14 12 16 21 26 28 32 29 25 21 17 13 9 6 3 2 4 7 10 14 16 18 19 20
2 3 5 4 5 1 4 3 1 4 4 5 7 4 5 5 2 5 8 10 13 20 23 27 30 33 32 27 23 20 16 12 8 4 1 2 6 9 12 15 17 18 20 20
4 2 2 3 4 2 1 2 2 1 8 9 6 4 3 3 3 10 10 16 20 24 27 29 28 34 31 26 22 18 14 10 6 3 1 4 8 11 13 15 17 18 21 21
2 2 7 5 3 1 2 4 2 2 6 7 5 1 8 7 10 10 14 20 24 24 24 27 33 32 26 23 19 15 12 8 5 2 3 6 9 11 14 16 18 20 22 22
2 1 5 2 4 1 3 3 3 2 3 10 12 12 11 11 12 13 15 19 22 24 23 28 29 27 25 20 16 13 10 7 4 2 4 6 9 12 14 15 19 22 23 24
6 5 2 2 2 1 2 3 3 6 9 17 15 11 11 10 11 11 14 18 21 26 26 24 23 24 23 18 15 11 9 6 3 3 4 7 10 13 16 19 20 21 21 19
2 2 1 1 2 3 3 5 7 8 11 12 17 11 11 11 10 10 14 17 22 24 20 20 19 19 19 16 12 10 7 4 3 4 6 9 10 13 15 17 18 20 17 17
4 3 1 3 1 6 8 10 11 9 9 13 16 11 12 10 9 9 15 18 22 21 21 20 20 19 15 12 10 9 6 3 3 5 8 10 12 14 15 15 16 19 20 20
5 7 4 2 7 8 11 10 9 14 11 8 10 12 10 9 11 15 15 20 20 22 23 21 19 16 13 10 7 6 4 3 4 7 9 11 14 18 18 13 16 16 17 18
2 5 4 9 7 4 11 9 8 10 12 13 8 11 9 9 10 18 20 21 21 22 22 20 17 15 11 8 6 4 3 3 6 9 11 14 15 16 17 21 16 16 17 19
9 10 8 1 5 8 14 13 14 12 13 12 14 15 15 13 16 17 17 20 21 22 20 18 16 13 9 6 4 3 3 5 8 10 12 13 14 16 18 17 16 18 17 18
6 4 8 13 13 11 13 14 14 11 10 10 14 14 16 10 10 15 20 22 22 20 18 16 15 11 7 4 3 3 5 7 10 11 12 12 14 17 18 18 17 18 20 19
7 9 11 14 13 11 13 10 14 9 9 8 8 13 17 21 21 21 21 22 22 17 16 15 13 9 5 3 3 4 7 10 10 11 13 15 16 18 17 16 16 17 18 20
15 6 9 9 12 10 10 8 11 10 10 10 12 20 23 22 21 20 17 14 17 16 14 13 10 6 3 2 4 7 9 10 11 13 13 14 16 15 16 15 15 17 18 20
7 8 7 14 16 13 11 9 10 12 11 16 20 22 18 15 11 16 18 20 19 16 12 9 6 4 3 4 6 7 9 12 12 13 13 17 16 18 17 15 16 17 19 21
7 13 13 13 12 12 12 11 12 17 18 21 20 15 18 20 21 21 20 19 16 14 10 7 4 3 3 4 7 9 11 12 12 13 15 14 18 18 16 16 17 18 20 20
11 11 17 13 20 20 13 16 20 18 21 23 22 19 16 19 21 19 17 13 9 10 8 4 3 3 5 6 6 11 10 10 12 14 15 15 17 15 16 17 19 19 18 19
13 15 16 16 13 19 19 20 21 17 20 23 20 17 19 20 19 21 19 12 9 7 5 3 3 4 6 7 10 10 11 12 14 16 17 18 19 18 17 19 18 19 20 19
13 14 15 17 16 16 20 23 24 24 23 23 24 24 23 20 18 15 11 14 9 5 4 3 4 5 6 8 10 11 12 13 16 17 19 19 20 20 21 20 20 20 20 22
12 16 19 18 17 18 23 23 23 25 24 24 24 22 20 19 19 16 8 8 7 5 5 5 4 5 5 9 11 12 13 16 17 18 19 19 20 22 22 21 20 21 21 21
19 19 20 22 25 22 13 17 24 24 24 22 22 22 23 21 16 13 14 9 7 5 5 5 5 6 8 11 12 13 15 17 19 18 20 18 19 21 19 21 22 23 23 23
20 21 22 20 15 12 20 25 26 25 25 23 19 17 16 10 8 13 10 9 6 4 4 5 6 7 10 12 13 15 16 18 18 18 20 19 22 23 22 22 23 22 23 25
20 15 15 16 19 20 20 19 18 17 20 19 19 18 17 16 15 12 9 7 5 4 5 6 9 10 12 13 14 16 17 19 20 19 17 20 21 20 21 22 23 24 25 26
19 20 20 18 17 19 20 21 20 16 18 20 20 15 15 13 11 9 7 5 4 5 7 9 11 12 13 14 16 17 19 19 17 17 18 19 20 21 21 22 23 24 25 25

GFSNGP_925_spd_027.txt.gz
Wind_Speed
17 22 16 8 9 20 20 18 15 13 15 22 17 18 6 6 14 16 14 14 13 13 11 15 19 23 27 29 29 27 24 21 17 14 11 9 6 4 4 5 8 9 11 12
11 18 23 16 14 18 23 21 21 14 18 19 16 7 8 12 15 15 14 14 13 13 13 14 21 23 27 30 29 26 23 19 16 13 10 7 5 3 4 6 8 10 11 14
8 7 8 5 17 16 19 17 13 11 16 15 12 8 13 14 14 16 16 15 15 15 14 19 22 28 29 32 29 25 22 18 15 12 10 6 4 3 4 6 10 12 14 16
5 3 2 4 9 13 17 11 11 14 19 16 14 2 5 3 8 11 13 13 12 11 16 21 26 28 32 31 28 24 20 17 14 11 8 5 3 3 5 8 12 13 15 16
4 3 3 1 6 7 10 12 22 23 18 8 6 3 5 4 4 6 10 11 12 20 22 27 29 32 33 29 26 23 19 16 12 9 7 4 2 4 7 10 12 13 15 18
4 4 3 1 1 2 10 3 8 20 16 8 6 3 3 2 4 8 11 16 20 24 26 28 28 34 32 28 25 21 18 14 10 7 6 3 4 5 8 10 13 14 17 16
3 3 7 4 6 2 4 3 3 5 7 5 4 1 5 6 9 7 12 19 25 23 23 26 31 33 28 26 21 18 16 12 10 7 4 4 4 6 9 11 14 16 17 18
2 2 4 6 6 4 2 3 3 1 3 10 10 8 9 10 11 12 14 17 21 23 22 26 31 32 26 23 19 17 15 12 9 6 4 3 6 8 10 13 15 16 18 21
6 5 3 2 1 2 1 2 3 3 7 15 13 10 10 11 12 11 12 18 20 25 25 26 27 28 26 21 19 16 13 11 8 5 3 5 8 11 14 14 15 17 19 18
2 2 3 2 1 3 5 4 6 7 7 10 17 12 12 12 11 11 14 18 23 25 22 22 21 22 24 20 16 14 12 9 6 4 4 6 7 10 12 14 16 19 17 17
4 5 3 2 1 5 7 8 12 9 8 12 16 11 11 10 11 10 16 18 21 22 21 22 23 22 19 16 14 13 10 7 4 4 6 8 9 10 12 13 14 17 19 20
5 3 2 1 6 6 8 8 9 13 11 9 11 14 12 10 11 14 16 20 21 23 26 24 23 20 16 13 11 10 8 5 5 6 8 9 11 14 13 10 14 14 16 17
1 4 4 6 6 3 9 7 9 9 11 14 9 12 11 10 11 18 20 22 22 24 25 23 21 18 14 11 9 8 7 5 5 6 7 10 10 12 17 23 19 18 16 18
6 8 6 0 4 7 12 12 13 13 13 12 14 15 17 14 17 17 17 23 25 25 23 21 19 16 12 9 7 6 5 3 5 6 8 9 11 14 17 17 16 19 21 18
5 3 5 11 12 10 10 13 13 11 10 10 13 14 16 10 11 16 21 23 24 23 20 19 17 14 9 7 6 5 4 5 6 8 10 10 12 16 16 18 17 19 20 18
7 8 10 13 12 10 11 10 15 9 9 7 8 13 17 21 22 22 22 24 24 17 18 17 15 11 7 5 4 3 5 7 8 9 10 12 15 16 17 17 16 17 17 18
13 5 8 8 11 10 9 8 11 10 9 10 13 20 23 22 22 21 17 16 19 18 16 14 13 8 5 4 4 5 6 8 8 11 12 14 15 14 18 16 16 16 18 19
4 7 6 14 15 14 11 9 10 11 11 17 20 22 19 16 12 18 21 21 21 18 14 11 9 7 5 5 5 6 9 10 11 11 12 15 14 18 18 17 17 17 20 21
4 12 13 13 12 12 12 11 12 18 20 21 21 16 19 21 21 22 22 21 19 17 11 9 6 5 5 5 5 9 10 10 10 12 14 13 17 18 16 16 17 19 20 20
9 10 15 12 18 19 12 17 21 20 20 25 24 21 17 19 23 22 19 15 10 11 9 7 5 5 4 5 8 9 8 9 11 13 14 15 17 16 18 17 19 19 19 20
11 13 14 15 13 18 19 21 23 19 21 24 22 18 19 21 20 21 19 13 10 8 7 5 4 5 5 6 7 8 9 10 12 13 15 16 18 18 16 19 19 19 19 19
11 12 14 16 15 16 19 22 24 24 23 24 24 26 24 20 18 15 11 14 11 6 6 5 5 4 3 6 7 8 9 11 13 14 15 17 18 20 21 21 21 19 20 22
10 14 17 17 16 18 23 24 24 25 24 24 24 23 20 20 19 17 9 9 8 6 6 6 5 4 4 7 8 9 11 13 15 16 16 18 18 19 20 21 20 23 23 24
16 18 19 22 25 23 13 17 24 24 25 23 22 22 24 21 13 10 13 11 8 7 6 5 4 4 7 8 10 11 13 14 17 16 18 15 17 20 21 21 22 23 23 25
19 20 22 21 16 13 20 25 27 26 25 24 21 17 16 15 9 15 11 9 7 5 4 4 4 6 8 10 10 13 14 17 17 17 17 17 20 20 21 21 22 21 23 24
19 15 16 17 19 21 21 21 19 18 22 20 17 14 13 16 17 13 10 7 5 4 4 5 7 8 10 11 13 14 17 18 18 17 16 17 19 20 21 22 23 24 24 25
20 22 21 19 18 19 21 21 21 17 19 21 21 17 17 15 12 10 8 6 4 4 5 6 8 10 11 13 14 16 19 18 16 16 16 17 18 20 22 23 24 24 23 25

GFSNGP_925_spd_030.txt.gz
Wind_Speed
21 23 18 12 12 20 19 23 12 11 18 25 18 11 6 6 7 9 11 11 10 11 12 15 20 23 27 32 33 32 30 27 24 21 18 16 13 11 8 5 4 5 6 8
17 19 18 24 24 18 21 21 21 19 22 13 9 11 12 7 10 12 12 11 11 12 12 13 20 22 27 31 32 30 28 25 23 20 17 14 12 9 7 5 4 6 8 11
9 6 12 5 10 18 14 11 17 15 23 10 13 14 12 9 12 13 13 15 13 13 13 18 22 28 28 33 31 28 26 24 21 19 16 13 10 8 5 4 5 8 10 12
6 9 4 4 4 5 13 9 16 15 16 11 11 12 8 6 11 10 12 13 12 11 15 20 26 28 33 32 29 27 25 22 19 17 14 11 8 6 4 4 8 9 11 13
4 6 6 4 1 3 5 6 12 18 14 12 3 4 3 3 4 8 11 11 11 19 22 26 29 33 33 30 28 25 23 20 17 15 13 10 7 4 4 6 8 10 13 15
3 4 4 5 5 2 3 6 11 14 14 4 4 5 1 1 4 10 12 16 19 23 25 27 28 33 32 28 26 24 21 19 15 13 11 8 5 4 5 7 9 12 14 14
4 3 7 5 8 4 4 4 3 10 11 6 4 2 6 4 9 7 11 18 23 22 21 25 31 32 27 28 24 22 20 18 15 12 9 7 5 4 6 8 11 12 14 17
2 2 4 4 4 2 3 3 3 2 2 5 7 7 3 7 9 11 13 15 20 22 21 25 30 33 27 25 23 22 20 17 14 10 8 5 4 5 7 10 12 14 17 20
6 5 4 3 3 2 2 1 3 2 4 10 11 5 6 9 10 10 11 16 20 24 25 25 27 32 29 25 24 22 19 15 12 10 6 4 5 7 9 11 13 15 18 20
3 3 4 4 1 3 4 3 3 7 8 8 13 9 11 10 10 10 12 16 22 24 22 21 25 27 29 26 22 20 17 14 11 7 5 4 5 8 10 13 15 17 18 17
4 7 5 4 2 4 6 7 10 10 9 11 13 11 10 10 11 10 15 18 21 23 23 24 29 28 24 22 19 18 15 12 8 5 4 5 7 9 12 13 12 17 18 19
4 4 2 0 5 6 6 6 8 13 12 10 10 14 12 11 11 15 17 21 23 24 28 28 29 25 20 17 14 15 13 9 6 4 5 8 11 13 11 11 14 13 15 16
2 2 3 6 5 4 8 7 8 11 11 15 9 12 11 11 12 21 21 22 22 24 30 29 26 22 17 15 13 12 10 7 5 6 8 10 10 12 17 22 17 14 14 17
4 6 5 2 5 7 12 12 12 12 13 12 13 15 18 14 18 18 18 24 30 30 28 26 24 20 15 13 11 10 9 7 7 7 8 9 10 11 14 15 16 22 23 19
3 2 3 10 11 10 10 13 13 11 11 11 14 15 17 12 13 18 26 29 29 28 25 23 21 17 12 10 10 9 7 6 6 7 8 8 10 13 13 17 18 19 22 20
5 7 8 11 10 10 11 10 14 10 10 10 10 14 18 23 23 25 26 27 25 18 21 20 18 14 10 8 7 6 5 5 6 8 9 10 13 13 16 18 17 16 18 20
10 5 6 6 10 10 8 8 11 10 10 11 13 20 24 23 23 22 20 20 23 21 18 16 15 11 8 6 5 5 6 7 7 8 10 12 13 13 18 16 15 16 18 20
2 5 6 12 14 13 10 9 11 12 12 19 21 21 20 18 14 19 24 24 23 20 15 13 11 9 7 5 5 6 7 7 8 9 12 14 13 17 17 16 16 17 20 21
3 8 11 12 11 12 12 11 13 20 21 21 22 16 20 22 23 24 24 23 21 18 12 10 8 7 6 5 5 6 7 8 9 11 13 12 17 17 17 17 16 18 19 19
7 8 12 11 16 18 13 18 21 20 19 27 26 21 19 20 24 24 22 18 12 13 11 9 7 5 4 4 6 7 8 9 11 12 13 14 18 17 19 16 17 18 18 18
9 10 13 13 13 18 19 20 23 21 20 24 23 19 20 23 24 24 21 15 12 10 9 7 5 4 4 6 7 8 9 10 11 13 15 16 18 18 18 20 20 18 18 19
9 11 13 15 15 17 19 22 24 25 25 25 26 26 26 22 21 17 13 18 13 9 8 7 6 5 4 6 8 8 9 11 13 15 16 16 16 18 20 21 22 21 20 24
10 13 17 17 16 18 21 23 23 26 24 25 26 24 20 21 21 18 11 11 11 9 8 7 5 3 5 7 9 9 11 13 15 15 15 15 15 17 19 21 21 22 23 23
15 17 19 23 26 25 14 16 25 26 27 26 26 25 28 23 15 11 17 14 11 9 7 5 4 4 7 9 9 11 12 13 16 15 16 14 15 18 20 21 23 23 22 23
18 19 22 20 15 12 22 25 27 26 27 26 24 20 19 16 12 18 15 12 9 7 5 4 4 6 8 9 10 12 13 16 16 15 16 16 18 19 20 21 23 22 23 23
18 15 16 17 19 22 23 22 20 19 23 21 20 17 15 17 21 16 13 10 7 5 4 4 6 8 9 10 11 12 15 17 17 16 16 17 18 19 20 22 24 24 24 23
19 22 22 20 19 20 22 23 23 18 20 22 22 19 20 19 16 13 10 8 6 4 4 5 7 8 10 11 12 15 17 17 16 17 17 18 19 19 21 23 24 24 23 24

GFSNGP_925_spd_033.txt.gz
Wind_Speed
22 24 24 26 27 21 22 28 14 16 19 27 16 16 9 6 5 5 7 8 9 11 12 16 21 23 26 30 35 37 36 34 31 29 26 24 21 18 15 11 8 5 3 4
20 22 22 21 25 21 20 23 19 19 22 20 16 7 5 10 8 8 9 9 11 12 14 15 22 24 27 29 32 36 34 33 30 28 25 22 19 16 12 9 6 4 3 5
11 11 20 6 8 7 7 13 15 14 17 8 11 7 10 14 8 10 11 12 13 14 13 17 22 27 27 30 35 34 33 30 28 26 23 19 16 13 10 7 4 3 5 7
7 9 4 5 4 8 3 12 15 13 13 8 8 9 11 8 8 9 11 12 13 12 16 20 24 25 32 33 32 32 30 28 26 23 21 17 14 11 8 5 3 4 6 9
4 6 10 2 3 5 2 3 15 18 14 10 4 5 2 5 3 8 10 11 12 18 21 24 26 30 32 29 30 30 28 26 23 21 19 16 12 9 6 4 4 6 8 10
3 4 4 4 7 4 4 8 2 10 9 3 2 3 3 7 3 10 12 17 20 23 23 24 24 31 30 25 26 25 26 24 21 18 16 13 10 7 4 4 5 8 9 10
6 4 7 4 9 1 5 3 4 2 4 3 1 2 2 5 10 8 12 20 23 23 22 23 28 31 25 24 21 26 26 23 20 16 14 11 8 5 3 4 7 9 12 14
2 2 6 2 4 4 3 5 3 2 2 4 7 8 8 9 9 11 13 17 21 22 21 22 28 31 24 24 27 27 25 22 18 15 12 9 6 4 4 7 9 11 13 17
6 5 4 3 4 2 2 4 3 2 0 4 7 6 9 9 10 9 11 16 19 24 24 22 24 31 29 28 29 27 23 20 17 13 9 6 4 4 6 8 10 11 12 13
2 4 5 4 1 3 4 3 4 5 6 5 9 9 12 11 9 9 13 16 22 25 22 21 26 29 33 30 27 24 22 18 14 10 7 5 4 5 7 9 10 11 13 15
5 7 6 3 3 3 4 5 9 10 9 11 13 11 10 10 10 10 16 19 21 23 23 23 31 32 29 26 23 22 19 15 11 8 5 4 5 6 8 10 10 14 14 15
4 2 2 1 4 4 3 5 8 13 12 11 12 13 12 11 12 16 19 22 24 24 27 26 31 28 23 20 19 20 17 12 8 6 4 5 7 9 9 9 11 11 13 14
1 2 2 5 6 3 6 7 9 11 11 15 12 12 13 13 18 24 23 24 24 24 28 31 29 25 20 18 16 15 15 10 7 5 6 7 10 12 14 19 16 16 13 16
3 7 3 3 4 7 10 11 14 14 14 14 16 17 20 18 21 21 21 23 28 31 30 29 27 22 17 16 15 14 11 8 7 7 8 8 9 10 11 11 15 20 23 19
5 1 1 9 10 10 9 13 14 12 11 12 16 17 19 15 17 20 24 29 31 31 28 27 25 19 15 13 13 12 10 8 8 8 8 8 10 11 11 14 13 15 18 18
5 7 8 10 8 10 11 12 14 11 11 11 11 16 19 23 23 24 27 29 26 19 24 24 22 17 13 11 11 10 9 8 7 7 8 10 11 11 13 12 14 15 17 18
9 6 6 8 11 11 8 8 12 11 11 12 15 21 24 24 23 22 22 24 28 25 22 21 19 15 12 10 9 9 8 6 6 7 10 11 10 11 13 13 13 15 16 17
2 4 6 11 13 13 10 10 11 14 14 21 22 22 22 20 16 19 26 28 26 23 19 17 15 13 11 9 8 7 6 6 8 9 10 10 10 13 13 12 13 15 17 18
2 8 11 13 11 12 12 12 14 20 22 22 23 17 19 21 23 25 28 26 23 20 15 14 12 11 10 8 6 6 6 7 8 8 10 10 14 14 12 12 14 15 16 17
7 7 13 12 18 20 14 19 23 21 22 26 26 23 20 21 26 26 24 18 14 18 15 12 10 9 7 6 6 6 6 7 8 10 12 12 14 12 14 13 14 15 16 16
9 10 13 13 13 19 21 24 25 22 20 25 26 21 22 25 26 26 22 15 14 13 12 9 7 8 6 5 5 5 6 8 10 12 13 13 15 14 14 15 16 14 15 16
9 11 12 16 15 16 19 22 25 27 25 23 26 28 27 23 23 18 15 20 17 12 10 8 8 6 4 4 5 6 8 9 10 13 14 14 15 15 17 18 19 18 18 22
7 12 16 16 16 18 22 20 23 25 26 24 25 24 22 22 22 19 12 14 14 11 10 9 7 4 3 5 6 7 9 11 13 16 15 15 15 16 17 19 18 20 23 23
13 15 17 23 25 23 14 17 24 25 27 28 29 28 30 25 16 10 19 16 14 11 9 7 5 3 5 7 8 10 11 13 16 16 16 15 16 16 18 19 21 22 22 22
14 18 21 20 15 12 22 26 26 27 28 26 25 23 22 20 15 22 19 16 13 10 9 6 3 4 6 8 9 11 12 16 17 16 17 16 17 18 18 19 21 22 22 23
15 13 14 16 19 22 23 23 20 20 23 22 23 20 17 19 25 20 17 14 11 8 5 3 4 6 7 9 11 12 14 17 17 16 16 17 18 18 19 20 22 23 23 23
17 20 20 18 18 20 21 23 25 20 21 23 24 21 24 23 20 17 14 12 9 6 4 4 5 7 9 11 12 14 17 17 16 17 17 17 18 18 19 20 22 23 22 22

GFSNGP_925_spd_036.txt.gz
Wind_Speed
20 23 24 25 27 27 20 26 19 32 19 23 18 18 19 14 12 11 7 3 5 7 10 13 20 22 25 26 27 30 31 29 26 26 23 21 19 17 15 12 10 8 6 3
15 23 22 23 23 22 20 18 20 26 26 24 22 15 15 16 14 10 5 5 7 9 12 13 20 22 26 27 28 30 30 27 26 24 22 20 18 15 13 11 9 6 4 1
6 12 22 7 6 12 15 8 7 10 15 10 12 11 9 10 7 9 4 8 10 12 12 16 20 26 27 28 29 29 27 24 23 23 21 18 16 14 11 9 7 5 2 1
6 11 4 5 7 11 10 9 8 11 11 11 11 11 10 10 9 5 9 10 12 12 13 19 24 26 30 29 27 26 24 23 21 21 19 17 14 12 9 7 5 3 1 3
3 5 13 8 8 6 4 6 7 10 12 10 12 12 4 10 5 7 10 12 13 18 20 23 25 28 29 26 25 24 23 21 20 19 18 15 12 10 7 5 3 1 2 4
2 3 4 5 11 4 4 2 4 7 11 10 9 4 6 10 10 10 12 16 19 21 23 25 24 27 27 25 24 22 21 20 18 16 15 13 11 8 6 4 1 1 3 5
7 4 9 5 13 1 3 4 5 3 5 6 4 4 4 6 10 10 12 20 21 21 22 23 24 25 24 23 21 21 21 19 16 14 13 11 9 6 5 2 1 3 5 7
4 5 5 3 8 4 6 5 7 6 1 2 7 6 9 10 11 12 13 18 20 21 21 21 23 26 24 22 21 22 21 18 16 13 11 9 7 5 3 2 3 5 7 9
5 4 2 3 5 5 5 7 4 5 3 11 8 5 9 11 11 12 12 16 18 23 23 20 19 22 25 21 24 22 20 17 14 12 9 7 5 3 1 3 5 6 9 11
4 2 4 2 2 3 3 4 3 1 4 8 11 11 12 12 11 11 14 17 21 23 23 21 20 24 28 25 25 22 18 15 12 10 8 5 4 2 2 4 6 8 10 12
6 14 6 4 3 3 5 5 6 8 8 12 14 12 13 13 12 12 17 19 20 22 23 23 23 25 24 23 19 18 15 13 10 7 5 4 2 1 3 4 5 10 11 13
3 3 4 3 4 3 4 6 6 11 12 11 13 14 14 13 14 17 18 21 23 23 25 23 23 21 18 16 16 16 14 10 7 5 3 2 3 4 5 4 6 7 9 10
4 2 3 5 6 6 7 7 9 11 13 15 13 14 14 15 18 22 22 23 24 24 24 24 22 20 16 14 14 13 13 9 6 5 3 3 4 5 8 8 8 9 10 13
4 6 3 4 3 7 11 12 14 16 15 15 17 19 21 19 22 22 21 23 24 24 23 22 21 18 14 14 14 13 11 9 6 4 2 2 4 6 8 11 14 15 13 14
7 2 2 10 11 10 11 12 13 14 12 14 17 18 20 17 18 21 22 22 23 23 21 20 20 16 13 13 13 10 8 6 4 3 2 3 5 7 8 10 12 14 15 15
6 6 9 10 12 12 13 13 15 13 12 13 14 18 20 23 23 22 20 21 22 19 18 18 17 14 13 11 10 8 7 6 4 3 4 5 6 7 9 11 13 14 15 16
7 5 6 6 10 11 11 10 11 15 13 13 18 22 23 24 23 20 17 17 19 19 16 16 16 14 12 9 7 6 5 5 5 5 4 5 6 8 10 11 12 14 15 15
1 4 8 12 14 14 11 12 12 17 15 21 22 22 22 20 17 19 19 20 20 18 14 14 14 13 10 8 6 5 5 4 4 4 5 6 7 8 9 11 12 14 16 17
2 7 11 13 13 14 13 14 17 21 23 23 23 19 19 20 20 20 19 19 18 17 12 12 12 10 8 7 6 5 4 4 4 4 5 6 8 8 9 11 13 13 15 16
6 8 13 14 18 19 15 19 23 23 22 22 22 21 20 19 20 19 17 15 11 13 14 13 10 9 7 6 5 5 4 4 4 5 6 8 8 10 10 10 12 13 14 15
8 11 14 14 13 19 20 24 23 21 21 21 23 21 21 20 19 19 17 14 11 14 13 11 8 7 5 4 4 4 4 4 5 6 8 8 9 9 10 11 13 14 15 15
7 10 13 17 16 18 20 21 22 24 22 20 21 23 23 20 17 13 10 16 15 14 12 9 8 6 4 4 4 4 5 5 5 7 8 8 9 10 12 12 14 14 16 16
7 11 15 16 16 19 21 21 22 24 24 23 23 23 21 18 17 17 12 13 14 13 11 9 7 4 3 4 4 5 6 6 7 8 8 9 9 11 12 13 14 15 16 16
13 15 15 19 23 23 15 19 21 20 22 23 21 24 27 20 13 10 17 17 15 13 11 8 6 3 4 4 5 6 7 7 9 10 9 10 10 11 12 13 14 15 15 16
12 15 18 19 14 11 21 23 24 23 24 22 23 24 22 18 12 19 19 17 15 13 10 6 3 2 3 5 6 8 8 10 12 11 11 11 11 12 13 14 15 15 17 17
15 13 14 14 16 20 21 23 19 19 22 20 17 20 17 17 26 23 19 16 13 9 6 4 1 2 4 6 7 9 11 13 13 13 13 12 13 15 15 16 17 18 18 19
14 18 17 17 16 20 20 22 23 20 20 22 19 17 21 25 22 20 17 14 11 7 4 2 1 3 5 7 9 11 13 14 14 15 14 14 16 16 16 17 19 20 19 19

GFSNGP_925_spd_039.txt.gz
Wind_Speed
18 20 19 17 21 22 19 21 15 30 26 28 21 18 12 18 19 19 14 6 5 4 7 10 15 19 21 21 25 27 29 30 30 30 30 27 23 21 20 18 15 12 9 6
14 18 14 16 20 18 18 18 15 17 21 19 13 12 9 13 13 13 5 3 4 6 9 11 15 17 20 23 25 29 31 31 31 29 27 24 23 21 17 17 13 10 7 4
5 10 19 9 4 9 12 12 7 8 8 11 10 10 10 11 10 9 7 6 7 9 11 13 16 19 21 26 28 30 32 30 29 27 24 22 21 20 16 13 10 7 5 2
5 12 3 1 3 10 7 7 10 12 13 12 11 8 3 7 8 8 7 9 9 10 13 17 21 22 25 27 30 31 30 28 26 25 23 20 19 16 13 10 8 5 2 1
3 6 16 5 9 7 2 4 8 10 11 11 11 4 6 12 10 9 10 10 12 15 19 22 24 24 27 28 29 28 26 26 23 22 21 17 16 13 10 8 6 3 0 3
3 5 4 6 12 5 5 1 2 4 11 11 13 5 4 10 11 12 14 17 18 21 24 25 22 24 26 26 25 23 22 21 20 19 18 16 14 12 8 6 4 0 3 5
7 4 8 9 11 3 6 6 9 2 8 9 6 5 6 9 11 10 14 18 21 22 23 24 25 24 24 24 23 22 22 22 20 19 18 15 12 9 7 4 1 3 5 7
4 5 6 6 8 5 8 9 7 2 2 7 7 7 9 11 11 9 12 18 20 20 21 22 22 24 24 24 23 24 24 22 20 16 13 12 11 8 5 2 2 5 6 8
7 4 9 10 8 7 5 9 5 1 5 6 7 5 7 10 11 10 11 16 19 22 23 21 21 23 27 22 23 25 24 20 16 15 12 10 8 5 1 2 4 6 7 9
3 4 4 11 5 3 6 4 4 2 5 7 9 9 9 9 11 11 14 16 20 21 21 21 20 22 26 26 25 24 20 17 14 13 10 7 5 3 2 3 5 6 9 11
8 13 3 4 6 5 4 5 6 6 5 8 11 10 10 10 11 11 15 16 17 19 20 21 22 23 23 25 22 19 17 15 12 9 6 4 3 1 2 2 4 7 8 10
5 4 2 4 4 4 4 5 7 9 10 10 11 12 12 11 12 14 15 18 19 20 23 22 23 23 19 17 17 17 15 11 8 6 4 2 1 2 5 6 9 8 7 8
10 4 3 5 4 5 6 6 9 10 11 12 12 13 13 12 14 19 19 20 20 21 24 23 22 20 16 15 14 13 12 10 7 5 3 3 4 5 7 7 8 6 6 10
4 4 3 6 2 7 10 10 12 13 15 12 15 17 18 17 19 18 18 21 23 24 23 22 20 18 14 13 14 13 11 9 6 5 4 4 4 6 7 9 11 11 10 11
7 6 2 9 10 10 11 11 12 11 13 12 15 16 18 14 16 19 21 22 23 23 21 20 19 16 13 12 13 11 9 7 6 5 3 4 5 6 7 9 10 12 13 13
4 4 7 9 10 10 11 12 12 12 13 12 12 16 19 21 22 21 20 20 20 17 18 18 17 13 12 11 11 10 9 7 5 3 3 5 6 7 8 9 11 12 13 13
6 3 4 5 10 11 10 10 11 11 13 13 17 19 21 22 22 19 18 19 19 18 17 16 15 12 11 9 9 7 5 4 4 4 4 5 6 7 9 10 11 12 13 14
4 1 10 12 12 13 11 11 11 14 13 20 21 20 19 17 15 18 19 20 20 18 15 14 13 11 10 8 7 6 4 4 4 4 5 5 7 8 9 10 11 12 14 15
5 3 8 12 12 11 12 12 15 18 20 20 21 17 18 19 20 20 19 18 17 16 11 12 12 10 8 7 6 5 4 4 3 4 5 7 8 8 9 10 11 12 14 15
2 3 7 10 15 16 13 18 21 20 20 21 22 21 18 18 19 19 17 14 11 15 14 13 9 8 7 6 5 4 3 3 4 5 7 8 8 10 10 10 11 12 13 14
4 5 8 9 9 16 17 21 22 20 21 20 20 19 19 19 18 19 17 13 11 13 12 10 7 6 5 4 3 3 3 4 5 6 8 9 10 10 10 11 12 12 14 15
5 6 8 11 11 14 17 19 20 22 21 20 20 22 22 19 18 15 11 16 15 13 11 8 7 6 4 3 2 3 4 5 5 7 8 9 10 11 12 12 13 14 15 17
4 8 11 13 13 15 18 18 20 21 21 22 23 22 20 18 17 16 12 12 15 12 9 7 8 5 3 2 2 3 4 5 6 8 9 9 10 11 12 13 15 15 16 17
6 10 12 15 19 18 12 16 18 18 20 20 21 21 23 20 14 10 16 16 15 13 9 9 6 3 3 2 3 4 5 6 8 10 10 11 11 12 13 15 16 16 17 18
7 9 14 16 12 10 19 21 22 22 22 21 22 20 18 15 13 18 20 18 15 12 10 8 4 2 2 3 4 6 6 8 10 11 11 12 12 14 15 16 16 17 19 20
8 9 11 13 13 19 20 21 18 19 21 19 16 19 18 16 21 21 20 18 15 11 8 5 2 0 2 4 5 7 8 10 11 11 12 14 14 17 16 16 17 18 19 20
4 9 11 12 14 18 19 20 21 20 20 21 19 19 21 22 22 21 18 16 12 9 6 3 1 1 3 5 6 8 10 11 12 13 14 15 15 16 16 17 18 19 20 19

GFSNGP_925_spd_042.txt.gz
Wind_Speed
9 12 11 10 12 13 13 16 12 23 24 26 22 22 19 12 8 11 12 14 5 5 3 1 11 16 23 27 30 30 29 27 27 30 31 32 30 28 26 25 23 20 17 12
5 11 14 15 15 13 15 17 18 18 21 15 17 8 9 13 12 11 10 4 7 6 2 5 15 16 22 27 27 29 26 27 29 32 32 32 32 31 27 23 20 16 12 9
4 7 11 7 7 10 7 10 9 9 15 15 15 11 8 7 10 10 8 4 7 6 11 14 16 19 21 25 28 26 26 28 29 31 30 28 27 26 24 19 19 15 11 7
4 8 2 2 7 7 9 6 4 13 13 12 10 6 10 11 11 11 8 7 7 10 14 18 19 21 23 23 26 24 25 28 28 29 27 26 25 20 18 17 16 12 8 4
2 3 7 7 3 3 3 5 6 8 9 10 10 5 8 13 13 13 11 11 11 18 20 21 22 23 24 25 25 25 25 28 27 26 24 22 25 20 16 15 12 9 5 3
2 3 3 1 3 4 6 3 4 4 7 10 9 3 3 11 11 13 13 17 18 21 23 24 22 25 25 25 26 23 23 26 29 28 25 19 19 18 14 10 9 6 4 3
5 3 7 5 7 6 4 4 2 1 4 6 4 4 6 10 12 12 16 19 21 23 23 24 26 29 26 24 23 26 28 25 22 23 24 20 17 14 11 9 7 4 4 5
4 4 6 3 6 1 2 4 5 2 2 6 8 9 9 8 8 10 12 18 19 22 20 22 25 27 25 21 24 26 27 27 24 22 20 17 15 12 9 7 6 5 5 4
7 5 7 6 2 6 5 3 4 2 4 7 8 9 9 7 9 9 13 17 19 20 21 20 23 23 24 22 28 28 27 24 22 21 18 14 12 10 8 7 6 5 6 8
4 6 4 5 5 6 5 5 4 3 6 6 10 7 10 9 8 9 12 15 19 20 20 20 20 20 23 27 26 26 24 23 20 19 16 13 11 9 7 5 6 8 9 10
5 8 3 5 5 4 6 5 5 5 5 7 10 7 7 7 7 9 13 17 17 18 19 20 23 24 23 24 25 26 23 20 17 15 13 10 8 7 6 6 8 8 7 9
3 2 1 3 5 4 6 4 6 7 7 7 9 10 9 8 9 13 16 19 20 20 22 21 22 23 21 21 22 23 21 17 14 13 10 9 8 8 7 6 8 8 7 8
1 3 4 7 6 5 6 6 7 7 7 8 9 11 12 10 14 19 19 19 19 21 23 22 22 24 20 18 18 18 19 15 12 10 9 9 8 8 8 7 6 7 7 10
5 6 3 5 4 7 7 8 11 10 11 12 13 14 17 15 18 17 17 21 22 23 23 24 25 22 17 17 17 18 16 12 11 9 8 7 7 7 8 9 11 12 11 12
5 5 4 9 9 7 6 9 10 8 8 9 15 14 16 15 15 18 21 22 24 24 24 25 24 20 16 16 16 14 13 11 9 8 7 7 7 7 8 9 10 12 14 14
7 7 8 7 8 7 7 7 10 9 8 10 11 15 18 20 21 21 24 22 22 18 23 24 22 17 15 14 13 12 11 10 7 6 7 7 7 8 9 10 12 13 14 15
4 1 2 3 7 7 8 7 8 9 9 10 16 20 22 22 20 20 23 24 26 24 22 21 20 15 13 11 10 10 8 8 7 5 6 7 7 8 9 10 12 14 15 16
4 1 8 9 11 9 8 10 10 13 11 19 21 21 20 18 15 19 23 26 26 23 19 17 16 13 12 10 9 8 6 6 6 6 7 7 9 9 10 11 12 14 17 17
2 3 6 9 10 10 10 11 15 20 22 22 22 17 19 20 21 21 24 23 22 20 15 15 13 12 11 9 8 6 5 5 5 5 7 8 8 9 11 12 13 15 15 15
2 1 6 8 15 14 10 16 21 21 21 22 23 22 19 20 24 24 22 17 16 18 18 14 12 11 9 8 6 5 5 5 5 6 7 8 9 11 11 11 12 14 14 14
3 4 6 7 9 15 17 21 22 21 21 24 23 21 21 25 24 27 22 16 17 18 16 13 10 9 7 6 5 4 4 5 5 6 8 9 10 11 12 12 13 14 14 15
2 3 5 9 11 12 19 20 22 23 23 23 23 25 25 22 23 16 16 21 20 17 14 12 10 7 6 4 3 3 4 4 5 7 9 10 10 12 13 14 15 15 17 18
3 2 6 8 9 13 19 20 22 23 22 24 26 25 22 22 24 21 13 19 19 15 13 11 9 7 5 3 3 3 4 5 6 8 10 9 12 14 15 15 15 17 18 19
3 1 5 11 18 16 9 18 23 23 24 24 24 28 31 26 16 14 17 22 18 15 13 12 8 5 3 2 2 3 4 6 7 10 10 9 13 13 14 16 18 18 19 18
4 5 11 15 9 7 18 23 24 24 24 23 26 24 24 25 20 23 24 22 17 16 14 11 7 4 2 1 2 4 5 7 8 11 13 13 14 14 16 17 18 19 20 21
1 3 6 9 10 17 16 18 16 18 22 20 21 25 23 19 22 25 23 22 17 15 13 9 5 3 1 1 3 5 7 9 10 11 12 14 14 15 16 17 18 20 21 21
4 6 11 10 14 17 18 17 19 19 20 22 22 25 25 26 25 26 24 21 17 13 11 7 5 2 1 3 4 6 8 10 11 12 14 15 14 15 16 17 19 21 21 20

GFSNGP_925_spd_045.txt.gz
Wind_Speed
4 6 4 6 7 9 11 18 9 24 22 22 21 20 17 4 7 11 11 12 12 3 2 4 13 14 18 18 23 26 28 28 28 27 29 29 28 28 31 31 29 27 21 14
5 8 8 6 11 12 12 16 17 23 26 15 12 17 10 9 11 12 13 9 3 5 6 7 14 14 16 19 20 26 25 27 28 28 27 28 28 29 29 25 23 20 17 16
4 4 6 5 7 12 7 5 6 7 10 14 17 12 10 11 13 14 10 5 1 7 6 11 16 19 19 22 25 26 26 26 26 26 28 29 29 28 27 24 22 19 13 8
3 4 1 5 4 6 10 8 7 7 12 11 13 7 10 10 10 14 4 7 10 8 14 17 21 25 26 26 26 26 26 26 27 28 30 31 31 27 21 18 15 12 14 9
2 2 6 1 2 2 3 4 2 5 9 9 9 5 5 10 9 9 12 13 15 18 20 21 21 23 28 28 28 28 25 27 27 29 29 27 28 26 22 16 12 10 8 7
2 1 3 3 3 1 4 3 2 3 6 8 7 3 2 7 8 10 12 13 18 22 23 23 21 25 29 25 27 25 24 23 26 27 27 24 21 18 17 14 12 8 6 4
6 3 6 8 6 5 1 4 1 2 1 4 2 2 4 6 9 12 13 16 19 20 22 24 25 29 26 26 23 22 26 28 24 23 23 20 19 16 14 11 9 6 5 5
4 3 7 4 3 1 2 2 2 3 4 7 7 7 6 7 9 8 9 14 17 17 17 18 17 23 22 20 23 27 23 24 22 20 20 20 16 13 10 9 8 6 5 5
7 6 6 3 2 1 1 2 0 4 6 9 8 6 8 8 7 6 11 12 14 16 17 17 16 20 21 23 25 23 20 23 21 19 17 14 13 11 10 8 7 6 4 3
3 5 9 4 2 1 1 1 1 4 7 6 9 8 9 9 8 8 12 14 16 17 17 15 16 18 19 19 24 25 23 22 20 19 16 13 11 9 8 7 5 4 4 6
4 6 3 1 2 4 2 3 3 3 5 8 10 9 7 9 9 11 14 14 16 16 17 18 22 21 22 25 25 25 24 20 18 15 13 12 10 8 7 7 6 6 6 7
4 4 3 2 2 5 4 3 4 7 6 5 6 9 9 8 11 14 15 16 16 17 20 19 21 22 22 23 24 25 22 18 15 14 12 10 9 8 6 5 6 7 5 7
4 3 2 5 4 3 4 4 5 6 8 9 8 10 11 10 14 19 18 19 19 19 21 21 22 22 21 21 22 22 21 17 15 13 11 9 9 8 8 7 7 7 9 9
5 6 2 5 4 5 7 6 11 10 10 12 12 15 15 15 18 17 18 20 22 22 22 25 25 23 21 20 20 19 17 15 14 12 10 10 10 9 8 9 11 12 11 11
1 1 3 7 7 6 6 8 9 7 7 8 11 14 16 13 15 18 21 23 23 24 24 26 25 21 19 18 18 17 16 14 12 11 10 9 8 8 8 8 9 11 14 14
5 6 6 5 7 7 7 7 8 7 7 7 10 13 16 18 20 21 21 22 23 19 25 26 23 19 17 16 17 16 15 12 10 10 9 8 8 8 9 10 11 12 13 15
3 1 1 2 7 7 7 6 8 9 8 9 13 18 21 21 20 20 22 23 27 26 24 24 21 17 15 13 13 13 12 10 8 8 8 7 8 9 9 10 11 12 13 14
7 4 7 6 10 9 7 8 10 14 11 17 20 20 19 18 14 18 25 28 26 22 20 19 18 16 14 12 11 11 9 8 7 8 7 8 7 8 9 9 10 12 15 15
2 5 4 6 9 9 9 9 14 17 20 21 21 18 17 19 21 24 28 25 22 21 17 16 16 14 13 11 9 8 8 7 6 6 6 7 7 7 9 10 11 12 13 15
7 6 3 6 11 13 9 16 20 20 21 22 20 21 18 19 24 24 24 17 19 19 20 17 15 13 12 9 8 7 6 6 5 5 6 6 6 7 9 9 11 13 13 14
7 6 2 6 7 12 16 20 20 19 21 21 21 20 20 23 25 26 22 14 19 20 18 16 13 12 10 8 6 5 5 4 3 5 6 6 6 8 9 11 12 13 14 16
5 4 3 5 8 9 16 19 19 21 22 21 20 23 25 23 26 20 18 21 24 19 17 15 12 10 8 6 5 4 3 2 3 4 5 6 7 9 12 13 12 13 15 16
7 4 2 6 8 11 17 18 19 23 22 23 24 25 24 23 24 21 12 22 23 20 17 14 12 10 7 5 3 2 1 1 3 5 7 6 8 11 12 12 13 15 16 16
10 6 1 6 13 15 7 13 20 20 22 20 23 26 29 25 20 18 15 26 21 20 17 15 12 9 6 4 2 1 1 3 4 6 7 8 10 11 11 12 14 15 15 15
10 7 3 12 8 5 15 19 21 22 22 21 23 26 25 26 19 23 27 26 21 20 18 14 11 8 6 3 2 2 3 4 5 8 10 10 11 12 12 12 13 14 16 17
10 7 3 6 11 16 19 19 14 16 19 18 20 25 25 23 19 25 28 26 22 20 18 15 11 8 5 3 2 3 4 5 7 8 9 11 12 12 12 12 14 15 16 17
10 6 4 4 9 16 19 18 17 16 19 20 19 25 27 24 26 29 28 25 22 20 17 13 9 7 4 3 3 4 6 7 8 10 11 11 11 11 12 14 15 17 18 17

GFSNGP_925_spd_048.txt.gz
Wind_Speed
4 6 3 4 5 7 9 18 6 15 13 22 19 19 16 8 9 11 13 10 9 10 4 2 8 9 14 16 14 13 17 21 25 25 26 29 30 29 30 32 32 29 25 22
5 5 7 6 9 10 13 15 14 23 25 21 19 10 7 9 12 13 14 10 6 6 6 6 11 13 15 20 19 18 19 21 25 25 28 29 30 32 32 32 28 26 21 19
4 3 3 5 11 15 6 6 8 9 11 6 11 7 6 10 11 13 16 7 4 7 6 11 13 16 21 23 23 22 23 22 22 28 29 30 32 33 31 29 26 24 20 15
3 3 1 6 2 6 11 9 9 10 8 8 7 4 4 6 8 9 11 9 7 7 12 16 19 22 23 25 26 25 25 24 23 28 31 32 31 29 27 25 22 17 13 9
1 2 6 2 1 1 5 6 3 4 6 6 6 5 2 7 7 7 7 7 10 12 15 19 22 24 26 25 26 26 24 25 27 27 25 27 28 26 23 20 18 16 12 10
2 0 3 3 1 2 3 4 4 3 4 4 4 2 2 5 7 8 10 10 10 13 15 17 17 23 26 22 24 22 23 27 28 28 27 25 23 21 18 16 13 11 9 6
3 3 6 7 4 3 1 4 2 3 3 0 1 1 1 3 7 9 10 12 14 15 15 12 12 18 20 19 20 23 25 25 25 25 24 21 20 17 14 11 10 9 8 7
3 3 7 3 3 2 3 2 2 3 4 6 8 7 4 5 4 6 8 11 12 14 15 15 16 22 20 20 22 24 24 24 24 22 21 18 16 13 11 11 11 9 8 6
6 5 5 3 3 0 1 3 3 3 4 6 9 5 5 5 6 5 8 9 10 13 14 14 14 20 21 19 22 24 24 22 21 19 17 14 14 13 12 10 8 7 4 1
1 4 11 9 1 0 1 2 3 3 5 7 8 9 7 6 6 6 9 9 11 12 12 13 16 19 21 20 21 19 19 18 18 17 15 13 12 10 10 9 7 5 4 6
5 7 3 3 4 3 2 2 2 4 5 7 9 7 8 7 7 8 10 11 12 13 13 14 18 17 16 16 18 21 22 19 17 16 14 13 12 11 9 9 8 7 5 4
4 3 4 5 4 5 5 4 4 6 5 5 7 10 7 7 10 12 12 13 13 14 16 14 17 17 16 16 19 21 19 16 14 13 11 9 8 8 8 6 4 2 3 6
3 4 3 1 2 3 3 3 3 6 5 8 6 12 11 8 10 14 14 14 14 15 16 17 17 16 14 15 17 16 17 14 12 10 9 8 6 5 4 3 3 5 5 5
7 5 2 4 4 5 4 5 8 7 9 9 11 15 14 14 15 14 14 16 19 19 18 19 18 17 15 15 15 15 14 11 11 10 8 7 6 5 4 3 4 5 6 7
8 4 1 4 6 5 4 5 7 6 5 6 12 14 17 13 12 13 17 19 20 21 20 21 20 17 15 15 15 15 14 13 11 9 8 7 6 5 4 3 4 6 8 8
7 2 4 3 5 6 5 6 7 6 5 5 9 13 14 17 17 17 18 21 22 16 20 22 20 18 17 16 16 15 13 11 10 9 8 6 5 4 3 3 4 6 8 10
6 4 2 2 6 7 7 5 6 8 7 9 12 18 20 19 18 17 17 18 22 24 23 23 21 18 17 15 15 15 13 10 8 7 6 4 3 3 3 4 5 7 8 9
8 9 7 6 6 8 8 8 9 12 9 14 18 19 18 19 15 16 21 24 24 22 20 20 19 18 16 15 13 12 10 9 7 6 4 3 2 2 3 5 6 8 10 10
7 6 7 6 6 8 8 7 12 14 17 17 17 16 16 16 19 22 26 26 24 22 21 19 18 17 15 13 11 9 8 7 5 4 2 1 1 3 4 5 7 8 9 11
8 10 4 3 8 9 7 11 17 16 18 20 19 17 16 20 25 25 25 20 24 21 24 20 18 16 14 12 10 8 6 5 4 2 1 1 2 4 5 6 8 9 10 11
9 8 5 3 4 9 13 18 16 15 18 21 21 19 19 22 26 27 23 16 21 21 22 20 18 16 13 11 9 7 5 4 3 1 1 3 3 5 7 8 9 10 11 13
10 8 6 2 5 7 12 16 17 19 20 20 19 21 23 21 24 23 21 21 25 24 22 20 17 15 12 10 8 6 5 3 2 2 3 4 5 7 9 10 11 11 13 14
12 11 10 4 2 5 10 14 18 20 20 21 22 24 24 23 25 21 12 21 27 24 22 19 17 15 12 10 7 5 5 4 3 3 5 5 6 9 10 11 12 13 14 15
13 14 14 9 2 6 5 10 15 19 21 22 25 28 29 24 22 22 18 26 27 23 21 18 17 14 11 9 7 6 5 4 4 5 5 6 8 10 11 12 13 13 14 14
16 15 13 7 4 5 7 11 14 17 19 20 24 26 29 26 20 26 21 29 25 24 22 18 16 13 11 9 7 6 5 5 5 6 8 9 9 11 11 12 13 14 15 16
14 12 13 10 8 9 9 13 10 15 18 16 19 24 26 24 18 25 24 28 26 24 22 19 18 13 10 8 7 7 6 6 6 8 9 10 11 12 12 13 14 14 16 17
16 15 14 12 9 8 11 16 14 14 15 16 15 23 26 24 22 25 27 29 26 24 23 19 16 12 10 8 8 7 7 7 8 9 10 11 12 12 13 14 15 16 16 17

GFSNGP_925_spd_051.txt.gz
Wind_Speed
4 5 2 4 4 7 8 10 6 4 7 19 17 16 12 6 10 12 12 14 11 7 7 9 11 11 12 13 13 11 16 18 16 17 19 23 24 27 28 27 30 32 32 29
4 4 7 5 8 9 10 9 11 18 23 23 15 6 4 7 9 11 13 15 6 7 7 8 12 12 15 17 17 17 22 23 21 22 25 26 28 28 31 30 31 32 29 25
4 4 3 5 9 12 5 5 9 12 14 5 6 8 3 6 7 9 11 11 10 7 5 7 11 12 17 18 20 24 25 23 23 24 23 26 28 30 31 30 28 26 24 21
3 3 1 6 4 6 13 10 12 12 12 7 4 2 3 3 6 7 8 9 8 7 7 9 10 11 14 15 19 21 23 25 23 24 23 27 31 31 28 25 26 23 18 14
1 2 6 2 3 5 5 6 5 7 6 4 3 5 2 5 5 6 5 5 8 10 9 10 10 9 13 15 18 18 18 20 21 26 27 29 31 31 26 23 21 17 16 11
1 1 3 2 3 1 4 3 5 3 5 2 3 2 1 3 4 4 7 9 9 10 12 12 10 9 14 16 18 16 17 18 19 21 26 29 28 25 22 20 16 12 10 7
3 3 6 7 3 3 2 4 2 2 3 2 2 1 3 4 4 6 6 8 9 10 11 12 11 13 18 18 18 19 22 23 23 24 26 24 23 20 20 17 12 11 11 10
4 3 6 4 2 2 3 3 2 3 3 3 4 5 4 4 3 4 5 7 7 10 11 11 12 15 17 17 18 20 21 23 22 21 21 20 19 14 12 13 13 12 11 9
7 5 5 2 2 2 3 4 2 3 4 6 7 4 4 4 5 4 5 6 7 9 11 11 12 16 17 15 20 21 21 20 19 19 16 13 14 14 14 11 10 9 7 6
1 4 8 7 4 4 4 3 2 3 5 7 8 8 6 4 5 5 8 8 8 9 11 11 14 18 19 18 19 19 19 17 16 16 14 12 12 11 10 9 8 7 6 6
5 8 7 3 4 3 3 2 2 2 6 7 8 8 8 6 5 7 9 10 11 11 11 12 15 15 16 16 16 18 17 16 14 13 12 13 12 10 10 10 8 7 7 6
4 2 2 6 1 3 4 3 4 5 4 5 7 9 7 7 10 10 11 12 11 12 14 13 14 13 12 12 16 18 16 14 12 11 10 10 11 13 11 10 9 7 7 7
4 4 4 5 2 3 3 4 3 5 5 7 6 10 11 8 10 12 11 12 13 14 15 14 14 13 11 13 14 14 15 13 11 9 8 8 7 6 6 5 5 7 8 7
8 4 4 3 3 5 3 3 4 4 5 8 10 13 14 13 13 12 13 14 16 16 16 15 15 14 13 14 13 13 11 9 8 8 7 6 6 5 5 6 6 7 6 8
10 6 5 3 3 4 3 4 4 4 4 5 13 13 15 13 11 12 15 15 16 16 16 17 16 15 13 13 11 10 9 8 7 6 5 4 4 4 4 3 4 6 8 7
12 10 6 4 4 4 4 5 5 5 5 4 8 11 14 15 15 16 18 19 18 14 17 17 15 13 12 10 9 9 7 6 4 4 3 3 2 2 2 2 4 6 8 9
7 6 3 3 5 5 7 5 5 6 5 7 10 15 17 17 15 15 17 18 17 19 17 17 15 14 12 10 8 8 8 6 5 4 4 2 1 0 1 3 4 5 7 8
7 10 12 11 7 5 6 7 8 10 7 12 15 16 15 16 13 15 19 19 19 17 17 17 16 15 13 11 10 10 9 8 6 5 4 3 2 1 2 3 4 6 8 8
11 9 8 7 9 6 6 7 11 13 15 16 16 13 15 16 18 19 23 21 22 21 20 18 17 15 14 13 11 10 9 9 7 6 4 3 3 3 3 5 6 7 8 9
11 14 13 6 3 3 5 11 15 13 16 18 17 15 14 18 21 21 23 20 24 22 23 21 19 16 15 13 12 11 10 9 8 6 4 3 3 4 4 5 7 8 9 10
10 12 10 7 3 1 6 12 12 11 15 19 18 15 15 21 23 25 20 14 23 20 23 21 19 18 16 14 13 11 10 9 7 5 4 5 5 6 7 7 9 9 11 12
11 8 10 10 6 2 4 9 12 13 15 17 16 17 19 18 22 22 21 17 24 21 25 22 20 18 16 14 13 11 9 8 7 5 5 6 7 8 8 9 10 11 12 13
12 12 12 11 8 4 3 6 10 13 16 19 20 21 22 21 23 19 11 21 24 23 25 23 20 18 16 14 12 11 9 8 7 6 7 7 8 9 10 11 12 13 14 14
13 14 14 16 9 3 1 4 9 13 16 18 21 23 24 20 21 23 17 22 24 25 25 22 20 17 16 14 13 11 10 8 7 8 8 9 10 11 12 12 14 14 14 14
15 16 15 15 10 6 7 5 7 11 12 14 17 20 23 24 21 27 22 21 25 25 24 22 19 17 17 14 13 11 10 9 8 9 10 11 12 12 13 14 15 15 16 16
13 11 15 15 12 13 11 6 7 9 11 12 15 18 20 21 20 16 24 22 26 25 25 23 21 21 17 14 12 11 10 9 9 10 12 13 13 14 14 14 15 16 17 19
13 12 13 14 16 16 12 9 9 11 12 14 14 19 21 23 22 20 25 24 28 27 26 25 23 21 16 14 12 11 10 10 11 11 12 13 14 14 15 16 17 18 19 20

GFSNGP_925_spd_054.txt.gz
Wind_Speed
2 4 3 4 4 7 6 5 6 4 6 12 12 12 11 2 6 6 9 12 12 9 6 12 15 15 15 15 12 10 12 15 16 16 17 19 21 22 22 24 25 26 29 29
3 2 5 4 7 8 9 6 10 15 19 20 16 7 4 5 8 10 8 9 9 8 7 10 15 15 15 13 11 10 15 19 19 20 23 24 25 25 25 27 27 30 31 29
3 4 5 5 8 12 6 6 11 10 14 9 6 5 2 4 5 6 7 8 6 6 6 11 12 10 11 11 10 13 14 15 17 19 23 24 23 23 27 31 31 30 27 24
2 4 1 5 2 5 13 8 14 9 11 9 6 2 3 2 3 4 5 5 5 6 8 11 10 10 10 11 12 13 11 12 13 18 22 24 26 26 26 29 28 26 24 21
1 3 6 2 3 6 6 4 8 13 9 5 2 2 3 2 2 2 3 3 4 6 8 11 13 10 12 12 12 12 15 15 14 18 20 25 24 23 23 25 25 23 20 18
3 2 4 3 2 1 3 3 3 5 4 2 1 4 1 2 2 3 4 5 5 6 7 10 9 8 10 12 15 14 16 17 16 19 22 24 22 22 22 22 23 19 19 16
3 2 6 8 5 2 3 4 2 3 4 4 3 1 4 4 4 5 6 5 6 7 8 7 8 9 13 14 13 13 16 17 19 21 22 21 20 19 18 19 17 16 17 14
3 3 7 4 2 2 3 1 2 3 3 4 4 6 5 4 4 4 5 7 7 8 9 9 8 13 14 13 11 17 20 21 20 19 19 19 18 15 14 16 17 16 15 12
7 5 4 3 3 2 3 4 2 2 3 6 6 4 7 5 4 3 5 7 6 8 10 10 10 13 16 12 16 17 18 18 18 16 14 13 14 14 14 12 12 11 9 8
1 3 6 8 6 6 5 5 3 4 4 7 6 7 6 6 5 5 8 9 8 7 9 11 13 13 14 14 15 17 18 16 15 15 15 14 14 12 12 10 10 9 8 7
4 7 7 5 4 4 3 3 2 2 4 7 7 8 7 6 6 8 10 10 10 10 10 12 12 12 13 13 14 16 16 14 14 14 14 15 15 12 11 11 9 7 6 4
3 2 2 5 4 2 4 4 5 5 2 4 6 9 7 7 10 11 13 13 12 13 13 12 14 12 10 12 13 15 14 13 12 12 12 11 13 14 11 10 8 8 6 5
3 6 7 10 7 3 3 4 3 5 5 7 6 10 13 7 11 13 14 15 16 17 15 14 13 12 11 12 11 11 12 10 9 9 8 8 6 5 5 4 5 7 7 5
0 6 3 2 4 6 4 1 2 2 4 7 11 13 15 13 15 12 15 17 16 17 16 15 13 12 11 12 10 10 9 8 8 8 7 7 6 5 4 4 5 6 6 7
4 4 6 8 6 3 1 1 2 3 3 4 10 12 15 13 13 13 16 18 18 18 17 16 14 13 13 12 11 11 10 10 8 7 6 5 4 4 4 4 5 6 7 6
11 9 9 6 6 4 3 3 4 4 4 4 7 12 14 16 18 18 19 21 21 17 20 19 17 16 15 13 12 11 9 8 7 5 4 3 3 3 3 4 5 6 7 9
7 7 6 5 5 4 6 6 6 5 5 6 10 14 15 15 15 17 19 21 20 21 21 20 18 16 15 13 11 10 8 6 4 3 2 1 2 3 3 5 6 8 9 9
6 9 9 10 10 10 7 6 7 8 7 12 14 15 13 14 11 13 19 19 16 17 18 18 17 16 14 12 10 8 7 5 3 1 0 1 2 3 5 6 7 9 10 11
8 7 9 8 9 8 7 5 10 12 13 15 15 13 14 15 16 18 20 20 18 19 19 18 17 15 13 11 9 8 6 4 3 2 2 2 4 6 6 7 8 9 11 12
8 11 12 12 10 7 3 3 10 11 13 15 14 13 11 15 18 19 20 16 18 17 19 19 17 15 13 11 9 8 7 6 5 5 5 6 6 7 8 8 9 11 12 13
9 11 12 12 11 9 6 3 6 7 9 13 14 13 15 18 19 19 18 12 18 18 18 20 17 16 14 12 10 9 8 8 7 7 7 8 8 8 9 10 12 13 14 15
10 8 10 12 10 8 6 1 3 5 8 12 13 14 15 16 17 18 19 16 19 19 21 20 18 17 15 14 12 11 10 9 8 8 8 8 9 10 11 12 13 14 15 15
9 10 11 12 10 10 6 3 4 6 8 12 14 15 17 17 21 15 8 19 18 22 22 21 19 18 16 15 13 12 10 10 10 10 9 10 10 10 12 13 14 15 16 17
9 10 11 15 14 12 6 11 7 7 9 11 14 15 17 16 17 21 15 18 20 24 23 22 21 19 18 16 14 13 11 11 11 10 10 11 11 12 14 14 15 15 16 17
12 12 13 13 9 8 13 13 11 8 7 9 11 13 17 19 19 21 22 18 21 24 23 24 23 21 19 17 15 13 12 11 11 11 11 11 11 13 14 15 16 17 17 18
11 10 9 10 9 13 13 11 8 9 8 9 11 11 13 16 17 15 21 22 21 25 24 24 24 22 21 18 15 13 12 11 11 11 11 12 13 14 15 15 16 17 18 19
9 9 11 10 10 14 15 13 11 11 8 9 12 12 12 15 17 17 18 22 23 24 24 25 24 24 21 18 15 13 12 11 11 11 11 12 14 15 15 16 16 17 19 20

GFSNGP_925_spd_060.txt.gz
Wind_Speed
1 1 2 3 6 12 8 5 5 1 5 4 6 7 7 1 0 2 2 2 4 4 4 4 4 6 7 8 9 10 12 14 14 13 13 12 12 13 14 14 12 11 14 15
0 0 5 5 9 9 13 13 12 13 18 15 6 3 2 3 2 2 1 2 2 3 3 4 6 9 10 9 9 10 12 13 13 14 13 13 14 15 15 19 18 17 20 22
1 2 3 8 15 17 10 9 12 10 9 5 4 5 3 4 3 2 2 0 1 2 3 6 7 9 7 7 8 10 11 13 13 13 12 14 14 18 22 25 22 21 22 24
1 1 4 2 2 4 16 9 15 11 13 10 7 2 3 3 2 1 2 2 1 1 3 5 5 7 6 8 11 12 13 14 13 12 13 14 18 20 21 20 20 22 24 23
2 3 6 2 3 5 6 0 13 17 15 8 3 4 3 4 2 2 2 3 3 3 4 4 6 7 7 9 11 12 13 14 13 15 18 19 21 21 22 23 22 21 20 20
1 3 3 3 3 2 3 5 5 8 6 3 6 3 3 6 5 4 4 3 3 3 4 5 7 6 7 10 12 12 12 12 14 16 18 19 19 20 21 22 20 17 17 14
5 4 5 4 4 1 3 4 1 2 4 4 4 2 8 7 5 5 5 4 4 5 6 6 6 7 9 13 13 13 14 15 17 18 19 18 18 17 16 15 14 12 11 11
5 5 6 2 4 3 1 0 1 3 4 5 4 7 8 7 7 7 7 6 5 6 6 6 8 11 11 13 12 15 16 17 16 13 11 10 11 11 11 11 10 9 8 7
7 3 1 2 1 2 2 8 7 4 2 3 8 8 10 9 8 7 8 7 6 8 8 7 9 13 15 12 14 13 11 11 10 10 10 9 9 9 8 6 5 5 4 4
3 4 10 10 6 2 4 5 4 3 2 4 6 9 10 10 8 9 11 11 10 10 10 10 12 14 15 12 10 10 10 10 9 9 9 8 7 6 6 5 5 4 4 3
9 8 8 11 4 3 4 4 4 2 3 5 6 10 11 10 10 11 13 13 13 12 13 12 13 13 11 10 11 11 10 8 8 8 7 8 8 6 6 6 5 3 2 1
6 5 4 3 3 3 7 6 5 4 4 4 7 9 11 10 14 14 14 16 14 14 15 13 13 13 12 12 11 11 9 8 6 7 6 6 6 7 7 6 5 4 2 1
5 1 4 6 2 4 5 5 4 4 4 4 6 11 14 11 16 16 15 17 17 16 15 14 13 13 13 14 13 10 9 9 7 6 5 5 4 3 3 1 1 1 1 1
0 2 4 0 1 9 7 7 5 3 2 4 6 10 13 13 16 18 18 19 18 17 15 15 15 13 15 16 14 12 10 10 7 7 5 4 4 3 2 3 3 3 4 2
3 1 4 7 8 8 6 4 5 5 4 4 6 10 14 14 16 19 19 23 20 17 16 15 14 14 17 17 15 14 12 10 8 7 6 5 4 3 3 3 3 4 4 4
2 4 6 6 6 7 5 5 7 7 5 5 7 11 14 14 15 16 20 25 22 20 20 23 19 17 19 18 16 14 12 12 11 9 7 6 5 5 4 3 4 5 5 5
2 4 2 5 6 8 8 8 8 7 4 7 10 10 12 13 12 15 18 23 23 21 18 24 25 21 21 20 19 15 13 12 12 10 8 7 6 6 5 5 5 6 6 6
5 6 7 9 10 10 10 9 11 11 8 11 9 10 12 14 11 14 17 21 21 20 20 25 24 22 22 22 20 17 15 13 12 10 9 8 7 6 5 5 6 6 7 7
2 3 5 7 9 9 8 10 11 11 10 10 10 13 13 13 13 15 20 21 19 18 19 21 22 23 23 23 21 19 17 15 13 11 10 9 8 7 6 6 7 7 7 7
2 3 5 6 6 7 7 8 7 4 4 7 8 9 10 12 13 16 20 19 22 19 21 21 24 26 25 23 23 21 19 17 15 12 12 10 8 7 7 8 8 8 8 9
4 5 5 6 7 7 8 8 7 3 1 4 8 8 9 12 14 17 15 12 23 24 22 24 29 30 28 26 25 23 21 19 17 15 13 10 9 8 8 8 9 9 10 9
5 5 7 8 7 7 8 8 6 4 1 1 3 5 8 10 14 16 19 16 17 22 24 27 31 31 29 27 26 24 22 20 17 15 13 12 11 10 9 9 10 10 11 11
4 5 6 9 8 8 7 10 9 6 5 4 4 7 9 10 13 11 7 19 18 20 25 26 29 29 28 26 25 23 22 20 19 16 14 12 12 11 11 11 11 12 13 13
3 5 6 7 6 7 8 12 11 8 6 5 5 6 8 9 11 15 15 10 12 20 25 27 27 29 28 29 26 24 23 21 19 16 14 13 13 12 13 13 13 14 15 16
2 2 3 5 5 6 8 10 10 10 11 8 7 6 8 10 11 8 12 16 13 15 22 24 25 27 28 30 28 25 23 21 19 16 15 14 14 14 14 14 14 15 16 17
1 2 3 4 3 5 7 8 8 8 10 10 10 9 9 9 10 11 12 11 15 15 19 21 22 25 27 29 27 25 23 21 19 18 16 15 15 15 14 14 15 16 17 17
2 2 2 3 2 6 7 7 6 7 9 10 12 11 11 10 9 9 11 11 13 16 19 18 22 23 28 28 26 25 23 21 19 18 17 15 15 15 14 15 16 17 17 18

GFSNGP_925_spd_063.txt.gz
Wind_Speed
1 1 2 4 7 13 8 8 4 1 4 10 9 4 2 1 2 2 2 1 1 1 1 3 4 6 7 8 8 8 9 8 8 8 10 11 11 13 13 15 15 12 12 13
2 2 6 8 10 9 13 14 14 13 13 10 10 1 2 2 3 5 3 2 2 1 1 2 4 4 4 5 5 6 7 6 8 9 12 13 13 14 16 16 16 19 21 22
1 1 5 9 16 16 10 8 14 10 7 5 0 2 4 3 4 4 4 3 3 2 2 2 3 2 3 4 4 6 6 7 9 10 14 13 14 18 19 20 21 23 23 23
2 2 3 2 3 3 17 9 14 10 9 5 6 1 2 3 3 3 3 3 3 3 3 3 3 3 4 4 6 7 8 9 10 10 15 13 17 19 19 20 22 22 22 22
3 4 9 6 4 4 7 5 16 14 11 8 2 3 5 5 1 1 2 4 4 3 4 3 3 3 5 5 7 8 10 12 12 13 16 17 18 19 19 20 20 20 19 17
2 3 3 4 4 2 4 3 4 5 5 5 7 4 4 8 5 5 5 5 6 5 4 4 3 4 6 7 9 10 11 13 13 15 15 15 16 17 17 17 17 15 15 13
6 4 6 5 7 1 3 4 4 1 2 5 7 3 9 9 7 6 6 6 6 6 5 4 5 7 9 12 12 10 13 14 14 14 15 14 13 11 11 10 9 10 11 11
5 4 7 4 4 4 4 3 3 4 2 3 3 6 8 7 8 7 7 8 8 8 7 6 7 9 10 12 13 14 14 15 12 8 7 8 7 7 7 7 7 6 6 6
7 4 3 2 2 3 1 4 7 4 1 2 6 7 9 8 7 7 8 8 9 10 9 8 8 10 12 13 14 13 10 9 8 8 7 6 6 5 5 4 4 4 4 4
3 5 11 8 7 1 3 3 4 3 3 2 5 7 9 9 8 8 10 10 11 13 11 10 10 10 12 11 10 11 10 9 9 8 7 6 5 4 4 3 3 3 3 3
10 10 5 6 7 6 2 4 2 4 5 4 5 7 10 9 9 11 12 12 13 13 13 13 12 11 11 10 10 10 10 9 8 7 6 6 5 4 4 3 3 2 3 3
5 3 5 6 7 2 2 3 3 5 5 5 6 7 10 9 12 13 15 15 14 14 14 15 14 12 11 10 10 10 9 8 7 7 6 5 5 5 5 5 4 3 2 2
9 4 2 1 1 3 4 5 4 4 5 5 5 8 11 9 14 15 15 17 17 16 16 15 14 14 12 12 11 10 9 8 7 7 6 5 4 4 3 3 3 3 3 3
3 2 6 6 2 1 5 6 5 6 6 6 6 7 10 12 14 17 18 18 17 17 18 17 16 16 15 14 14 12 9 9 7 7 7 6 5 4 3 3 4 4 6 5
6 3 4 3 5 4 5 5 6 7 6 6 7 8 11 12 13 16 17 18 19 18 18 18 17 15 16 17 16 14 12 10 9 8 7 6 6 5 4 4 4 5 5 6
5 3 4 6 7 6 6 6 7 8 7 6 7 9 11 13 13 15 17 21 22 20 20 20 19 17 19 19 18 15 14 12 11 9 8 7 7 6 5 5 6 6 6 7
3 4 2 4 5 7 8 8 8 9 8 8 9 9 10 12 12 14 17 21 23 20 22 20 21 22 21 22 20 16 14 14 12 11 10 9 8 8 7 7 7 7 8 8
4 4 4 6 7 8 9 9 11 12 10 12 10 9 10 12 11 14 16 19 20 21 25 23 22 24 22 22 21 18 17 15 16 14 12 11 10 9 8 8 8 8 9 8
2 3 3 5 7 7 8 8 11 13 12 10 9 10 12 12 11 12 16 18 18 19 26 25 23 23 24 24 23 21 19 17 16 15 14 11 10 10 10 10 9 9 9 9
1 2 3 5 5 5 7 8 10 9 7 5 6 7 8 9 10 12 16 17 20 18 20 25 22 22 24 24 24 23 21 19 18 15 14 13 12 12 12 11 11 10 10 11
2 2 3 3 4 4 6 8 8 7 7 4 3 4 5 6 9 12 11 9 15 19 18 22 24 25 24 25 24 25 23 21 19 18 17 16 14 14 14 13 12 12 12 12
3 3 5 6 6 5 7 8 8 8 7 6 4 4 3 4 6 10 13 12 11 14 22 25 27 27 29 23 26 27 26 23 21 20 19 18 17 16 16 14 14 13 13 14
2 3 4 5 6 6 5 8 8 8 7 7 6 5 6 7 8 7 5 9 16 16 17 23 25 26 26 23 27 28 27 26 25 23 22 20 19 18 16 15 15 14 14 15
1 2 3 5 4 5 5 9 9 8 8 7 6 6 6 7 10 12 14 12 9 12 18 20 21 22 24 26 27 28 27 26 25 24 22 20 19 18 17 17 16 16 16 16
1 2 2 4 4 4 6 8 9 8 9 8 8 7 6 5 7 8 9 9 13 12 14 17 17 19 24 24 28 28 28 28 28 26 24 22 20 18 18 17 17 17 16 17
2 2 2 2 3 3 5 6 6 5 7 9 9 10 10 9 8 8 8 9 9 12 14 15 16 18 22 23 26 27 29 28 26 26 25 22 20 18 18 18 18 16 17 18
3 3 3 3 3 3 4 5 5 6 6 7 9 10 12 12 10 9 7 8 8 9 13 15 14 16 22 24 25 26 26 26 25 25 24 22 20 18 17 17 17 17 18 19

GFSNGP_925_spd_066.txt.gz
Wind_Speed
2 2 2 4 5 7 6 5 4 2 2 11 8 7 6 7 6 6 4 5 4 2 5 6 6 7 7 7 7 8 9 10 10 10 10 11 11 11 13 15 17 17 20 19
3 1 3 4 7 8 8 9 9 7 7 5 4 6 6 7 7 5 4 4 4 4 5 6 7 5 6 8 8 8 9 9 8 10 9 11 10 11 15 17 19 20 23 23
1 2 4 6 12 13 7 7 10 9 8 3 4 4 4 4 7 6 6 6 6 5 6 8 6 5 9 7 5 7 7 7 9 8 10 11 13 16 21 21 22 22 21 20
2 2 1 5 3 3 14 9 9 6 8 5 5 6 5 3 4 7 7 6 5 7 9 7 6 6 8 6 7 6 7 7 7 9 13 14 16 19 20 19 20 20 19 19
2 4 6 6 4 3 6 9 12 12 7 6 5 4 3 6 3 5 6 7 9 10 10 7 6 7 9 8 7 7 8 9 9 12 16 16 18 18 17 18 18 17 16 16
2 1 3 3 4 1 2 2 4 9 7 6 6 2 2 7 6 6 8 10 11 10 8 7 5 7 10 9 8 9 9 11 11 14 15 17 16 15 16 16 16 15 12 13
4 2 5 5 6 1 2 3 5 5 2 3 4 2 5 8 6 10 10 9 12 12 9 8 8 8 11 10 9 11 12 13 14 14 15 14 13 13 13 11 11 10 10 9
4 3 7 4 2 1 3 4 5 3 2 2 7 7 6 6 6 7 9 10 11 11 10 9 8 12 14 12 12 13 14 15 13 12 10 10 9 8 7 7 6 6 5 5
6 4 3 5 4 4 3 3 3 4 4 3 5 5 7 6 6 8 11 12 11 14 10 8 11 13 15 16 15 14 11 10 10 10 9 7 8 7 5 4 5 4 4 4
3 5 7 6 6 4 2 4 5 5 3 1 3 7 8 7 6 6 10 12 13 15 11 11 12 15 16 18 15 12 11 10 9 9 8 6 5 5 4 4 3 3 2 2
5 6 3 4 6 8 6 4 3 5 3 2 2 5 7 6 7 9 12 14 17 17 13 13 15 17 17 15 14 13 12 11 10 9 8 8 7 4 2 2 2 2 2 0
4 2 2 2 6 6 4 2 3 1 2 4 3 4 7 7 13 14 15 16 17 17 15 16 17 16 18 17 16 16 14 13 11 10 9 6 6 5 4 2 1 0 0 1
0 4 5 6 5 3 3 2 2 2 3 2 4 5 6 5 16 16 17 17 16 17 18 18 20 18 17 18 17 17 16 14 13 11 10 9 9 7 4 2 2 4 5 5
5 4 2 5 3 4 3 3 2 3 4 3 4 5 5 9 15 18 18 19 19 21 20 21 21 19 19 20 19 17 15 14 13 12 11 10 8 7 6 5 5 5 7 7
6 3 3 3 2 1 2 2 3 4 4 4 6 6 7 7 11 17 19 20 20 20 21 23 22 22 22 22 21 19 17 16 13 12 11 10 9 8 6 6 6 7 7 7
6 5 2 1 2 2 3 5 5 5 4 3 4 7 9 11 11 17 19 22 22 20 22 24 24 25 25 23 21 19 17 14 14 13 12 11 10 8 7 7 8 9 9 9
3 3 3 1 1 2 3 4 4 5 4 5 8 8 9 10 10 14 19 23 23 21 25 28 28 26 25 25 24 22 19 17 15 14 14 12 11 10 9 9 10 10 11 10
2 2 2 3 3 4 4 5 6 9 6 11 11 10 10 10 8 13 18 20 21 21 26 28 27 26 25 25 25 23 21 19 18 17 15 14 13 12 11 12 12 12 12 11
6 4 4 3 3 3 4 5 8 10 12 12 9 8 12 13 13 12 15 17 18 18 24 24 25 24 25 25 25 24 22 20 18 18 17 15 14 14 14 13 13 13 13 13
4 4 3 4 4 3 5 6 9 9 10 10 6 5 6 7 8 10 13 18 19 16 18 22 27 27 25 24 24 24 23 22 21 20 18 18 17 16 15 14 14 15 15 15
3 3 2 1 1 1 3 5 7 8 9 8 8 6 3 2 5 7 8 7 13 15 16 16 24 26 24 24 24 24 25 24 24 23 21 20 18 17 17 17 17 17 17 17
3 3 3 4 4 4 6 7 8 8 8 9 7 6 5 4 3 5 8 10 8 9 13 17 21 24 26 27 28 26 24 24 25 24 22 21 20 20 20 19 20 20 19 19
4 3 3 4 4 4 4 8 9 8 9 9 8 7 6 6 5 4 3 4 8 12 14 16 18 21 23 26 27 26 26 25 26 26 24 23 23 22 21 21 20 20 19 19
3 3 3 4 4 4 5 9 9 7 8 8 8 8 8 8 8 6 7 10 10 8 9 13 13 15 21 24 27 28 29 28 27 28 26 24 23 22 21 21 21 21 19 19
3 2 1 3 3 3 6 9 8 7 8 8 8 9 9 8 6 10 11 10 8 9 10 11 13 14 18 23 23 24 24 23 27 27 26 25 24 22 21 21 21 21 19 18
3 2 1 1 1 3 5 7 7 7 8 9 9 10 11 11 11 10 9 8 9 8 10 11 13 14 17 22 24 24 25 25 24 24 23 25 23 22 22 21 21 19 18 18
4 3 2 2 2 2 3 5 6 7 8 8 11 11 12 13 12 11 10 9 8 8 8 10 12 13 15 19 23 25 24 24 24 23 24 24 21 21 21 20 20 18 17 18

GFSNGP_925_spd_072.txt.gz
Wind_Speed
5 4 4 5 6 10 10 11 8 7 7 6 10 10 11 10 7 7 7 7 7 7 8 14 13 12 9 7 6 5 5 5 6 6 5 5 6 7 8 11 12 14 15 16
3 4 4 3 7 9 12 5 7 5 5 7 7 2 5 8 8 8 7 7 7 7 11 14 15 13 11 9 7 6 6 6 6 6 6 7 8 10 12 13 14 15 18 17
4 1 3 6 13 15 7 7 13 9 13 2 6 12 9 8 9 10 8 8 8 8 14 18 17 16 14 11 9 7 7 6 5 6 8 10 11 12 13 13 15 16 16 14
2 3 2 6 3 5 15 7 10 4 6 7 5 5 7 6 9 8 8 8 8 11 15 17 16 17 14 12 9 8 8 7 7 8 11 12 12 11 12 13 15 13 12 13
3 3 7 4 4 6 7 8 14 15 8 6 3 4 2 6 6 7 7 7 12 18 19 17 18 18 15 12 10 10 9 8 8 11 12 11 11 11 11 14 14 14 12 11
2 1 5 4 1 3 3 5 6 12 9 7 7 5 4 7 5 6 10 13 16 17 17 19 19 18 16 14 12 11 11 11 12 12 13 13 12 12 10 10 15 12 11 9
5 4 7 7 3 4 3 4 1 8 10 8 5 4 2 8 4 7 11 15 17 20 21 19 20 19 17 15 14 12 12 13 14 14 13 12 13 13 10 9 8 8 6 5
3 4 8 4 2 5 4 2 2 4 5 7 5 5 5 7 8 8 11 15 18 18 16 15 18 20 17 14 13 14 15 16 15 15 14 12 14 12 9 7 6 5 4 3
7 5 5 5 4 4 4 2 1 3 3 6 6 5 7 6 7 8 13 15 19 18 17 16 17 16 13 13 16 18 18 17 16 15 14 13 12 10 9 9 7 7 7 5
2 5 6 6 4 3 4 3 2 2 3 3 4 6 6 6 7 7 12 14 17 17 18 16 13 12 12 17 19 19 18 18 17 16 15 12 11 10 10 10 10 10 9 8
4 5 5 5 6 5 4 4 4 3 3 3 4 4 6 7 7 10 14 16 20 20 18 18 17 16 16 20 22 20 19 19 17 15 14 13 12 11 11 10 10 11 10 8
5 6 4 5 2 4 7 5 5 4 2 0 2 4 5 5 11 14 15 19 19 21 20 21 21 20 21 23 24 23 21 19 18 17 16 15 13 10 10 9 8 8 8 7
5 4 5 4 5 4 5 4 3 3 1 2 3 3 3 4 12 16 17 20 21 23 24 21 21 21 23 24 26 24 22 21 20 19 19 18 16 15 13 10 9 9 8 8
5 7 3 4 4 5 5 4 2 1 1 3 4 4 4 6 8 14 18 23 22 21 21 21 21 21 23 25 27 27 24 23 23 22 21 20 19 18 15 13 14 13 12 12
6 2 2 5 6 6 5 3 2 1 2 3 4 5 4 5 6 14 16 16 18 20 21 22 23 24 25 27 29 29 27 25 24 23 22 21 20 19 18 17 16 14 11 11
6 5 5 5 5 5 4 3 2 2 2 2 3 5 6 7 8 9 13 17 18 19 24 26 27 26 27 28 30 30 29 27 26 25 23 22 22 21 20 19 18 16 15 14
7 4 4 3 5 4 2 2 1 1 2 4 6 8 10 10 10 9 11 17 23 24 24 27 29 25 25 28 31 32 31 29 27 26 26 26 25 25 24 22 21 19 18 15
6 5 4 3 6 5 2 1 2 3 3 7 10 11 11 10 8 12 12 13 18 21 21 22 23 23 25 27 31 32 33 32 30 29 28 27 27 25 24 23 22 21 19 16
7 6 5 5 4 3 2 0 1 4 5 6 8 9 11 11 11 12 10 10 14 16 22 20 20 22 25 28 29 32 33 32 31 31 29 27 26 26 25 25 24 23 20 18
6 6 6 5 5 5 3 3 4 4 5 7 8 7 7 6 7 7 7 10 13 13 13 12 15 22 25 26 27 30 32 31 29 27 28 27 25 25 26 25 25 25 23 22
6 6 6 5 5 5 3 2 3 4 5 5 6 6 7 7 6 5 4 4 5 6 10 11 11 14 19 23 24 28 29 26 24 22 24 24 24 22 27 27 27 27 25 23
4 3 4 4 5 4 2 2 2 3 5 6 6 7 7 7 8 7 5 5 7 8 7 9 10 12 14 17 22 26 28 27 28 28 27 24 27 27 25 27 29 28 27 25
5 5 5 4 4 3 2 3 3 3 4 5 6 7 7 7 7 5 3 8 9 8 8 9 10 10 12 13 17 20 24 26 27 28 30 30 31 31 28 26 29 28 27 25
5 4 3 2 3 3 1 2 2 3 3 3 3 5 7 9 6 3 9 10 9 9 10 10 9 9 10 13 16 18 20 22 24 26 28 30 31 32 31 30 29 25 26 24
6 5 4 4 4 3 2 1 1 2 3 4 4 5 5 5 5 10 11 10 9 9 10 9 8 9 10 10 13 16 18 19 21 22 24 26 27 29 31 32 29 26 25 25
7 6 5 4 3 4 3 2 2 2 3 5 4 5 7 7 8 8 9 10 10 10 10 10 9 8 9 11 13 14 16 17 17 18 19 21 23 25 26 27 24 24 24 23
5 5 5 5 6 6 5 4 3 4 3 4 6 5 9 8 8 9 10 10 11 11 11 11 10 10 10 10 11 13 15 16 17 17 19 20 20 21 22 24 25 24 20 22

GFSNGP_925_spd_075.txt.gz
Wind_Speed
5 6 5 5 7 16 21 18 8 5 8 7 6 9 10 9 8 7 7 8 8 8 8 15 15 14 12 11 10 8 7 6 6 4 2 2 4 5 6 9 10 11 13 15
3 4 6 5 7 10 17 15 14 17 9 7 4 4 6 9 9 8 8 9 8 7 11 15 18 17 15 12 11 10 8 7 6 4 4 5 6 8 10 12 12 13 16 16
4 3 2 6 15 14 7 9 11 9 18 2 5 8 10 8 9 10 10 9 9 10 13 18 20 19 17 14 12 11 9 8 6 6 7 8 9 10 10 12 13 14 14 14
2 2 2 7 3 7 16 16 13 12 5 8 8 6 6 8 10 9 8 8 7 11 15 18 19 18 16 14 13 11 9 8 7 8 9 10 10 11 11 11 11 11 13 14
3 3 7 6 2 5 6 6 15 17 15 8 4 2 4 6 6 7 8 6 12 17 17 18 20 19 17 15 12 11 10 10 10 11 13 12 11 11 12 12 13 13 12 11
3 2 5 4 3 4 3 5 4 11 11 8 6 5 4 6 5 5 7 11 13 14 16 19 19 20 18 16 14 12 12 12 11 13 13 13 12 12 14 13 13 11 9 8
5 3 7 7 5 4 2 5 4 3 7 7 5 4 3 6 4 7 10 13 15 18 21 21 20 20 18 16 15 13 13 13 13 14 14 13 14 13 12 13 10 8 5 5
3 4 8 5 3 5 5 3 3 4 4 6 5 4 3 5 6 7 10 14 16 18 16 17 19 20 18 16 12 12 14 15 15 15 14 15 14 13 11 10 9 7 5 4
7 6 4 4 5 3 3 2 2 1 1 6 6 4 5 4 5 5 10 13 16 17 16 15 17 20 18 16 14 15 16 17 17 17 16 15 16 13 11 10 9 7 7 6
3 5 8 6 4 5 5 3 1 2 3 4 3 4 5 5 5 5 10 12 15 15 14 15 17 18 18 16 16 18 20 19 19 18 16 14 13 12 12 12 11 10 10 9
4 5 3 5 7 5 4 3 2 3 3 4 6 5 5 5 6 9 11 13 17 17 16 18 19 18 16 16 21 21 20 20 20 19 16 15 14 13 13 12 12 12 11 10
5 7 5 5 2 4 6 5 5 4 3 2 2 2 3 4 8 12 13 15 17 18 19 20 20 19 18 19 22 23 20 22 22 20 19 17 16 14 13 12 11 11 10 10
5 4 4 2 1 3 6 6 5 4 3 1 2 0 1 2 7 11 14 18 20 22 22 21 21 22 21 21 23 24 21 25 23 21 21 20 19 18 15 12 11 10 10 10
3 6 2 3 3 5 4 6 7 6 4 2 1 1 1 3 3 10 16 19 19 20 20 21 22 23 21 21 24 26 26 23 25 25 24 22 21 20 17 15 15 15 14 14
6 1 3 5 6 5 4 3 3 3 1 2 2 2 3 4 4 8 12 13 15 17 19 20 22 23 22 24 27 29 29 28 27 26 25 23 22 21 19 19 18 18 15 15
3 3 6 5 6 6 5 3 3 1 1 2 3 4 5 6 8 8 7 10 14 16 22 24 25 24 24 25 28 28 31 31 29 26 26 25 24 23 23 23 22 22 21 21
5 2 3 3 6 5 5 3 4 2 0 2 4 7 9 9 10 10 9 10 17 20 19 22 24 22 23 25 28 29 31 33 30 28 28 28 28 27 27 26 26 25 25 22
4 2 4 3 5 5 3 3 2 1 0 3 5 7 9 9 7 13 13 10 11 14 17 18 17 18 21 25 27 28 29 30 30 30 31 31 30 29 28 27 27 27 27 23
7 6 7 7 7 5 4 4 4 4 4 5 7 7 9 9 10 11 11 10 10 11 15 15 17 17 19 22 24 26 28 29 29 29 30 29 27 27 28 28 28 28 27 25
6 8 9 8 8 7 6 6 5 5 6 6 7 7 7 8 9 9 7 7 8 9 8 7 9 15 18 19 21 25 28 29 28 25 24 26 25 25 27 27 27 28 27 27
5 6 6 7 7 6 6 4 3 4 6 7 6 5 7 8 8 8 7 5 5 6 6 7 8 9 11 15 18 23 25 25 24 25 26 26 26 24 25 28 27 25 27 28
4 4 5 6 5 4 3 3 3 3 3 4 5 7 8 8 9 8 3 4 9 9 8 7 7 8 9 10 14 18 22 25 25 25 26 27 27 26 28 30 32 33 32 31
4 3 3 2 3 3 3 3 2 3 3 4 5 7 8 8 8 6 3 10 12 10 10 9 8 8 8 10 12 14 17 20 22 24 25 26 27 28 28 29 31 32 32 33
4 4 3 2 3 3 1 2 2 3 3 3 3 5 7 9 7 3 10 11 10 10 10 9 9 8 8 9 11 13 15 17 19 21 23 24 25 27 28 29 30 30 31 32
4 4 3 3 2 2 2 0 1 2 2 3 3 4 5 5 5 11 11 11 11 10 10 10 9 8 8 9 9 10 12 14 16 17 18 20 22 24 26 27 28 29 30 32
6 6 5 5 4 4 4 3 2 3 3 4 4 3 5 7 7 8 9 9 10 10 10 10 10 10 9 8 9 9 11 12 13 14 16 17 18 20 22 23 24 25 26 28
6 7 6 6 7 7 7 7 5 5 4 4 6 4 7 8 7 8 8 9 10 10 10 10 10 10 10 9 9 9 10 12 12 14 14 15 17 19 19 19 21 22 23 24

GFSNGP_925_spd_081.txt.gz
Wind_Speed
5 4 4 5 7 13 15 17 11 4 19 17 19 15 5 6 4 7 10 9 11 10 11 15 18 18 16 14 15 13 12 11 9 7 6 5 5 4 3 4 3 4 7 9
4 4 6 4 7 9 18 20 20 23 25 19 15 6 8 9 6 9 10 11 12 11 13 16 21 22 20 19 17 16 14 13 11 8 7 6 6 6 7 8 8 7 9 9
3 0 1 4 14 18 10 8 18 17 24 9 11 9 14 15 9 14 14 14 12 13 18 20 26 27 25 22 19 17 15 13 12 10 8 7 8 9 10 10 11 11 12 11
2 1 4 6 2 8 15 16 15 11 18 12 13 14 10 8 8 11 10 11 10 12 16 23 25 24 22 21 20 18 16 14 13 11 9 9 10 11 12 12 12 11 11 11
3 3 5 8 2 5 7 8 12 19 18 16 7 4 13 8 9 10 11 11 16 21 22 23 24 25 24 23 21 18 16 15 14 11 11 13 14 14 14 14 13 13 14 12
3 4 5 5 2 4 3 5 2 5 7 7 4 4 6 6 6 8 8 13 15 17 18 21 23 24 25 23 21 20 19 18 15 14 15 16 15 16 14 13 14 14 13 10
4 4 6 7 5 5 2 4 2 2 5 4 5 6 2 3 1 3 5 10 14 18 20 21 23 24 24 23 23 20 17 16 15 15 15 16 16 17 16 16 16 14 12 10
4 3 8 7 5 7 5 2 3 3 3 3 5 4 2 2 3 4 7 10 14 18 16 18 21 23 22 22 19 17 17 16 16 16 16 17 17 17 18 18 16 14 12 11
7 6 2 6 4 6 4 3 3 3 1 2 4 3 2 2 3 3 7 10 12 16 16 16 19 20 21 19 18 19 18 17 17 18 18 18 19 20 19 19 17 16 13 12
1 5 6 6 4 4 6 5 3 2 1 4 4 3 2 4 4 4 9 11 13 15 15 15 18 18 16 16 19 20 18 17 19 20 20 19 19 20 19 21 19 16 14 14
5 6 5 5 7 6 5 6 4 2 2 3 5 3 4 4 4 5 9 11 14 15 15 15 17 17 16 17 19 19 17 18 20 21 20 21 20 22 22 20 18 17 17 14
4 4 3 5 2 4 7 7 7 5 3 2 3 5 3 2 3 7 9 10 12 12 13 14 16 17 18 19 21 19 19 20 22 22 22 21 21 20 21 18 17 17 15 14
4 4 5 5 4 1 3 4 4 4 2 3 3 3 3 2 2 4 7 10 12 15 15 13 15 17 19 21 21 21 20 21 21 22 23 23 22 22 20 19 17 17 16 16
6 4 5 3 2 1 3 6 10 8 7 5 3 5 4 3 4 3 1 5 8 10 12 14 17 19 19 21 22 22 21 21 23 24 24 25 26 25 23 21 21 19 17 16
8 5 4 1 4 3 4 4 6 6 4 4 6 5 5 5 4 5 6 5 4 7 9 12 15 18 18 21 24 24 23 23 23 23 24 26 27 26 25 23 22 21 17 18
6 5 5 2 4 3 4 4 5 4 3 2 4 4 3 2 4 6 6 6 4 6 8 12 15 15 16 19 23 24 24 24 24 24 24 25 27 26 26 26 25 25 25 25
3 4 4 3 5 4 3 3 4 5 5 4 3 3 4 5 5 6 7 7 7 9 9 9 12 12 14 17 20 23 24 23 21 22 25 26 27 28 27 26 26 26 29 27
3 3 4 2 6 6 5 4 6 5 2 3 2 3 4 5 4 7 8 10 9 8 7 8 9 11 13 15 18 20 22 22 23 24 24 25 27 26 27 27 26 27 28 28
6 5 6 6 6 7 6 6 6 6 5 5 5 5 5 5 7 7 8 7 7 7 9 9 8 7 10 13 15 18 20 21 22 23 24 23 22 25 25 26 27 27 28 28
4 6 8 10 13 10 8 8 7 7 7 7 6 7 6 7 9 9 8 7 9 7 11 11 9 7 6 8 12 16 18 20 21 22 22 23 24 25 27 29 30 29 25 25
4 6 7 9 9 11 9 7 7 6 5 6 6 6 5 7 9 7 7 4 11 11 10 9 9 8 6 5 6 12 16 18 20 20 21 21 22 22 25 26 27 27 29 28
5 6 6 6 6 6 5 5 5 5 5 5 5 6 6 8 9 5 4 9 11 11 12 11 10 10 9 7 8 9 11 14 16 17 19 20 20 21 22 23 24 25 26 27
3 3 3 3 3 3 3 4 4 4 4 4 4 5 5 5 4 5 3 11 12 12 11 10 11 11 9 8 7 7 8 10 12 14 16 17 18 19 20 21 21 22 22 23
2 1 1 1 2 2 2 2 2 3 3 3 3 4 5 6 5 2 7 8 8 10 10 10 11 10 10 9 8 7 7 8 10 11 12 13 15 16 17 18 18 19 20 20
3 3 2 1 1 2 2 1 2 2 2 2 2 2 2 3 2 6 8 8 9 9 10 10 10 10 10 10 10 9 8 9 10 11 11 12 13 14 14 15 16 17 17 18
5 7 6 6 6 5 4 4 4 3 4 4 3 2 2 3 5 6 7 8 9 9 10 10 11 11 11 10 10 10 10 10 10 11 11 13 14 15 16 16 16 16 17 18
9 7 8 9 10 10 8 7 7 7 6 6 6 4 3 5 5 6 7 8 9 10 11 11 11 12 12 12 12 12 12 12 12 13 13 13 14 16 18 18 18 17 17 18

GFSNGP_925_spd_084.txt.gz
Wind_Speed
6 3 5 5 13 17 17 17 15 13 19 21 23 22 21 14 7 6 8 10 13 13 12 16 16 15 14 14 14 13 12 11 10 9 7 7 5 4 3 4 4 2 2 2
2 6 7 8 11 12 19 23 23 25 26 20 20 18 19 18 16 12 11 12 15 15 16 18 19 18 17 16 15 14 12 11 11 10 8 6 5 5 5 5 5 4 4 4
3 5 3 6 15 18 14 14 18 20 23 15 16 15 15 14 14 14 15 17 17 18 20 21 21 20 19 17 15 14 13 12 11 9 8 7 6 7 7 7 6 6 6 5
2 5 6 1 3 8 13 19 17 19 22 20 17 17 15 15 17 16 12 12 15 17 21 21 18 18 16 16 16 14 13 12 12 12 10 8 9 9 9 9 9 9 9 9
4 7 6 12 5 6 7 9 14 21 19 18 15 11 19 16 15 16 15 9 13 20 21 18 18 17 18 17 17 16 15 14 13 12 12 11 12 13 13 13 12 11 10 10
3 4 6 1 4 6 5 5 4 7 8 9 3 6 7 7 8 14 15 8 9 14 17 18 18 19 19 19 18 18 17 15 14 13 13 13 16 15 15 14 12 11 12 10
6 5 5 6 6 8 5 1 4 6 6 6 6 7 7 9 6 3 3 6 8 13 15 15 17 19 18 17 18 16 14 13 13 13 12 14 15 17 16 15 12 10 9 8
6 4 10 7 7 6 2 2 2 3 3 5 7 6 6 4 3 1 4 6 8 11 11 12 15 17 16 16 15 15 15 14 13 12 13 15 17 17 17 15 13 12 10 9
6 4 2 10 4 8 3 1 2 3 2 3 3 3 2 2 0 2 4 7 7 9 11 10 12 13 13 13 15 15 14 13 12 12 14 17 19 18 17 14 13 13 11 10
2 4 8 6 8 6 6 9 4 4 2 3 3 2 2 0 1 2 4 6 7 9 9 9 10 10 9 13 14 14 14 13 12 13 17 18 19 20 18 16 16 14 12 11
7 10 9 10 11 10 8 8 7 3 2 2 2 1 1 1 2 2 4 5 6 7 7 9 11 12 12 13 15 14 13 13 13 15 18 20 20 21 22 16 17 15 14 13
3 6 8 7 9 6 7 7 7 5 3 3 1 2 1 2 1 2 4 5 5 6 6 7 10 12 13 14 16 16 15 14 14 16 19 20 19 18 20 16 18 19 16 15
7 7 10 14 10 6 5 4 5 5 4 6 5 4 4 3 4 2 1 3 6 8 10 11 11 13 13 15 18 20 18 15 15 19 20 20 18 17 14 17 21 21 20 19
10 9 7 5 5 5 2 3 6 7 6 6 7 5 5 5 4 4 4 3 4 6 7 9 12 15 16 18 21 22 18 18 20 21 22 22 20 19 16 16 16 17 23 21
14 9 10 10 6 3 2 6 6 5 4 5 6 6 5 4 3 3 3 4 3 3 5 6 9 14 15 17 21 23 22 16 17 17 22 23 23 23 19 17 16 15 13 19
12 7 7 7 5 3 3 4 6 5 4 3 4 4 3 2 2 2 3 3 3 4 4 6 9 11 13 17 19 21 23 23 20 17 20 21 21 21 19 19 18 17 17 19
9 8 8 4 4 3 3 2 3 5 4 3 2 2 2 2 1 4 5 4 4 4 5 6 7 8 10 15 18 21 22 23 21 21 23 23 23 23 21 20 20 19 21 22
8 8 7 8 5 5 5 4 6 6 4 3 2 2 3 4 4 5 7 8 5 3 4 7 7 8 10 13 16 18 20 21 22 23 25 25 25 25 23 22 21 21 21 25
1 1 2 3 7 8 7 5 6 6 5 3 3 3 3 4 4 4 5 4 7 5 10 11 10 8 7 9 13 17 17 15 19 21 23 23 22 24 25 26 27 26 23 24
4 4 7 10 10 9 8 6 6 6 4 3 3 3 3 3 4 4 3 5 6 5 10 11 11 9 8 6 8 14 17 18 18 18 19 20 21 22 24 25 26 26 25 26
3 5 7 8 8 8 7 6 5 5 3 4 3 2 2 2 3 2 1 0 6 8 8 9 9 9 9 8 7 8 13 16 18 19 20 20 21 21 22 23 24 25 25 25
4 5 6 6 5 5 4 3 3 3 3 2 2 1 1 2 2 1 2 4 6 8 8 8 8 10 10 9 8 7 8 10 13 15 16 17 18 18 20 21 21 22 23 23
5 3 3 2 1 1 2 2 2 2 2 1 1 1 1 2 1 1 0 5 6 8 7 7 9 10 10 9 8 7 7 7 8 9 10 11 13 14 15 15 16 16 17 17
3 4 1 0 1 2 2 2 2 2 1 1 0 1 1 1 1 1 4 5 6 8 8 8 9 9 9 8 8 7 6 7 8 8 9 9 10 11 12 13 14 15 16 17
5 8 5 4 3 4 3 3 3 3 3 3 3 3 3 2 2 4 5 6 6 7 7 7 8 8 8 9 8 9 8 7 8 9 9 10 11 12 13 13 13 14 14 15
6 8 8 8 7 6 6 5 5 5 5 4 4 5 5 4 5 5 6 6 6 7 8 8 8 9 9 9 9 9 10 11 11 10 10 10 11 13 14 16 18 19 17 16
10 10 10 10 11 11 11 10 9 8 7 7 6 6 6 6 6 7 7 7 7 8 8 9 10 10 11 11 11 11 12 13 14 14 13 13 15 16 16 16 17 17 18 19

GFSNGP_925_spd_087.txt.gz
Wind_Speed
12 6 6 7 14 20 18 17 13 13 18 17 17 17 16 14 14 9 8 7 7 9 10 15 16 15 14 14 13 12 11 10 9 8 7 6 5 4 3 2 1 1 1 1
5 7 9 8 8 14 19 18 20 22 24 20 19 18 18 17 14 13 11 12 10 11 12 16 17 17 16 16 16 14 12 10 9 9 8 7 5 5 4 3 4 3 3 2
2 7 4 6 18 17 17 19 17 19 21 17 17 16 14 14 14 14 13 12 14 13 16 19 20 19 18 16 15 14 12 11 10 10 9 8 7 6 5 5 5 4 4 4
2 6 5 1 3 17 19 18 18 18 18 18 15 15 14 15 16 16 15 12 11 12 18 21 20 19 17 16 15 14 13 12 11 11 10 9 8 8 7 8 8 8 8 6
4 9 7 7 6 6 8 9 13 16 17 15 10 10 15 16 13 17 16 13 12 12 18 21 21 20 19 18 17 16 15 15 14 13 12 11 11 10 11 12 12 10 8 9
3 4 4 5 5 2 3 8 4 3 4 4 2 5 2 5 6 8 11 14 8 8 13 20 21 21 20 19 17 17 16 15 14 13 12 12 11 12 14 13 11 10 9 9
9 6 5 3 9 4 3 2 4 2 2 4 6 6 9 8 7 6 7 9 5 6 11 16 18 20 19 18 17 14 14 14 13 12 12 13 12 14 14 13 12 9 9 8
7 3 8 10 8 5 3 3 1 3 4 5 6 6 5 5 5 4 3 2 4 9 10 11 14 16 14 13 13 14 13 12 12 11 12 13 13 14 15 14 12 11 10 9
5 2 5 8 5 4 7 5 2 3 2 4 5 4 3 5 5 5 3 3 4 8 9 8 10 10 11 11 13 13 13 13 12 11 11 12 15 16 17 16 13 12 12 10
7 2 5 5 7 8 6 7 4 4 5 3 3 4 3 3 3 3 3 4 5 7 8 8 8 8 7 11 12 13 13 12 12 12 12 12 15 17 18 17 14 13 13 12
8 15 12 8 6 10 10 8 7 6 5 4 3 1 2 4 4 3 4 4 3 4 6 7 7 7 7 10 12 12 12 12 12 12 14 14 17 19 20 19 17 14 14 13
6 5 8 10 11 15 10 8 7 6 4 1 1 2 3 4 4 3 3 3 3 3 3 5 6 6 7 10 11 12 12 14 12 12 12 15 17 16 15 17 15 17 14 14
13 11 12 13 13 11 9 9 5 4 2 5 4 4 4 4 6 5 4 2 1 1 3 4 6 8 9 13 14 14 13 16 14 13 14 17 17 16 13 17 18 18 20 20
9 10 9 6 7 13 10 7 2 5 6 5 6 5 5 5 5 6 6 5 4 1 2 4 6 10 13 15 16 17 18 16 16 15 17 18 19 19 17 15 14 18 24 23
10 6 11 11 13 11 7 4 3 4 5 5 6 6 5 5 5 5 5 5 4 3 2 3 5 7 9 13 15 18 19 19 18 15 17 19 20 20 19 17 16 14 13 17
7 6 7 6 12 10 5 3 4 4 5 4 5 5 4 4 3 4 5 6 6 5 5 5 5 5 7 11 15 16 18 19 19 18 16 18 19 19 18 18 17 17 18 18
9 8 6 5 8 7 5 2 2 3 3 4 4 4 4 4 2 4 5 6 6 7 5 6 7 8 6 8 12 16 18 18 18 19 22 20 20 21 19 19 19 20 20 20
10 9 8 7 8 7 2 3 4 4 4 4 3 3 4 4 3 4 5 6 5 1 6 8 9 11 9 8 10 12 15 17 18 21 22 23 23 23 23 24 23 21 20 20
6 4 6 6 5 2 3 5 6 6 4 3 3 3 3 3 3 4 5 4 5 4 8 10 11 9 8 8 8 11 14 15 16 18 20 21 19 21 23 23 24 25 25 24
4 5 7 7 7 6 5 6 7 6 5 4 3 2 2 3 4 5 3 3 5 4 9 10 11 9 10 10 8 9 11 14 16 16 16 17 19 20 22 23 24 24 23 24
3 5 4 4 6 7 7 6 5 4 4 4 3 3 3 3 4 4 3 2 5 9 9 9 9 10 12 12 11 10 10 11 13 15 17 17 18 18 20 21 22 23 23 23
5 5 4 4 5 4 4 3 2 1 1 2 2 2 2 2 3 2 1 2 6 9 8 7 8 11 13 11 10 9 9 9 9 10 12 13 14 16 17 18 19 20 21 21
6 4 2 1 1 1 1 1 1 1 1 1 1 1 1 2 2 3 1 3 5 7 7 7 9 11 11 10 10 9 8 8 8 8 9 10 11 12 13 14 16 16 17 17
1 2 5 3 2 2 3 3 2 2 3 3 3 3 2 2 2 3 4 6 6 7 7 7 9 10 10 9 9 10 9 9 9 9 10 10 11 11 11 12 13 14 15 16
6 6 8 6 6 6 6 5 5 5 6 6 6 6 5 4 4 4 5 6 7 7 8 8 9 10 10 10 10 10 10 11 11 12 11 11 12 13 14 15 15 15 15 16
11 10 10 9 11 10 8 7 8 6 7 7 8 8 7 7 6 6 6 6 7 8 8 9 9 10 10 11 11 11 11 12 13 14 13 15 14 14 14 14 15 15 17 18
12 12 11 10 14 15 14 13 11 11 10 10 10 8 9 8 7 7 7 7 7 7 8 9 9 10 11 12 12 13 14 15 15 16 17 17 17 18 18 19 18 17 18 18

GFSNGP_925_spd_090.txt.gz
Wind_Speed
13 7 5 3 9 16 18 14 10 7 15 13 11 10 4 7 9 5 6 5 7 8 7 17 22 22 21 19 20 19 19 17 16 14 13 11 9 8 6 5 5 4 1 4
10 3 3 4 11 12 19 18 17 13 18 10 11 13 14 9 8 6 3 6 7 9 10 15 20 23 24 24 22 20 19 18 17 15 15 12 10 8 7 5 4 4 5 6
1 7 4 4 13 15 11 14 15 16 19 12 12 9 7 7 7 7 6 6 7 8 11 18 23 24 24 24 22 20 19 18 17 15 14 12 11 10 8 5 4 3 3 3
3 7 4 4 3 19 16 13 14 13 9 10 8 6 7 5 4 6 7 7 6 6 18 24 24 27 26 25 25 23 20 20 18 17 15 15 12 9 8 6 5 6 6 5
3 4 2 2 2 5 8 8 9 10 9 7 5 2 6 6 4 4 7 8 10 13 13 25 27 28 29 28 27 24 22 21 19 18 17 16 12 11 10 9 10 10 8 7
3 2 1 3 1 3 4 3 4 5 4 4 5 0 3 4 5 6 9 13 12 5 5 18 26 29 29 27 25 24 22 21 19 19 18 17 14 13 13 11 11 10 10 9
5 3 5 6 6 2 1 2 3 3 3 1 2 3 1 5 5 6 7 10 7 3 2 9 25 28 24 22 22 20 19 18 18 17 17 15 12 14 11 12 12 12 11 10
4 3 4 3 3 2 1 2 2 2 1 2 2 3 2 3 4 5 5 7 7 5 9 15 23 25 20 20 18 18 19 19 17 17 17 14 14 12 13 14 14 13 12 12
3 1 3 4 3 5 5 2 3 3 2 3 3 2 1 3 4 4 5 4 8 11 12 11 12 14 15 15 18 18 18 17 17 16 13 13 13 15 15 16 16 15 16 15
5 3 4 9 5 9 8 5 4 4 4 2 1 2 4 4 3 4 5 6 8 9 9 9 9 8 11 15 16 18 17 17 16 14 13 12 13 15 16 18 17 15 17 16
5 10 9 6 9 10 10 8 4 3 4 3 2 4 4 3 4 5 7 7 7 9 11 11 11 11 12 13 15 15 14 15 16 14 14 14 14 16 18 18 19 18 18 17
4 5 4 6 14 11 10 7 8 5 2 3 2 5 5 5 6 6 7 7 7 7 9 9 8 9 9 11 12 13 14 16 17 15 13 14 14 15 14 15 15 15 13 13
4 4 4 9 8 7 8 9 7 5 3 5 5 7 8 5 7 9 9 8 6 4 2 3 4 6 7 9 11 13 14 16 15 14 15 16 16 17 16 15 15 15 17 20
11 6 6 4 5 8 7 7 6 7 9 7 6 7 9 9 10 10 9 7 6 5 4 2 2 4 6 8 10 13 14 13 16 16 16 16 16 18 17 15 16 19 20 20
11 7 6 7 5 7 8 5 3 2 3 4 6 7 8 8 8 8 7 7 5 8 7 6 5 6 6 7 12 13 14 15 16 16 16 16 16 17 18 18 17 16 15 17
11 10 7 5 6 6 5 6 4 4 4 3 6 8 8 8 8 8 8 9 9 8 7 6 5 5 5 6 8 10 12 14 15 16 16 15 16 17 18 19 19 20 21 22
7 7 5 7 6 6 5 4 4 5 5 7 6 5 6 5 8 7 7 7 5 6 6 7 7 8 7 5 7 10 12 13 14 16 18 19 19 19 19 19 20 20 22 22
5 6 5 5 7 5 3 4 4 7 5 6 5 5 6 7 5 5 6 6 5 5 10 8 9 8 7 7 6 8 10 12 13 17 19 19 21 21 22 22 22 22 23 24
5 4 6 6 7 4 6 8 9 8 7 5 5 6 6 6 5 4 4 6 7 5 9 10 11 8 8 9 8 7 7 10 12 14 15 18 17 20 21 21 22 23 23 23
2 4 5 5 9 8 8 6 4 4 4 5 5 4 5 5 5 4 3 5 6 5 8 9 9 11 12 11 11 10 9 8 10 12 14 15 16 18 19 21 21 22 21 22
3 3 3 4 6 6 5 4 2 2 5 5 4 4 3 3 4 4 3 2 5 9 8 7 7 11 11 11 9 9 8 9 9 10 12 13 15 16 17 18 19 20 21 21
4 4 5 6 5 5 4 4 4 4 4 4 4 3 3 3 4 3 3 3 5 7 7 7 8 10 11 9 8 8 8 9 9 10 10 10 11 13 14 14 15 17 18 18
4 4 4 4 4 4 4 4 3 2 1 1 2 2 3 3 3 3 0 2 5 6 6 6 9 10 11 9 9 9 8 9 9 9 10 11 12 12 13 13 14 14 16 17
3 2 2 6 6 5 5 4 4 4 4 3 3 3 3 3 3 2 3 5 5 7 6 7 9 9 9 9 9 9 9 9 9 10 10 9 11 12 13 14 15 16 16 16
6 5 5 5 5 7 7 7 7 7 7 8 7 6 5 5 5 4 6 6 6 6 7 7 8 8 9 9 10 10 11 11 11 12 13 14 15 15 15 15 16 16 16 18
10 10 12 10 11 11 11 9 10 9 8 9 9 8 8 7 7 8 7 7 7 7 7 7 8 8 9 10 11 12 13 14 15 16 16 18 18 18 18 20 20 19 19 20
12 12 12 12 12 13 14 15 13 15 11 11 12 9 8 8 9 9 9 9 8 8 8 7 8 8 10 11 13 14 15 16 17 18 19 19 20 20 20 21 21 20 19 21

GFSNGP_925_spd_093.txt.gz
Wind_Speed
8 11 6 3 6 13 13 9 9 6 13 13 8 4 4 5 6 3 6 7 8 8 7 16 17 18 18 22 22 23 21 19 18 17 17 15 12 12 11 8 6 5 4 4
5 10 8 8 12 13 17 16 14 8 9 5 7 6 5 5 7 8 8 9 10 10 10 16 22 22 21 22 25 23 21 20 20 20 19 15 14 13 10 8 8 7 6 5
4 1 8 4 13 14 11 15 15 15 21 7 13 7 7 6 4 5 5 6 7 8 13 20 27 29 29 26 24 23 23 23 23 21 19 17 14 13 11 8 7 7 7 6
4 2 0 5 2 16 18 13 16 14 7 11 12 9 8 4 4 6 5 6 7 7 15 24 29 32 31 29 28 25 24 24 23 22 20 18 16 13 11 9 8 7 7 7
1 2 6 4 3 3 7 8 5 7 10 8 3 3 1 2 2 1 3 5 8 14 14 24 30 33 33 30 29 27 26 25 25 23 21 19 17 14 11 8 8 8 9 9
3 1 2 3 3 3 4 3 5 5 5 5 3 1 4 3 4 4 7 9 11 16 10 19 29 34 32 31 30 28 27 25 23 22 21 20 16 14 11 11 10 10 10 10
5 3 5 4 3 2 2 3 3 3 3 2 1 4 3 3 4 5 6 10 10 7 3 7 26 32 27 28 29 28 23 22 22 20 19 18 15 12 12 11 11 12 12 12
3 2 5 6 4 2 3 4 1 1 2 2 1 1 1 2 3 5 6 8 7 6 8 3 22 32 28 27 26 22 21 22 21 19 18 17 15 12 12 12 14 15 14 13
3 3 1 10 12 6 5 3 4 3 2 2 1 0 2 1 3 3 5 5 6 8 12 14 13 24 25 20 20 21 21 21 19 18 16 15 13 12 13 15 16 16 16 15
3 2 2 1 8 9 6 5 7 2 3 2 2 3 4 3 3 3 4 4 4 6 8 10 9 9 12 16 18 19 20 19 18 18 17 15 14 14 15 16 17 16 16 17
4 7 7 4 6 7 11 10 11 9 3 2 3 4 5 3 4 4 4 7 5 6 7 8 8 9 10 12 14 15 16 17 19 18 17 15 15 15 17 18 19 19 20 20
4 1 3 5 7 6 10 12 11 9 5 2 3 5 5 5 6 7 6 6 8 7 7 6 6 7 8 9 12 14 15 17 19 19 17 15 16 14 14 16 15 15 15 17
2 4 5 7 8 2 4 12 12 9 5 4 4 7 6 4 7 9 8 7 6 6 5 5 5 4 5 7 10 12 14 15 17 18 17 16 17 16 14 14 14 14 16 15
7 8 7 5 4 6 4 6 16 8 5 4 7 10 11 10 9 10 8 6 6 6 6 4 3 1 3 7 10 12 12 13 17 18 17 16 16 15 14 15 15 18 18 19
9 3 7 8 7 6 7 3 9 5 2 3 7 7 10 9 7 7 6 5 8 9 8 7 6 7 2 3 7 9 11 13 14 16 16 16 15 14 14 16 17 17 16 16
10 7 7 7 6 6 5 6 6 5 4 3 6 8 9 9 9 8 7 6 5 7 7 6 6 7 6 4 5 7 8 10 12 14 14 15 15 15 15 16 17 18 19 20
8 7 6 6 5 6 5 5 3 3 5 6 6 6 7 9 8 6 6 5 6 8 7 7 8 7 7 6 4 5 6 7 9 12 14 16 17 18 18 17 18 19 21 20
7 3 4 4 6 6 4 2 7 6 4 5 5 6 6 6 5 4 4 5 7 7 9 7 7 6 7 7 8 5 6 7 8 9 12 14 15 17 18 19 20 20 21 21
5 4 5 6 8 3 5 6 8 7 9 8 5 5 6 6 4 4 4 6 6 4 7 7 8 9 8 8 9 7 6 6 7 9 9 10 11 14 17 18 19 20 20 20
2 2 3 3 4 4 4 5 5 5 5 4 2 3 4 4 3 3 4 8 6 5 5 5 5 8 8 8 7 7 7 7 7 6 7 8 10 12 14 16 17 18 19 19
3 2 2 2 3 2 4 4 4 4 3 3 4 3 3 2 2 3 5 4 3 4 3 3 6 8 9 8 8 6 7 7 8 8 9 9 9 9 10 12 14 15 17 18
2 1 1 1 2 1 0 2 2 1 2 2 2 2 3 3 3 3 4 3 2 2 3 3 5 7 7 6 6 6 6 6 6 7 8 9 9 10 11 11 11 12 14 15
2 1 1 2 4 3 3 2 0 0 1 1 1 1 1 1 1 3 3 2 1 1 2 2 4 5 5 5 5 5 5 5 5 5 6 7 9 10 11 12 13 14 15 14
4 5 6 5 6 6 5 3 3 3 4 3 3 3 3 3 3 4 3 2 2 2 2 2 3 3 4 5 6 6 7 8 8 9 10 10 10 12 13 14 15 15 16 15
9 10 11 11 9 8 8 8 7 6 6 6 7 7 6 6 7 5 5 4 4 3 2 2 2 3 4 5 6 7 8 9 9 11 13 13 15 15 16 16 16 17 17 19
9 10 12 14 14 16 15 12 11 11 9 9 9 8 8 8 9 9 7 6 5 4 3 3 2 3 4 5 6 8 9 11 12 13 13 15 16 17 17 18 18 19 20 19
10 10 10 12 12 12 13 14 13 15 12 11 13 11 10 9 10 10 9 8 7 6 5 4 4 4 5 6 8 9 11 12 13 14 15 15 16 16 17 17 18 20 21 22

GFSNGP_925_spd_096.txt.gz
Wind_Speed
8 10 7 5 6 11 11 8 8 5 7 7 6 5 3 4 4 4 6 6 7 7 7 13 13 15 17 19 22 23 22 21 21 19 17 14 15 17 15 13 11 8 6 7
5 3 10 14 10 7 11 10 15 7 13 3 4 4 2 3 5 6 7 9 10 9 8 13 19 21 21 22 23 23 23 23 21 21 20 20 18 16 14 12 7 8 9 9
4 5 5 8 15 14 9 9 14 15 18 2 7 8 6 7 8 7 8 8 8 9 11 20 24 24 25 24 23 24 24 23 23 22 21 20 18 16 13 11 11 11 9 8
3 2 3 4 4 12 14 10 13 10 4 11 13 11 7 4 4 5 5 5 6 6 12 20 25 24 23 23 26 27 25 24 23 23 22 19 17 16 14 13 11 9 8 7
1 2 5 3 1 4 6 5 7 12 12 11 6 2 3 2 2 1 3 5 8 12 14 15 20 26 26 25 27 28 26 25 24 22 20 19 19 17 14 11 11 10 8 9
2 3 3 1 8 5 3 3 5 4 7 5 6 3 4 3 1 3 5 8 11 12 15 14 18 24 27 27 29 30 28 26 24 23 22 22 20 17 15 12 10 11 10 10
3 3 5 7 11 6 1 4 6 3 3 4 3 4 3 1 1 3 5 9 10 11 9 10 13 25 26 27 30 30 26 23 22 23 22 20 19 17 14 11 11 11 11 12
3 2 5 9 5 5 6 8 6 3 2 2 3 2 2 3 3 5 6 8 8 6 7 7 9 24 24 28 28 23 21 22 22 21 20 19 19 16 14 11 12 12 13 14
5 3 3 2 2 5 7 6 7 7 4 1 1 1 2 2 3 3 5 6 5 6 8 6 5 18 21 22 19 19 20 21 20 19 18 19 19 16 12 12 14 15 16 16
2 2 3 2 1 4 7 7 10 8 8 3 3 3 3 3 2 2 3 5 6 5 7 11 8 6 12 15 18 20 20 19 19 19 18 17 17 15 14 15 16 17 17 17
4 4 2 3 4 1 5 8 11 13 8 8 3 2 3 3 2 2 3 5 7 8 8 9 8 10 9 11 14 16 16 17 17 17 17 16 15 15 16 16 16 18 19 18
4 2 2 5 7 11 6 3 6 10 14 10 2 4 2 3 3 3 5 5 8 8 9 8 9 8 6 6 9 12 14 14 15 16 16 15 15 14 13 14 14 16 16 15
3 3 5 8 9 6 5 5 3 7 9 9 4 6 5 3 4 6 7 7 6 5 6 7 6 6 4 3 4 7 9 11 13 14 15 15 14 15 15 13 15 16 15 16
8 7 6 3 5 8 8 9 9 8 13 8 4 3 7 7 7 7 7 6 6 7 7 7 7 5 2 2 5 7 8 10 12 14 15 16 16 17 14 15 14 15 16 16
4 4 6 8 9 5 8 6 6 5 6 3 0 5 6 6 6 7 6 7 9 10 9 8 7 8 4 2 3 6 8 10 11 13 14 16 16 15 15 16 16 17 16 15
8 7 6 4 6 7 7 6 5 5 3 3 4 5 7 9 9 8 7 4 4 7 6 6 6 6 5 3 3 4 5 7 9 11 12 13 14 15 16 17 17 17 17 18
7 6 7 7 6 8 7 6 4 4 2 3 3 5 7 8 8 6 6 6 7 7 5 5 5 4 4 5 4 2 4 5 6 7 9 11 13 15 17 17 17 18 19 17
6 7 3 5 7 8 8 3 4 5 4 3 3 6 7 4 4 4 5 7 7 7 5 5 5 3 4 5 5 4 2 4 5 6 7 9 11 13 14 15 16 17 18 17
6 4 4 5 6 7 5 4 3 3 5 5 5 6 6 3 3 4 6 6 4 2 3 3 4 5 4 4 5 5 5 4 3 3 5 6 7 8 11 12 14 15 16 16
3 1 3 3 4 4 3 4 4 1 0 2 5 5 4 2 3 5 6 6 4 2 0 1 2 3 4 4 4 5 4 5 5 6 6 6 6 7 8 9 11 13 14 15
2 3 2 2 2 4 5 5 5 6 5 3 3 4 6 5 4 6 8 5 4 2 2 1 1 3 4 4 4 3 4 4 5 6 7 7 8 8 9 9 10 11 12 13
3 2 1 1 1 2 2 3 3 4 4 3 2 2 4 4 3 4 4 5 5 3 3 2 1 2 2 2 2 3 3 2 3 2 4 5 6 7 9 10 10 11 12 13
4 3 3 2 4 5 5 4 4 5 5 4 3 4 5 5 5 6 4 6 4 4 3 3 1 1 1 1 2 2 2 2 2 3 4 4 5 7 9 10 10 11 13 14
4 4 5 5 7 6 5 4 5 6 7 7 7 7 7 6 7 7 5 4 4 4 4 3 2 2 1 1 1 1 2 3 3 4 6 7 8 9 10 11 12 13 14 14
7 9 10 10 8 7 9 9 8 8 9 10 10 10 10 9 9 5 7 6 6 6 6 5 4 4 3 3 2 2 3 5 5 8 8 9 11 12 12 13 13 13 14 16
7 7 10 10 11 11 12 11 11 11 10 10 12 11 11 11 11 11 10 9 9 8 8 7 7 6 6 5 4 5 6 7 8 9 10 11 11 12 13 13 14 14 16 17
8 8 8 9 10 10 9 10 10 12 10 11 14 12 11 12 12 12 12 12 11 11 10 10 9 9 8 7 6 7 7 9 10 11 11 11 12 13 14 14 15 16 17 18

GFSNGP_925_spd_099.txt.gz
Wind_Speed
9 9 8 8 8 9 11 11 8 4 8 6 6 5 5 4 0 1 4 5 6 6 6 7 7 8 10 14 17 19 21 21 20 18 17 16 16 12 10 9 7 5 5 6
5 7 7 12 9 10 12 6 13 5 6 5 1 3 3 5 4 4 6 7 8 7 6 9 11 11 12 16 20 22 24 22 20 19 19 18 15 13 11 10 7 6 7 9
4 4 2 3 8 11 9 10 7 10 10 3 2 7 6 7 6 8 8 8 8 8 8 15 16 16 18 19 19 22 22 22 21 21 19 18 16 14 13 10 8 8 8 7
3 4 2 5 0 7 12 5 11 6 6 10 13 13 12 5 5 8 8 7 6 5 8 11 14 17 20 18 20 23 24 23 21 21 20 18 17 16 13 10 9 8 8 8
2 3 5 1 5 3 4 1 1 8 13 10 6 2 4 5 5 4 2 3 7 9 11 13 14 16 18 19 20 22 23 23 22 22 21 20 19 16 14 12 11 10 8 7
2 2 2 1 7 7 2 0 8 11 7 5 6 3 5 5 3 2 2 4 8 11 14 15 18 15 18 22 23 26 27 26 23 22 22 22 20 18 16 13 9 7 8 8
2 3 6 4 9 7 2 3 13 10 7 2 1 4 1 3 2 1 2 5 6 8 10 13 12 11 19 22 27 28 25 24 22 23 23 21 20 18 14 10 7 8 10 10
3 2 6 5 4 3 3 4 5 9 9 8 5 1 1 3 2 1 3 5 6 6 8 10 8 11 18 23 22 21 21 21 21 21 21 20 19 16 13 11 8 8 11 12
6 4 1 2 3 2 1 2 6 9 13 11 8 3 0 1 1 1 3 4 5 6 9 12 6 5 11 12 13 17 18 20 20 20 20 19 18 17 15 12 10 12 13 15
2 0 2 1 2 1 3 3 6 7 9 11 8 7 1 2 1 2 3 4 5 5 9 13 12 4 2 9 13 17 18 18 18 19 18 16 15 15 14 13 13 15 14 16
5 4 3 1 2 4 7 5 4 9 6 9 12 8 2 1 2 2 4 4 7 8 9 10 11 12 9 9 12 15 14 15 16 16 16 15 14 14 15 14 14 14 15 16
4 1 1 5 4 5 7 8 5 4 9 10 8 8 3 3 3 2 3 4 8 8 10 10 11 12 10 8 7 10 11 12 13 13 13 13 14 13 12 13 12 12 13 15
2 2 4 10 10 9 9 7 7 6 4 8 12 9 3 3 3 3 3 5 6 7 8 9 10 12 9 6 4 5 6 8 10 13 14 15 14 14 12 10 11 14 15 15
6 4 5 2 5 10 9 11 14 11 11 8 10 7 2 5 7 4 5 4 7 8 9 9 10 10 7 3 2 2 3 4 8 11 12 13 14 13 12 12 12 12 11 14
4 5 5 6 7 8 6 7 7 6 5 6 5 3 6 7 4 5 1 4 9 10 9 7 7 8 6 4 2 2 3 5 7 8 10 11 12 12 12 13 14 15 14 12
6 6 3 4 7 6 5 8 7 6 5 4 2 1 3 7 9 5 3 4 3 6 5 5 5 6 5 5 4 3 3 3 5 7 8 9 11 12 13 14 15 15 15 15
4 4 4 6 6 8 7 9 6 5 3 3 3 2 5 7 7 5 4 5 6 5 4 3 2 3 3 4 4 3 3 3 3 4 6 7 9 11 12 13 14 15 16 15
5 5 5 4 6 6 6 6 7 7 4 3 4 2 2 3 3 1 3 5 5 4 2 1 2 1 2 4 4 3 3 2 3 4 4 5 7 8 10 11 12 13 14 13
4 5 3 4 6 7 5 5 6 7 9 6 2 2 2 2 2 1 3 5 4 3 1 0 1 2 2 3 3 2 2 2 2 1 2 2 3 3 5 6 8 9 9 10
3 1 3 3 5 6 6 6 5 6 6 5 3 2 2 2 2 1 2 3 3 2 2 1 2 3 3 3 2 2 1 1 2 3 4 3 4 4 4 5 5 6 8 9
2 2 2 2 3 3 4 4 4 3 4 4 3 3 4 4 5 5 5 4 4 2 2 2 2 2 2 2 2 2 2 2 1 1 3 4 4 5 6 7 7 8 9 10
1 1 2 2 2 2 3 4 4 4 4 4 5 4 4 6 5 5 6 7 5 4 4 4 3 1 2 1 1 1 2 2 2 0 1 1 1 2 4 6 6 7 8 10
3 2 1 1 2 4 6 4 3 4 4 4 5 5 6 7 7 6 4 6 6 6 5 6 4 2 3 2 1 1 1 1 1 1 2 3 4 6 7 9 9 10 11 12
3 4 4 4 6 7 5 3 5 6 6 7 9 9 9 9 9 10 10 7 7 7 7 7 6 5 5 4 4 3 3 2 3 4 5 6 7 8 9 10 11 11 12 12
5 6 7 8 8 8 11 11 10 10 11 12 11 9 11 12 12 7 8 10 9 10 10 9 8 7 7 7 6 6 5 5 5 7 8 9 10 10 10 10 11 11 12 13
6 6 7 8 10 10 10 10 9 13 12 13 13 12 10 12 13 14 13 12 12 13 13 11 10 10 10 9 9 8 8 8 9 9 10 10 10 11 11 11 12 12 13 15
8 8 7 7 7 7 8 9 9 12 10 11 14 14 12 11 13 13 14 14 14 14 14 13 13 12 12 11 11 11 11 11 11 11 12 10 10 11 12 12 12 12 13 14

GFSNGP_925_spd_102.txt.gz
Wind_Speed
9 10 8 6 9 6 6 4 4 1 8 7 3 3 2 1 4 4 3 4 4 4 4 4 2 1 2 5 8 11 15 16 16 16 16 16 16 15 14 11 8 7 6 6
4 7 9 10 8 11 13 8 10 8 6 5 5 0 3 3 1 2 3 4 6 6 5 6 7 7 6 7 10 13 16 17 17 17 17 17 17 16 11 10 10 9 8 4
4 5 2 3 6 8 3 4 4 9 3 4 11 5 3 4 6 6 6 6 6 6 6 9 10 10 12 10 11 14 16 18 19 19 18 18 17 14 13 12 10 9 6 2
3 5 1 5 5 2 6 5 4 7 8 7 12 17 13 4 5 8 7 7 5 4 5 8 6 7 11 12 15 17 18 20 20 19 19 18 17 15 14 13 10 7 4 3
2 2 5 3 5 4 2 3 7 6 9 12 13 4 5 3 5 4 3 1 2 5 9 11 12 11 9 11 16 19 21 22 22 22 20 19 19 18 15 13 10 7 5 4
2 1 2 1 6 3 4 2 9 9 11 10 3 2 4 4 1 2 5 5 8 11 13 14 14 12 13 13 17 22 23 24 23 22 22 23 21 19 16 12 10 7 5 5
1 2 6 4 9 4 2 2 8 9 8 9 5 4 5 3 3 3 4 7 8 9 10 12 12 10 12 14 20 22 20 20 22 23 23 22 21 19 16 12 9 7 4 6
3 2 5 3 4 2 0 3 2 5 8 9 10 10 4 2 2 3 5 7 7 9 10 12 10 8 9 12 12 14 17 20 22 21 21 20 19 18 14 12 10 7 4 6
7 5 3 1 2 3 3 2 3 3 4 6 9 7 10 4 2 3 4 6 8 7 9 12 9 2 4 6 9 13 17 19 20 19 18 19 19 17 16 14 12 9 7 8
1 1 0 2 1 2 4 3 5 5 5 4 7 10 10 4 1 1 4 6 7 5 7 11 12 6 1 5 9 15 18 18 18 19 19 18 17 17 17 16 13 10 10 11
4 4 3 1 2 2 5 6 6 7 5 5 6 8 7 4 2 2 3 5 6 6 7 9 11 12 9 6 8 13 15 16 17 17 18 17 16 16 16 13 12 11 12 12
4 3 2 4 5 7 8 10 7 7 6 5 5 7 6 4 1 1 5 5 4 5 7 9 12 13 12 9 8 11 13 13 14 15 14 14 13 12 11 10 10 10 10 10
3 2 4 7 6 5 4 10 8 7 7 8 8 6 7 1 2 3 11 6 3 4 5 7 10 12 11 10 7 7 7 9 10 12 12 14 14 14 12 9 9 10 10 11
0 2 3 1 4 7 8 10 13 12 11 11 10 10 7 3 4 3 12 3 3 5 7 8 10 11 9 6 5 4 4 4 6 8 10 11 12 11 10 9 8 8 8 9
3 5 5 4 6 6 9 7 7 7 5 5 9 8 3 4 4 4 6 5 5 5 6 6 7 8 7 5 3 2 1 3 5 6 8 9 10 10 10 9 9 9 9 8
2 4 2 2 6 6 7 8 7 6 6 4 4 4 1 4 5 5 3 3 2 2 3 3 5 5 5 5 4 3 1 1 3 5 6 7 8 9 9 10 10 10 9 9
3 2 1 3 4 6 7 7 5 5 5 5 6 5 5 7 6 5 5 4 3 2 2 1 2 3 4 5 6 5 3 1 2 3 4 5 6 8 8 8 8 8 9 8
3 2 3 3 4 5 6 5 6 7 6 4 4 5 4 4 2 1 2 1 1 1 2 3 4 3 3 4 4 3 3 3 2 1 1 2 3 3 4 5 5 5 6 5
2 1 3 1 2 3 4 5 6 6 6 6 3 3 2 3 2 1 1 2 3 4 4 3 2 3 4 4 4 2 2 2 2 3 3 2 2 2 1 1 1 2 3 3
1 2 1 1 1 1 2 2 3 3 4 4 3 1 1 0 0 2 3 4 6 5 4 3 3 3 3 2 2 1 2 1 1 4 5 5 5 5 4 4 4 4 4 4
1 1 0 0 1 2 3 3 3 3 3 4 3 4 4 4 3 4 4 5 5 5 4 4 3 2 2 2 1 1 2 3 3 2 3 3 3 3 3 3 3 3 4 5
2 1 1 1 1 3 3 5 5 5 5 5 5 5 5 6 5 6 7 9 6 6 5 5 4 2 2 1 1 1 2 3 3 1 1 2 2 2 3 4 5 5 6 8
4 2 0 1 1 4 8 7 6 6 6 6 5 6 6 8 8 6 4 4 7 7 7 6 5 4 4 3 2 2 2 2 1 0 1 1 2 4 5 5 6 7 8 8
5 5 4 4 5 7 6 10 10 11 11 12 11 10 9 9 10 10 11 10 8 9 8 7 7 6 6 5 5 5 4 2 2 2 3 4 5 6 7 7 7 7 8 8
5 5 6 7 7 7 10 11 13 14 16 16 15 15 13 11 11 10 10 8 9 10 9 8 8 8 9 8 7 7 6 4 4 4 5 7 8 8 8 7 8 8 9 10
7 5 6 7 8 9 10 9 9 10 11 11 16 14 13 12 13 12 13 12 11 11 11 10 11 10 11 11 10 9 7 6 6 7 7 8 9 8 8 9 9 9 9 10
6 6 5 6 6 5 6 8 10 13 12 13 16 16 13 13 13 14 14 13 13 14 14 12 12 12 13 13 12 11 10 9 9 9 9 9 9 8 8 10 10 10 9 9

GFSNGP_925_spd_108.txt.gz
Wind_Speed
6 6 8 9 9 7 5 6 3 4 7 10 9 11 8 5 5 6 9 9 6 5 5 6 7 7 7 6 8 10 11 11 11 11 12 14 16 17 18 18 18 18 18 17
2 5 4 4 6 8 10 10 10 10 12 11 14 8 8 5 4 6 9 11 7 5 4 3 3 2 2 4 6 8 9 10 11 13 14 14 14 16 17 18 17 18 16 15
2 7 2 2 4 2 0 0 4 4 5 9 12 9 8 9 7 10 10 9 7 4 3 5 4 2 2 2 3 4 5 9 12 12 14 15 15 16 17 19 19 17 15 14
2 4 1 2 4 2 5 4 2 5 8 11 12 13 11 9 9 10 8 7 4 3 3 4 4 3 2 6 8 10 10 10 11 12 12 14 16 16 15 16 15 15 15 15
2 2 3 3 2 2 2 3 1 3 7 11 13 2 9 11 10 7 7 5 5 5 4 3 2 2 3 5 7 10 13 17 18 19 18 17 16 16 18 18 19 19 18 17
1 1 1 4 2 1 3 4 2 2 5 8 11 2 5 15 11 7 8 8 8 7 6 5 5 5 5 7 9 14 14 15 18 19 21 22 21 21 20 22 19 18 18 15
3 3 4 4 1 4 3 4 5 1 2 5 3 4 10 12 9 6 7 9 10 8 7 8 9 8 8 8 12 11 11 14 17 19 20 20 24 22 20 19 19 15 13 12
3 3 2 5 4 4 3 2 1 2 3 5 6 8 9 10 11 7 5 5 6 5 4 7 9 9 10 10 10 10 10 12 15 16 18 19 20 19 18 18 16 13 12 10
5 1 2 3 1 1 2 1 1 3 5 6 8 9 9 11 12 9 7 5 5 4 3 5 7 6 9 7 6 5 8 10 13 15 15 18 19 20 18 16 14 14 13 12
2 4 9 6 4 4 3 2 2 5 8 8 8 8 10 8 9 9 7 7 7 8 8 9 10 9 7 7 3 3 7 11 13 15 16 15 15 20 17 17 15 14 13 11
5 6 2 7 7 5 3 4 5 7 8 10 10 9 9 8 9 9 6 4 4 6 6 8 10 10 10 8 3 2 4 6 9 9 13 15 14 17 19 19 15 14 12 11
3 6 1 3 6 1 3 4 6 6 8 8 8 10 9 9 9 7 5 1 1 2 3 6 8 9 11 10 5 4 6 8 9 11 12 14 16 13 16 13 13 12 10 11
2 6 3 4 1 2 3 5 7 8 9 10 12 10 11 9 8 5 3 1 1 1 2 4 6 7 9 9 6 4 5 8 10 10 12 14 15 15 15 12 11 12 11 11
7 7 2 4 2 1 5 8 10 10 7 8 9 9 9 10 6 4 4 2 2 3 3 5 4 6 7 6 5 4 3 3 5 7 11 12 14 15 15 17 15 14 14 13
8 5 3 4 1 1 4 5 5 4 5 6 7 6 8 9 6 6 5 4 4 4 3 2 3 5 7 6 4 3 2 1 2 4 7 9 11 12 13 14 14 12 11 12
9 7 5 5 3 2 2 3 4 4 4 4 6 7 6 5 3 2 2 3 3 4 3 3 3 5 5 5 4 3 1 0 2 4 5 7 10 12 13 14 13 13 13 13
12 7 8 7 6 4 2 3 3 3 4 4 6 7 5 2 1 0 2 3 4 5 4 4 3 4 5 5 4 3 2 2 2 3 5 7 8 10 11 11 12 13 13 11
5 4 10 7 7 5 4 4 4 3 3 5 6 5 5 5 4 4 4 5 5 5 6 6 5 4 5 6 5 4 4 4 4 5 5 6 7 7 8 10 10 10 9 8
8 7 6 6 6 6 4 4 4 3 3 4 5 5 5 5 5 5 5 5 6 7 6 6 5 6 7 8 7 5 5 5 5 5 5 5 6 6 7 8 8 8 8 7
8 8 7 6 4 3 4 4 4 3 3 3 3 4 5 5 5 6 6 8 9 9 7 6 7 9 8 7 6 6 5 5 6 6 6 6 7 7 7 7 8 8 7 7
9 9 7 7 6 5 4 3 2 3 3 3 3 4 5 6 6 6 7 8 6 7 9 9 8 8 7 6 6 6 6 5 6 5 5 5 6 5 5 5 5 5 5 5
11 8 8 6 5 4 2 2 3 4 3 3 3 4 5 7 7 8 10 11 8 8 8 9 10 9 7 6 6 6 6 7 7 7 7 6 5 5 5 5 5 5 5 5
9 9 7 6 5 4 2 3 3 3 5 6 8 9 10 11 10 7 6 5 7 7 8 9 10 10 7 8 7 8 8 9 8 7 7 6 6 5 5 5 5 6 6 6
9 8 6 5 4 4 4 3 3 6 8 10 11 11 11 10 10 11 12 11 8 8 9 10 10 10 9 12 11 10 11 10 10 10 9 8 7 6 6 6 7 7 7 7
10 9 8 7 6 6 4 5 6 7 6 6 6 6 7 8 9 10 13 14 15 13 12 11 10 9 10 14 13 13 12 13 13 11 10 10 8 7 7 7 8 8 8 8
10 8 7 6 6 6 5 3 3 3 3 5 7 6 7 8 9 10 11 12 12 12 13 14 15 15 14 14 15 15 14 15 14 13 12 12 11 9 9 9 10 10 10 10
8 7 5 5 7 8 6 4 3 4 4 5 7 7 10 10 10 10 11 10 11 12 14 14 15 17 19 19 18 17 16 16 15 15 14 14 13 12 11 11 12 12 11 11

GFSNGP_925_spd_111.txt.gz
Wind_Speed
5 5 5 8 8 8 1 5 2 6 10 11 12 11 11 9 9 10 12 12 11 9 8 11 11 9 9 9 11 11 12 10 9 10 11 12 13 13 14 16 17 21 22 20
1 5 4 1 4 5 6 8 8 9 9 8 10 10 8 7 6 8 11 12 10 9 9 9 10 8 7 7 7 8 9 10 9 9 8 10 13 14 15 16 18 19 18 18
3 4 2 2 2 0 2 2 3 6 6 12 12 11 9 10 9 7 9 10 9 9 9 10 11 8 7 5 6 6 8 9 10 11 11 12 12 15 16 17 18 18 18 18
2 3 1 3 1 1 1 0 4 7 8 9 10 9 7 9 10 9 9 9 10 9 11 11 10 9 6 3 2 3 5 8 11 14 16 17 18 17 17 17 17 17 16 15
3 3 1 4 4 3 3 5 4 4 7 9 11 5 11 13 11 9 10 8 9 8 9 11 11 11 8 4 2 4 6 8 10 12 14 16 17 19 19 19 18 17 16 16
2 2 2 5 5 1 2 7 9 4 4 9 11 3 6 14 12 10 11 11 10 9 8 5 6 9 10 11 10 9 7 7 10 13 15 16 17 18 18 19 19 16 14 14
3 3 3 5 5 4 3 3 7 5 2 4 4 2 8 9 11 11 8 11 11 11 9 7 7 7 7 8 10 12 11 8 10 12 15 16 18 19 18 17 17 14 14 13
2 3 3 10 6 4 4 2 3 3 4 6 6 6 6 8 9 8 8 11 11 9 9 9 10 9 9 8 7 8 9 10 10 11 13 17 18 18 16 14 14 12 12 12
4 1 3 10 3 3 1 2 2 2 2 4 7 7 7 7 9 9 7 8 8 8 8 9 10 10 11 9 9 7 7 10 12 12 12 14 17 17 15 13 13 13 14 14
3 4 9 8 5 4 3 2 2 3 5 7 9 9 9 8 7 8 7 5 6 7 6 6 8 9 10 10 8 5 5 7 9 12 12 11 10 14 14 14 15 15 16 14
8 9 2 7 7 5 4 3 5 5 8 9 9 11 11 9 8 8 9 5 4 5 4 5 7 7 9 10 8 3 2 5 8 10 14 14 12 14 15 16 16 16 17 17
3 4 2 4 5 4 4 5 5 5 7 8 8 9 9 9 10 7 7 5 4 4 5 6 7 9 11 12 10 5 1 3 6 8 10 14 13 13 16 16 18 15 15 17
2 7 5 8 5 3 3 2 3 5 8 9 11 10 8 8 9 7 6 5 4 3 3 5 6 7 10 12 10 8 3 1 5 7 9 11 12 13 14 12 13 15 14 14
7 10 5 6 3 5 3 2 4 8 9 8 9 7 6 7 7 5 5 4 3 2 2 3 4 5 8 9 8 7 5 2 2 4 7 8 10 10 12 16 14 15 14 13
10 5 3 7 5 5 4 1 3 5 3 4 6 7 6 6 6 3 2 2 2 3 4 5 5 5 7 8 8 7 5 3 2 3 5 7 8 11 13 13 15 14 13 14
11 9 7 6 6 6 4 3 3 4 4 5 6 7 8 7 6 3 1 1 2 4 5 5 6 7 9 10 9 8 7 6 5 5 5 6 8 11 12 14 14 14 15 16
14 10 9 8 8 7 6 3 3 3 4 5 6 7 7 6 4 4 4 4 4 6 6 6 5 6 5 5 7 7 7 7 6 6 6 7 9 11 12 13 14 16 17 14
10 4 10 9 9 8 5 4 1 3 4 5 5 6 5 5 5 6 6 7 8 8 9 9 8 8 7 6 6 8 8 8 7 7 7 8 8 10 10 11 13 14 14 13
9 8 10 8 8 7 6 4 2 3 4 4 5 5 5 5 6 6 6 6 7 8 8 7 7 7 7 6 7 8 8 8 9 9 8 7 7 7 8 10 11 12 12 12
9 10 9 9 7 5 5 4 4 5 5 5 4 4 5 5 6 6 6 8 9 9 10 8 8 8 9 9 8 8 7 8 9 9 9 7 6 5 5 5 7 8 9 10
10 10 9 9 8 7 6 5 6 6 4 4 4 4 5 7 7 8 9 7 7 9 8 9 9 8 9 8 8 8 7 7 7 7 6 4 5 4 4 4 5 6 7 7
12 10 9 8 6 6 6 5 4 4 4 3 3 4 5 7 8 10 10 12 14 12 10 9 9 10 10 9 9 9 8 7 7 7 8 8 6 5 6 7 6 7 7 8
11 11 10 9 8 7 6 5 4 4 4 4 7 10 10 10 12 8 7 7 9 11 11 11 11 12 12 9 10 10 10 8 8 7 7 7 7 7 7 7 8 8 8 8
12 12 11 9 7 6 5 5 5 4 5 7 10 9 8 9 9 10 13 12 11 11 12 13 13 12 11 11 11 12 11 11 11 10 10 8 9 9 9 9 9 9 10 10
13 11 10 8 7 7 4 3 4 6 5 6 5 4 6 6 8 9 10 13 13 13 14 13 14 13 13 13 14 15 14 13 13 13 14 13 12 11 10 9 10 10 10 10
10 9 8 8 6 3 4 4 4 3 3 4 3 4 5 7 8 9 10 11 13 13 13 13 13 14 17 19 17 16 16 16 15 15 15 14 14 12 11 10 10 10 11 10
10 8 6 5 5 6 6 5 4 4 3 3 5 6 7 9 8 9 10 11 12 12 13 14 13 14 15 18 20 22 21 20 17 17 16 16 15 14 12 12 11 10 12 12

GFSNGP_925_spd_114.txt.gz
Wind_Speed
5 3 4 3 4 4 3 4 2 6 6 9 10 10 8 8 8 9 9 10 9 8 7 14 16 14 12 11 7 8 12 13 5 3 7 12 13 13 13 12 14 15 16 17
3 3 5 2 2 2 3 5 1 5 1 9 9 9 9 10 12 8 10 11 10 10 9 14 16 12 11 9 8 7 9 12 16 15 14 12 13 16 17 16 17 19 19 21
0 1 3 4 2 1 2 2 2 2 4 8 6 8 10 9 9 11 11 10 11 10 9 16 16 14 13 8 7 7 9 11 13 15 15 14 15 16 18 19 19 21 21 20
3 2 4 3 2 1 4 0 2 2 4 6 7 9 10 10 10 9 9 9 8 10 14 14 13 14 10 6 5 4 6 8 10 12 13 14 16 17 18 19 20 21 21 20
1 2 1 5 4 3 2 5 6 3 3 4 9 8 7 7 8 8 7 8 10 13 12 11 14 14 13 12 7 2 1 4 7 10 13 15 17 18 18 19 19 19 20 20
3 1 1 3 4 4 3 4 6 5 2 4 7 2 2 6 6 7 11 12 14 18 14 14 15 15 13 10 9 8 6 6 9 10 13 15 16 17 19 21 21 21 20 19
3 2 5 7 7 4 1 4 7 6 2 2 3 2 2 4 5 6 7 9 11 11 11 12 14 16 15 13 10 9 8 7 8 12 15 16 17 20 20 20 20 20 20 19
1 1 6 7 4 4 3 2 6 5 4 4 5 5 3 3 4 6 6 8 9 10 11 11 12 13 12 11 13 13 11 9 9 12 15 17 20 21 20 21 21 19 18 17
5 5 1 8 4 5 3 1 4 3 4 1 4 5 5 3 3 4 8 4 6 8 9 8 12 14 14 15 14 14 12 8 8 11 15 20 22 21 19 20 23 21 19 20
3 4 6 7 3 3 4 2 6 4 2 3 5 6 6 6 5 1 7 3 5 6 7 9 11 12 14 16 14 12 10 8 5 7 11 13 17 20 22 23 22 20 19 20
5 7 2 7 6 7 7 5 3 2 1 4 4 5 5 6 6 5 4 6 4 4 4 5 7 8 11 13 14 13 10 4 3 5 9 12 14 17 20 21 23 22 24 24
5 7 6 1 8 6 7 6 3 2 2 4 4 5 7 5 10 6 2 5 3 2 2 4 5 6 10 11 11 10 7 5 2 2 6 8 11 11 15 12 17 14 14 17
5 5 5 8 8 5 6 5 4 1 3 5 6 7 10 4 9 3 5 4 3 3 2 2 3 5 8 9 8 9 7 4 4 5 7 10 11 10 11 13 13 14 11 12
8 9 4 5 5 7 6 6 5 2 4 6 4 8 8 6 6 7 6 4 4 2 2 2 2 3 7 9 10 9 8 7 6 5 6 9 10 11 11 15 13 13 15 15
9 5 3 8 7 7 8 7 4 2 1 1 3 4 5 5 5 6 3 4 4 4 5 5 6 7 8 9 8 8 8 9 8 7 7 7 8 10 13 14 14 13 14 14
8 8 7 8 8 8 7 7 4 4 1 2 2 3 5 5 4 4 3 3 3 4 6 6 7 7 8 8 9 9 8 7 7 8 7 7 8 9 11 11 11 13 16 17
12 9 8 7 8 8 7 6 5 4 2 3 3 5 5 5 5 3 4 5 6 7 7 7 8 9 10 8 7 6 7 8 7 8 9 9 8 9 10 11 12 14 16 15
6 7 8 8 9 7 7 6 6 4 1 2 3 5 4 5 4 6 7 9 9 9 9 10 10 9 8 7 8 8 7 8 9 9 10 11 11 10 9 10 12 13 14 13
8 9 9 8 11 8 8 7 6 5 3 3 3 4 5 6 6 7 7 8 9 9 9 8 7 7 7 7 8 8 8 8 8 10 11 11 11 11 10 10 10 11 11 12
9 13 14 12 14 14 9 8 8 6 5 5 4 5 4 4 5 7 8 10 13 12 11 12 9 10 10 10 9 9 9 11 12 11 10 11 12 11 9 8 7 8 7 8
10 10 9 13 11 12 12 10 9 8 8 6 5 3 3 5 6 6 8 8 11 8 11 11 11 12 11 11 10 10 10 11 11 11 10 9 8 7 6 5 4 5 6 8
8 8 9 13 12 10 9 10 9 7 6 5 4 4 6 9 10 11 12 14 15 12 11 12 12 12 13 11 13 12 12 12 12 12 12 10 8 6 6 6 6 7 7 8
12 14 14 13 11 10 11 9 8 7 6 6 7 8 9 11 11 11 6 8 11 14 15 15 14 13 13 13 14 15 14 13 13 12 12 11 10 9 7 7 7 8 8 9
14 14 13 13 12 11 6 10 8 6 5 6 8 8 9 10 10 8 9 11 14 14 15 16 16 15 14 16 15 15 17 15 14 14 13 10 11 11 10 10 10 9 9 9
16 16 17 16 10 8 10 10 7 6 6 6 5 5 4 5 6 11 13 13 14 14 15 15 15 15 16 17 18 17 19 17 16 16 16 16 15 13 11 10 9 9 9 9
17 13 15 15 11 9 9 8 6 6 5 3 2 2 3 5 7 9 11 12 14 15 16 17 16 16 15 16 18 19 21 22 19 16 17 17 16 16 14 12 11 7 7 8
16 14 13 10 8 7 7 7 7 6 5 3 2 3 4 7 9 10 12 15 16 16 17 17 17 16 16 17 17 19 21 22 23 22 19 19 18 18 17 15 13 10 9 11

GFSNGP_925_spd_117.txt.gz
Wind_Speed
2 3 2 4 3 4 3 4 4 3 1 5 7 6 7 8 11 12 12 12 10 10 9 16 18 18 16 13 10 8 8 14 14 12 7 7 6 7 10 12 13 14 15 16
4 2 4 2 5 4 3 3 2 2 3 4 6 7 9 10 9 9 10 10 10 8 9 13 18 17 14 12 9 5 5 5 6 8 11 8 7 6 9 11 13 15 17 18
3 2 4 5 4 3 1 2 4 2 3 3 3 6 6 7 7 8 7 7 8 8 9 14 18 17 14 11 9 7 5 4 4 5 4 4 8 9 9 11 12 15 16 19
3 4 4 5 2 2 3 3 4 3 3 4 5 3 5 5 4 6 6 6 7 11 14 12 14 15 13 12 9 6 4 2 1 1 4 7 7 10 13 14 15 16 17 18
3 2 4 1 4 4 4 4 7 6 5 2 3 2 2 3 4 4 5 6 7 11 11 13 17 15 11 12 10 7 5 4 3 4 6 8 11 13 14 16 17 18 18 19
1 2 4 4 4 4 4 3 6 6 6 3 3 3 2 4 3 5 7 8 10 11 10 12 15 14 12 12 10 10 8 7 7 8 10 14 16 16 17 18 18 18 19 19
2 2 6 4 6 4 2 5 6 7 6 4 2 1 3 5 6 6 8 8 9 10 10 11 13 14 14 12 14 13 12 10 7 10 13 14 15 17 18 17 17 17 17 17
1 1 6 7 5 6 4 3 7 7 6 5 5 3 2 2 4 7 8 8 9 9 9 10 13 14 14 15 15 15 14 13 11 9 12 15 17 18 18 18 19 19 19 18
8 5 5 7 4 4 4 5 5 6 4 5 4 2 3 3 5 5 8 7 8 8 7 7 11 12 14 17 18 15 13 11 11 9 9 12 16 17 17 18 19 21 21 22
2 3 7 9 5 6 5 5 5 5 5 3 2 2 3 4 6 6 7 7 7 7 7 8 9 9 12 14 16 15 15 12 7 5 7 9 13 16 18 20 21 21 19 21
6 8 5 7 8 8 7 7 6 5 4 4 2 3 3 4 5 9 8 6 7 7 6 7 9 9 11 13 14 14 11 11 9 7 7 9 11 14 17 20 22 23 25 23
7 8 4 5 7 10 9 7 7 6 5 3 3 4 5 6 9 8 8 6 7 6 6 6 7 9 11 11 11 11 11 9 9 9 7 6 10 10 12 15 15 18 21 22
5 3 4 4 6 5 7 8 7 7 5 4 3 5 6 4 4 2 3 5 5 5 6 6 6 7 9 10 11 11 11 11 10 8 7 7 8 10 12 12 14 16 16 17
5 7 2 4 6 7 7 8 11 7 6 5 4 2 2 0 2 4 4 2 2 4 5 5 5 5 8 10 10 10 10 8 9 9 10 9 9 11 12 13 12 16 18 15
12 4 6 7 7 7 8 8 7 6 6 6 1 1 1 1 2 3 4 3 3 4 5 6 6 6 8 9 9 9 9 9 10 10 9 10 11 11 12 12 13 14 14 12
9 7 8 11 10 9 8 8 7 7 6 5 5 2 0 2 2 2 1 2 2 3 6 7 7 7 7 8 9 10 9 10 10 10 11 12 11 12 13 13 14 14 13 15
9 7 8 8 11 11 11 8 7 7 7 7 6 4 4 3 3 1 3 4 5 7 9 9 10 10 10 10 10 10 11 11 9 11 11 10 11 12 13 14 16 16 16 15
7 12 10 8 12 11 9 8 11 10 9 8 5 5 3 2 3 5 5 7 8 9 8 8 8 10 9 8 8 9 10 10 11 11 11 12 13 13 13 13 14 16 16 14
7 12 11 11 14 10 9 10 13 13 11 9 7 7 6 5 5 5 5 7 8 10 10 8 11 8 9 9 9 10 11 12 12 12 13 14 15 14 14 14 14 14 13 13
8 13 15 13 19 17 12 17 15 13 11 9 8 7 6 5 4 3 3 7 9 10 9 10 12 12 12 12 11 12 12 13 13 14 14 14 15 16 16 14 13 13 11 10
11 10 9 13 13 20 20 16 14 12 11 10 10 9 7 5 4 4 5 7 11 10 9 12 11 12 12 12 12 13 13 14 15 15 14 13 13 14 15 13 10 7 6 7
11 12 11 16 15 15 17 16 14 12 12 12 10 8 7 7 5 7 9 11 11 7 9 12 13 13 12 12 13 15 17 15 16 15 15 15 14 15 15 12 10 8 6 5
13 16 15 15 13 14 13 14 14 13 13 12 11 9 7 8 7 6 4 3 9 10 11 13 13 12 12 13 15 17 17 17 17 16 16 15 15 14 14 14 12 10 9 8
14 17 15 19 18 14 7 13 12 12 11 9 8 7 7 6 5 3 2 7 9 9 11 12 12 13 14 14 16 17 18 18 19 17 17 15 15 14 14 13 13 11 10 9
17 18 19 17 11 9 15 13 13 12 10 8 6 5 3 3 3 4 7 8 9 11 12 13 12 13 12 13 14 15 18 19 20 20 19 18 17 17 17 15 13 11 10 10
16 14 14 16 15 16 15 16 13 11 9 6 4 4 3 1 2 5 7 8 11 12 14 15 15 14 14 14 15 16 16 18 19 20 20 20 19 18 18 18 16 13 12 11
16 17 16 13 13 15 15 14 11 10 8 6 5 3 2 2 3 6 9 12 14 15 16 16 15 15 15 15 15 16 17 17 17 20 21 20 20 21 20 19 18 17 17 16

GFSNGP_925_spd_120.txt.gz
Wind_Speed
2 4 3 3 4 6 4 3 3 3 3 1 3 3 5 5 7 9 10 12 11 10 10 16 19 23 20 18 14 13 12 11 9 18 17 16 13 7 5 10 14 20 26 28
4 4 4 3 4 3 3 2 3 3 3 1 3 2 5 6 5 7 7 8 9 10 12 16 22 22 19 17 14 12 10 10 7 6 10 11 11 6 6 7 8 10 12 13
3 6 6 5 4 4 2 3 3 3 4 1 2 3 2 4 5 6 6 7 8 7 8 15 20 19 18 15 13 13 11 8 6 4 3 4 4 6 4 7 7 9 9 11
2 4 4 6 3 1 4 6 5 2 3 4 1 4 2 1 3 4 5 6 6 9 13 15 18 18 15 15 14 12 11 9 6 3 1 1 2 2 5 7 7 9 11 12
2 2 5 3 4 4 4 5 7 6 5 4 2 2 3 1 1 2 3 3 6 10 10 13 17 17 15 15 14 14 15 13 10 7 5 4 4 5 6 8 10 11 12 14
1 1 4 3 2 4 3 4 6 6 7 5 4 2 4 1 2 3 5 5 7 7 6 9 13 13 13 14 15 16 17 16 13 10 10 9 9 9 9 9 10 11 12 13
2 3 7 5 5 3 1 5 5 7 6 6 4 4 2 2 3 3 2 4 5 6 5 7 9 10 11 12 14 14 14 14 13 12 12 12 12 13 12 12 11 12 13 14
1 1 6 6 4 6 5 1 6 6 6 6 6 3 3 2 1 4 6 4 4 6 6 6 7 8 8 11 14 15 15 14 14 12 11 11 13 14 13 12 13 13 14 16
8 6 4 9 6 6 5 5 5 6 6 7 6 6 4 3 2 2 6 6 4 3 4 4 7 8 10 12 14 14 12 11 10 9 8 9 8 11 12 12 14 15 17 18
2 3 9 10 8 4 7 7 5 5 6 7 5 5 5 4 4 4 7 7 4 4 4 5 6 7 10 12 13 14 12 11 10 9 7 7 7 8 10 12 14 16 17 20
6 9 6 11 10 8 6 6 5 5 6 6 5 5 5 4 5 8 9 9 7 5 5 5 5 7 10 11 12 12 10 10 10 11 10 10 8 9 11 13 16 18 21 21
7 9 5 6 4 9 10 9 9 8 5 5 6 5 4 6 10 9 9 8 7 7 5 3 3 3 5 7 9 9 10 11 10 10 9 9 11 13 11 12 13 15 18 18
6 6 6 0 1 6 9 9 7 8 6 7 6 6 7 7 5 5 4 5 7 6 5 5 4 3 4 5 7 8 10 11 11 10 11 11 10 10 14 16 15 16 16 18
5 6 2 5 6 8 7 9 14 10 11 9 8 6 7 4 1 2 1 4 6 6 5 5 7 7 8 9 9 9 10 10 11 11 10 10 11 12 13 15 16 19 14 17
12 14 7 5 6 7 7 8 7 7 6 6 7 4 3 4 4 5 4 5 7 6 6 6 8 11 10 10 10 11 11 11 11 12 12 11 12 13 13 14 15 17 18 15
8 10 8 9 12 11 9 8 8 7 6 7 8 5 2 3 4 5 4 3 4 5 7 8 9 11 11 11 13 13 13 11 11 11 12 14 15 14 14 14 15 15 16 17
7 7 6 6 12 14 15 11 10 9 7 8 9 8 5 6 6 4 4 5 6 8 11 12 13 11 12 12 12 12 12 13 11 12 12 13 13 14 16 16 16 16 16 16
18 14 16 9 14 14 10 10 12 14 9 14 12 9 8 7 6 7 8 8 9 10 10 10 9 10 11 12 11 11 12 13 13 13 14 13 12 15 16 16 18 18 19 19
14 12 13 11 15 13 12 11 16 19 19 16 13 10 11 10 9 9 7 7 8 9 8 6 8 10 12 11 10 12 13 14 15 16 15 14 13 13 13 14 15 19 21 20
8 9 14 12 18 17 11 18 22 21 19 17 14 11 11 12 10 8 6 7 7 8 9 8 9 11 12 13 12 13 14 15 15 16 16 15 15 14 13 14 16 17 19 19
11 11 11 11 10 17 20 23 22 17 19 17 15 15 13 10 8 6 6 7 7 9 7 9 10 12 13 13 13 13 14 15 17 19 18 18 18 18 19 19 17 16 15 15
9 10 10 13 13 13 21 26 24 20 18 17 15 12 10 9 7 7 8 10 9 5 7 10 11 11 12 12 14 15 17 18 19 19 19 19 18 19 19 18 17 17 15 13
11 12 13 14 14 15 23 22 19 18 19 17 15 13 12 8 7 6 4 3 5 7 9 9 10 9 11 12 13 15 17 19 20 20 20 20 19 19 19 18 16 14 13 12
12 18 15 18 22 18 8 16 18 18 16 14 12 11 10 8 6 6 5 4 5 6 8 9 9 10 11 13 12 14 16 17 19 20 20 20 20 20 19 18 17 15 14 11
15 18 20 18 11 8 18 19 16 14 13 12 10 8 7 7 5 6 2 2 4 6 8 10 11 11 11 12 13 14 15 16 17 19 19 19 21 20 19 18 17 16 15 13
14 12 18 21 16 19 20 21 14 18 14 10 8 9 9 7 5 3 1 3 6 8 10 11 12 12 13 13 13 14 14 16 17 17 18 20 21 20 20 19 18 18 17 15
12 17 17 15 18 20 21 21 18 16 14 14 11 11 9 7 5 2 2 5 8 10 11 11 11 11 13 13 15 16 17 17 17 19 20 20 20 20 19 19 18 17 18 18

GFSNGP_925_spd_123.txt.gz
Wind_Speed
3 5 3 4 6 5 3 3 4 3 3 2 3 3 6 6 7 9 10 12 11 10 11 19 23 26 27 24 22 17 13 8 9 7 11 6 6 5 6 6 5 14 24 30
3 3 3 4 5 5 4 2 3 3 4 4 2 1 3 5 7 6 7 8 8 8 10 14 20 22 24 24 21 19 19 16 10 5 2 3 6 6 6 5 4 7 11 15
4 5 4 5 3 3 3 3 4 3 4 3 4 5 2 2 4 5 6 7 8 8 10 16 21 19 20 20 19 22 20 16 13 8 3 1 2 3 5 5 6 7 6 7
3 5 4 5 3 3 5 7 6 3 4 5 1 3 3 2 2 6 6 6 5 9 15 19 20 20 17 17 18 19 19 17 13 9 6 3 2 2 6 7 6 7 6 6
2 1 6 1 1 4 2 6 6 7 4 5 3 3 4 4 2 1 3 5 6 9 9 13 17 18 17 19 19 20 20 18 15 12 7 6 5 4 3 4 5 5 5 7
2 2 4 3 1 3 3 5 4 7 6 6 4 0 3 4 2 3 5 4 6 9 9 12 16 16 18 21 22 23 21 19 16 13 10 9 8 7 7 8 7 7 7 7
2 3 7 5 4 2 3 5 5 6 6 7 5 5 3 3 2 1 3 4 5 6 6 9 12 14 17 19 22 20 19 17 16 15 13 11 9 9 8 9 9 8 8 8
2 1 5 6 3 6 5 1 3 5 6 7 5 4 4 4 2 1 2 3 3 4 4 5 7 9 10 13 14 15 16 16 16 17 15 14 13 11 10 9 9 10 10 11
7 5 4 8 7 6 5 5 5 5 5 7 6 6 5 4 3 3 5 5 3 4 2 3 5 6 9 11 12 12 12 12 13 13 13 12 13 13 13 13 13 13 12 13
2 4 9 12 9 6 7 7 6 6 7 7 7 6 5 3 3 3 8 8 6 5 5 3 3 3 6 9 10 12 12 12 11 12 13 14 12 11 11 11 12 15 17 18
6 10 8 12 10 11 10 8 6 5 7 8 7 5 5 4 4 7 9 9 8 6 6 5 5 4 5 7 9 10 10 11 12 12 13 14 12 12 12 13 12 15 18 20
7 10 5 7 4 5 10 13 11 9 6 5 8 7 5 5 7 8 9 9 7 6 6 4 4 4 5 6 7 8 9 11 12 13 14 14 15 18 13 13 15 16 17 18
10 6 8 4 4 4 9 9 9 10 7 8 7 10 8 4 6 7 5 4 5 6 5 4 4 4 5 7 7 8 9 10 11 12 13 14 16 17 20 23 19 16 15 16
13 5 7 6 7 8 8 7 14 10 13 12 14 11 10 8 6 5 5 4 4 5 6 5 5 5 6 7 8 8 9 10 11 13 13 14 13 15 17 17 19 23 24 19
15 16 19 2 5 5 6 7 8 8 7 7 14 13 11 7 6 4 3 3 4 6 7 6 7 7 6 7 7 9 10 11 11 11 12 12 15 17 17 17 17 19 24 24
6 12 12 12 9 9 8 9 10 10 9 7 11 13 12 8 5 4 3 3 3 3 5 7 9 9 8 9 9 10 10 10 9 10 12 14 15 14 12 13 14 15 17 19
5 6 7 8 12 14 17 13 15 13 9 10 15 18 14 9 6 4 5 5 5 6 9 11 14 10 10 9 10 11 10 10 9 10 11 11 11 13 13 15 15 16 18 20
16 16 13 12 14 15 13 13 12 15 14 20 22 19 14 11 7 8 8 8 9 9 8 8 8 6 7 8 9 9 10 10 11 12 13 12 11 12 14 15 16 17 18 19
13 16 11 14 10 14 14 14 16 20 21 24 21 16 15 14 11 10 9 9 9 8 4 3 4 7 9 9 10 9 11 13 14 14 13 13 14 14 12 14 15 16 18 18
7 8 10 9 14 14 11 18 21 20 23 25 22 17 12 14 13 11 10 11 9 7 6 6 6 8 9 10 10 11 12 14 15 15 15 15 16 17 17 17 19 22 19 18
8 8 8 9 8 14 17 22 23 19 25 27 22 16 15 15 13 11 9 7 4 4 6 5 6 8 10 10 10 12 13 15 15 17 18 19 19 19 19 20 20 20 20 20
6 7 7 8 7 9 17 21 22 22 25 24 20 16 16 13 12 11 10 9 6 5 4 6 7 7 8 8 10 12 14 16 17 20 23 22 22 21 21 21 21 21 20 19
5 6 7 8 8 11 20 20 23 27 23 22 19 19 19 17 16 11 5 6 5 4 5 5 6 7 8 11 13 14 15 16 17 20 20 22 24 23 22 22 22 21 19 17
6 8 9 14 17 14 9 16 24 25 24 19 20 19 18 16 11 10 8 7 4 4 4 5 6 8 9 12 13 13 14 15 16 17 18 19 22 22 21 22 23 22 20 18
8 11 13 12 10 8 14 22 21 18 17 16 16 15 15 12 9 11 10 7 5 4 5 7 9 10 11 13 13 14 14 15 16 18 18 20 21 22 23 22 22 22 20 19
10 7 12 16 13 16 17 19 14 18 19 15 14 14 13 12 10 11 8 6 3 3 6 8 9 10 11 12 13 14 16 17 18 18 18 20 21 22 22 23 23 22 20 19
13 13 12 9 14 19 21 18 17 15 18 19 15 15 15 14 12 10 7 4 1 3 5 7 8 9 10 11 14 16 18 20 19 19 20 21 22 22 21 23 23 21 20 18

GFSNGP_925_spd_126.txt.gz
Wind_Speed
5 6 3 4 7 4 2 4 4 2 4 5 6 6 4 5 7 8 9 11 11 11 11 18 22 26 29 30 29 26 22 20 18 17 13 8 6 7 7 6 5 9 13 18
3 4 4 5 7 6 4 3 5 4 5 6 2 5 6 5 5 6 8 9 8 8 11 16 20 24 27 28 29 27 27 24 20 18 16 13 10 8 5 4 2 2 4 6
4 2 3 5 6 5 3 4 4 3 5 4 4 4 5 6 6 6 5 6 7 8 10 16 20 20 23 23 24 27 25 24 21 18 15 13 10 8 6 6 5 5 4 3
4 5 3 5 2 4 6 7 8 4 4 5 3 3 6 6 3 5 5 5 5 7 12 15 16 17 16 18 19 20 20 20 18 16 14 13 11 9 7 5 6 6 7 7
1 2 6 1 3 5 4 5 6 8 6 5 2 2 6 6 4 2 3 3 3 6 8 10 13 13 13 16 18 20 20 18 17 14 12 10 8 7 6 6 5 4 5 6
1 2 2 2 2 1 2 4 6 7 8 8 5 1 4 3 4 4 4 4 6 8 6 9 11 11 13 17 20 21 19 17 15 13 11 10 10 9 7 7 8 8 7 6
1 3 7 5 4 3 2 5 4 6 7 8 6 5 4 5 4 4 2 3 2 5 6 9 10 11 15 16 19 17 15 14 15 15 15 14 12 9 8 8 9 10 11 11
2 1 4 7 3 6 5 2 4 5 6 8 6 5 6 7 7 7 5 1 2 4 4 4 6 8 11 15 15 15 14 14 16 16 15 14 14 14 13 13 13 15 15 15
8 5 3 8 7 6 4 4 5 5 6 8 7 7 7 6 7 7 7 4 3 3 2 2 1 4 7 8 10 12 12 13 14 14 15 16 15 13 13 13 13 14 15 17
2 3 9 12 10 7 8 9 6 6 7 8 7 7 7 6 6 5 7 6 6 6 4 5 4 2 3 4 6 7 9 10 11 13 13 13 14 13 13 13 12 13 15 16
6 11 9 13 12 12 11 10 8 7 8 9 8 6 7 6 6 9 9 8 7 8 6 6 5 5 4 3 4 4 5 7 10 11 13 14 15 13 14 13 12 15 16 17
9 13 6 10 5 6 9 11 14 11 7 6 8 9 7 6 9 8 9 8 8 8 6 5 5 4 4 3 4 7 7 8 10 11 11 11 13 18 17 17 17 15 15 15
16 5 10 7 5 5 7 10 10 12 11 9 9 12 11 6 12 11 10 8 8 7 6 6 6 6 4 4 4 5 7 8 9 11 12 13 14 14 16 25 23 23 22 21
17 2 9 8 9 9 9 6 9 12 15 13 15 15 16 13 11 12 13 13 10 6 5 5 6 7 5 5 5 5 5 5 8 10 11 12 13 15 17 15 17 18 22 18
19 15 20 2 5 7 4 5 7 8 9 7 16 15 16 10 10 13 12 11 9 6 6 7 6 5 5 6 6 5 6 7 9 11 11 10 12 13 13 11 13 16 19 20
11 12 13 14 15 8 9 8 9 11 9 8 10 15 20 19 14 12 10 10 9 9 8 7 6 6 7 6 7 6 7 10 9 9 10 11 11 9 10 12 13 15 16 18
6 7 6 7 14 15 16 15 14 12 12 11 15 18 19 17 14 12 11 9 7 6 7 8 9 9 8 7 7 7 8 8 7 8 10 11 11 12 12 12 14 15 16 17
15 16 9 9 9 11 12 13 12 11 13 22 20 21 17 16 11 14 14 11 10 10 11 11 9 7 6 5 5 6 6 7 8 10 11 12 13 13 14 16 15 15 17 18
15 18 13 10 10 9 10 11 14 21 19 22 21 19 21 19 19 16 14 14 12 11 11 7 5 6 6 6 7 8 8 8 10 11 12 13 14 15 15 17 20 22 22 23
7 7 6 7 12 11 8 13 17 17 20 23 21 19 17 20 18 16 15 16 17 11 8 7 6 7 7 6 6 7 9 10 12 13 13 14 15 18 18 18 20 21 21 19
8 7 7 7 7 11 13 15 16 14 19 24 24 20 19 21 16 16 12 8 11 12 9 7 7 6 7 6 5 6 8 10 12 15 17 17 18 20 22 22 22 22 22 22
4 5 5 5 5 5 10 15 17 16 19 20 21 24 22 17 16 15 16 13 8 8 7 7 6 5 4 4 6 8 10 11 13 14 15 17 17 18 19 22 23 23 22 22
4 3 4 5 5 5 9 13 17 20 19 20 22 24 22 19 20 13 6 13 10 9 7 6 4 3 4 7 8 9 11 12 13 14 16 16 17 18 19 21 22 22 23 23
3 4 4 5 8 9 7 11 15 17 21 23 25 23 20 18 14 15 7 9 9 8 6 4 3 3 5 8 10 11 11 12 14 16 17 18 19 19 21 21 23 23 22 21
5 4 6 8 6 4 11 17 18 19 22 22 18 16 16 16 14 16 13 11 9 7 5 3 4 6 8 9 10 11 11 13 15 15 18 20 21 21 21 21 23 23 22 23
4 4 8 13 10 14 16 18 11 16 19 14 15 17 16 13 11 15 15 12 9 5 2 3 5 7 8 9 10 11 14 16 18 18 18 20 22 23 24 24 24 24 23 23
6 6 6 6 11 18 20 19 17 14 17 19 16 17 17 16 15 15 13 10 6 3 1 3 4 6 7 8 11 13 15 16 16 17 19 21 22 22 22 22 21 20 20 19

GFSNGP_925_spd_129.txt.gz
Wind_Speed
6 6 2 4 6 4 3 4 4 2 5 7 5 5 4 3 5 7 9 10 11 11 11 17 20 23 25 25 26 24 26 26 23 23 21 17 15 13 13 11 7 7 6 9
5 3 5 6 9 6 6 3 7 5 7 8 5 3 5 3 4 5 6 8 9 9 12 16 17 18 20 23 24 24 25 23 22 20 19 17 15 14 11 10 7 4 4 2
4 3 3 5 6 6 4 4 4 4 6 4 4 5 5 4 2 2 4 4 7 8 10 13 16 18 19 20 21 23 23 23 22 20 19 16 13 10 10 11 8 8 7 4
4 3 3 4 0 3 6 8 8 6 5 6 5 4 4 4 3 4 3 3 3 6 9 12 13 15 15 19 20 21 21 21 20 18 16 15 14 14 12 12 11 10 9 7
1 2 6 2 3 4 4 6 6 11 6 5 3 2 7 7 8 5 3 1 3 4 4 7 10 11 13 17 19 22 22 21 18 16 16 15 14 14 13 12 12 12 11 10
1 0 2 4 3 4 3 5 7 7 8 6 4 1 4 5 5 6 6 4 2 1 3 5 8 9 13 15 17 18 16 15 15 15 16 16 14 13 12 11 11 10 10 10
3 4 7 7 5 5 1 5 5 7 6 8 6 7 3 4 5 8 8 7 4 2 3 2 3 6 8 10 14 11 11 12 14 15 16 15 13 13 11 11 10 11 11 11
2 1 6 8 5 7 6 3 6 6 7 11 12 4 5 6 6 6 7 6 6 5 4 3 2 2 5 7 7 8 9 10 12 12 13 12 12 11 10 10 10 10 10 11
9 6 3 12 8 9 6 6 6 6 8 11 9 9 8 8 8 8 11 11 8 8 7 6 5 4 2 2 5 6 6 7 9 9 9 9 9 10 10 9 10 11 12 12
1 7 14 12 12 6 8 10 7 7 7 10 10 9 10 8 7 6 14 13 11 9 10 9 8 6 4 0 2 3 6 7 7 7 8 9 8 8 9 9 7 9 10 12
7 13 7 15 13 11 12 12 7 8 9 11 10 7 9 7 8 11 15 14 13 14 14 14 10 10 8 5 3 1 2 4 6 7 9 9 9 8 9 9 10 9 11 13
9 9 6 11 5 6 10 11 14 10 8 9 10 11 8 8 13 15 15 14 13 14 13 14 12 11 9 7 5 3 1 3 5 7 10 12 13 15 11 11 13 13 10 10
18 9 9 14 5 6 8 10 9 10 11 8 11 13 10 6 16 18 16 14 15 15 14 12 12 11 10 8 6 4 3 4 6 7 7 10 11 10 12 19 17 10 10 13
17 8 10 9 11 9 9 7 6 8 12 13 14 16 14 12 13 16 17 18 15 14 12 11 11 11 10 11 9 8 8 7 6 5 7 9 8 8 9 8 12 16 16 15
19 16 21 19 2 7 6 4 7 8 7 7 16 16 17 10 11 18 18 16 15 14 12 11 11 10 9 9 9 8 8 7 7 8 8 7 7 7 6 8 10 14 20 16
7 13 11 14 20 9 9 9 10 12 8 8 9 15 22 21 21 20 17 18 17 14 14 12 13 11 10 9 9 9 8 8 9 9 7 7 7 8 9 11 12 14 14 14
7 9 7 7 12 14 13 13 13 14 9 10 13 19 18 19 18 18 20 19 18 14 13 12 11 10 11 11 10 8 8 8 7 8 8 9 10 11 12 13 14 15 17 18
15 16 12 9 9 9 8 11 10 10 11 19 17 18 17 16 14 18 22 20 16 13 12 11 12 11 9 8 7 7 6 6 6 7 9 11 12 12 12 14 17 17 20 22
9 14 10 9 7 7 7 8 8 16 17 18 18 17 23 21 18 20 23 21 17 13 14 12 10 9 9 7 7 7 7 7 6 9 11 11 13 13 14 16 18 19 21 21
5 5 6 5 8 7 8 12 14 15 18 19 18 16 16 20 23 23 23 17 17 15 12 10 9 8 7 7 6 7 7 8 9 10 11 12 13 16 17 16 16 17 19 19
5 5 6 6 6 8 12 13 11 9 15 20 19 17 19 22 26 25 16 7 14 14 13 11 9 8 7 6 5 5 5 7 9 11 13 15 15 17 18 17 17 17 21 20
3 3 4 5 4 4 5 5 8 10 14 17 17 19 20 20 23 22 20 16 14 12 15 12 9 8 6 4 3 4 6 8 10 12 13 13 15 17 17 16 18 20 22 24
5 4 3 4 5 4 4 7 10 14 16 18 19 20 19 20 23 15 6 15 15 15 12 10 8 7 5 5 4 5 7 9 10 12 13 16 17 18 20 20 19 19 21 23
2 3 2 3 4 4 4 7 10 13 17 19 22 24 26 21 15 14 12 17 17 15 12 11 9 7 6 3 3 4 5 7 9 12 13 14 17 19 21 23 23 22 23 23
4 3 5 5 4 4 6 7 9 11 13 16 19 23 22 22 14 19 18 19 18 17 14 10 8 5 3 2 3 3 5 8 10 12 15 16 18 20 22 23 23 22 22 21
4 3 7 10 8 8 8 13 6 14 15 12 16 18 17 16 14 24 19 19 18 16 13 9 6 3 1 0 2 4 6 9 11 13 14 17 19 21 22 23 23 23 20 20
5 6 5 5 8 9 12 17 12 11 17 17 16 20 21 19 20 23 23 20 17 14 11 8 5 3 2 1 3 5 7 9 10 12 15 17 19 21 22 23 23 21 21 23

GFSNGP_925_spd_132.txt.gz
Wind_Speed
10 11 7 8 9 8 7 7 5 2 7 11 9 5 3 5 5 5 7 8 10 12 12 18 19 20 21 21 21 19 21 26 22 20 21 19 19 19 15 10 9 4 3 3
4 3 8 9 12 11 12 12 14 15 16 8 6 4 5 2 3 4 4 5 8 8 11 14 17 18 17 17 18 17 19 19 17 17 16 17 18 19 17 16 14 10 9 6
3 2 4 7 8 12 6 7 6 7 4 3 5 7 7 5 6 3 3 3 4 5 7 9 12 13 15 15 15 18 18 17 16 15 14 14 13 13 13 13 12 11 9 8
3 2 3 2 2 4 11 11 13 14 12 8 8 5 7 7 8 7 5 3 1 2 4 6 7 8 9 12 14 14 14 15 15 14 13 12 12 12 11 10 8 7 8 7
3 3 7 3 5 6 7 4 13 18 15 11 6 6 14 13 12 9 7 5 3 2 1 2 3 5 7 9 9 11 13 12 12 11 10 10 11 10 9 11 10 9 7 7
0 3 4 2 5 5 3 6 9 12 9 10 8 5 4 3 9 10 10 8 6 5 3 1 2 3 5 7 8 10 10 10 10 11 11 11 10 10 9 9 8 7 7 7
6 6 8 4 9 7 2 2 7 9 8 11 9 9 3 3 6 9 10 9 8 7 6 4 2 0 3 4 5 5 5 7 9 9 9 9 9 8 8 8 7 8 9 8
4 4 8 12 8 6 1 3 6 9 11 13 15 8 9 6 8 9 9 9 10 8 8 6 5 4 3 2 2 3 3 5 6 6 7 7 7 6 6 6 7 7 7 7
8 5 2 21 5 15 2 4 6 10 10 14 12 13 12 9 11 11 14 12 11 11 8 7 7 6 5 4 3 3 2 2 4 4 5 6 6 7 6 7 7 7 7 8
3 7 16 14 18 13 9 12 7 10 10 12 15 13 13 13 11 10 13 14 14 12 11 10 10 9 6 4 3 2 2 2 3 3 4 5 4 5 4 4 5 5 7 8
9 20 14 19 17 17 15 14 13 12 13 14 14 14 14 12 12 13 15 15 14 14 13 13 11 11 11 9 7 5 4 3 1 1 2 3 3 3 4 3 3 6 7 8
11 18 12 16 8 7 12 13 14 13 12 15 15 16 13 12 13 15 16 15 14 14 13 13 13 12 12 12 10 8 6 4 3 2 2 4 6 6 7 4 7 5 4 6
23 23 18 18 16 11 13 12 12 11 13 12 13 15 15 13 16 15 15 16 16 16 14 13 13 12 11 11 10 8 7 6 6 6 4 4 9 8 9 8 10 5 6 8
20 20 18 20 13 10 10 12 8 10 12 12 14 13 16 15 13 16 18 18 15 14 13 13 13 12 11 11 10 8 8 7 5 5 5 7 7 6 7 9 10 9 9 10
22 18 20 19 15 16 11 9 10 12 13 11 14 13 14 13 13 18 17 16 15 14 13 13 12 10 11 10 9 8 6 6 5 5 6 6 5 5 6 8 10 12 13 11
9 14 16 17 18 17 13 13 14 14 13 13 9 12 18 19 18 17 18 19 18 16 17 15 14 13 13 12 11 10 8 8 7 7 7 6 5 6 8 8 9 11 12 12
11 14 13 11 13 16 15 14 14 13 12 13 15 16 16 17 16 17 18 19 20 17 17 16 14 15 14 12 12 11 10 8 7 6 6 6 6 7 8 9 10 12 14 13
16 19 15 15 13 12 12 13 12 14 14 16 16 14 16 16 16 20 22 19 15 13 16 16 16 15 15 14 12 10 9 7 6 6 5 6 6 7 8 10 11 13 15 15
13 16 15 13 12 12 11 11 12 16 14 13 14 13 18 20 20 20 21 21 18 16 17 18 16 15 14 14 12 9 8 7 6 5 5 6 7 8 9 11 13 14 15 16
8 8 7 8 10 10 10 10 11 11 11 11 13 12 10 15 19 21 24 22 22 18 20 19 17 16 16 14 13 10 9 8 7 6 6 7 8 9 11 13 14 15 15 15
8 6 6 6 6 8 11 9 8 8 10 11 13 11 14 16 20 22 19 9 16 20 19 16 19 17 16 14 13 10 9 7 6 6 6 7 8 10 11 12 13 14 14 15
5 5 5 5 5 4 6 7 7 7 8 10 11 11 14 15 18 18 18 16 20 22 19 20 18 16 14 12 11 9 7 6 5 6 7 7 9 11 13 14 15 16 16 16
4 3 3 4 4 3 2 5 6 7 8 10 12 14 16 15 19 14 8 17 22 22 21 19 17 15 13 12 10 8 7 6 6 6 6 7 8 10 12 14 16 17 19 20
5 4 3 3 4 3 4 4 6 6 6 8 11 15 16 14 10 13 14 22 22 22 21 19 17 16 14 11 8 6 5 4 4 6 7 7 10 10 11 13 14 16 17 18
5 6 7 6 5 4 5 5 5 5 5 5 7 11 14 15 13 16 17 24 23 21 18 18 17 15 12 9 7 5 4 3 3 4 6 8 9 11 12 13 14 16 17 18
6 5 6 9 5 6 6 7 4 7 8 8 7 10 13 15 18 21 20 22 20 21 19 17 14 11 9 8 6 5 3 2 2 4 5 8 10 13 14 15 15 16 16 17
4 4 4 4 8 7 8 9 8 8 11 11 10 12 15 17 19 20 22 21 20 20 18 14 12 10 9 8 6 3 2 0 2 3 6 9 12 15 16 17 19 19 19 18